     2              OBSERVATION DATA    GPS                 RINEX VERSION / TYPE
TRRINEXO-V2.3.1-LH UCLA/SCEC 26-FEB-1994                    PGM / RUN BY / DATE
                                                            COMMENT
Original Marker Name: CAHUENGA #2 1933 RE 62                COMMENT
Campaign Name: Northridge 1994                              COMMENT
4-Character Station Name: CAHA                              COMMENT
6-Character Antenna Code: TRMSST                            COMMENT
Vertical Measurement Point: TGP                             COMMENT
Vertical Offset to Rinex Ref. Point: 0.0629                 COMMENT
Radial Measurement Point: NGP                               COMMENT
Radial Offset to Rinex Ref. Point: 0.2334                   COMMENT
Antenna Height from Field Measurement: 0.9760 m             COMMENT
Original XYZ: -2507738.4808 -4652349.3463 3559330.2049      COMMENT
New XYZ position is based on association with SCEC monument COMMENT
E1C7Z2V7+0011. Position of that monument is believed to be  COMMENT
valid to within 1 m horizontally; vertical accuracy         COMMENT
should be no worse than 3-times this value.                 COMMENT
                                                            COMMENT
Revised Rinex header created by UCSD GPS archive for        COMMENT
GSAC on 10-Apr-1999 (1999:100) 01:57:10 GMT                 COMMENT
For assistance contact dagnew@ucsd.edu or hjohnson@ucsd.edu COMMENT
                                                            COMMENT
CAHUENGA #2 1933 RE 62                                      MARKER NAME
W. GARCIA/T. CHAVEZ CALIF DEPT TRANSPORTATION               OBSERVER / AGENCY
931 TRIMBLE 4000 SST 4.81                                   REC # / TYPE / VERS
68272 TR 4000SST L1/L2 GEO                                  ANT # / TYPE
 -2507737.0000 -4652349.0000  3559325.0000                  APPROX POSITION XYZ
        0.8848        0.0000        0.0000                  ANTENNA: DELTA H/E/N
     1     2     0                                          WAVELENGTH FACT L1/2
     3    C1    L1    L2                                    # / TYPES OF OBSERV
    30                                                      INTERVAL
  1994     2    14    17     0   30.000000                  TIME OF FIRST OBS
  1994     2    14    22    59   30.000000                  TIME OF LAST OBS
     0                                                      # OF SATELLITES
                                                            END OF HEADER
 94  2 14 17  0 30.0000000  0  6 25  1 14 15 22 29
  21084971.625          -0.59017
  24437173.547          -0.44915
  21542664.039          -0.72917
  21289978.758          -0.76317
  23589285.859          -0.78315
  22910597.641          -0.32116
 94  2 14 17  1  0.0000000  0  6 25  1 14 15 22 29
  21091596.617       34805.073 7        -0.08119
  24448691.250       60521.657 5
  21526321.820      -85885.325 7        -0.05417
  21297488.492       39463.475 7        -0.33618
  23569384.422     -104587.211 5
  22896852.250      -72219.981 6        -0.13816
 94  2 14 17  1 30.0000000  0  6 25  1 14 15 22 29
  21098249.563       69773.677 7     27248.143 9
  24460146.547      120728.330 5        -0.06515
  21509967.484     -171828.624 7    -66968.866 7
  21305039.492       79148.016 7     30922.615 8
  23549442.375     -209400.727 5        -0.17614
  22883077.539     -144625.462 6    -56419.999 6
 94  2 14 17  2  0.0000000  0  6 25  1 14 15 22 29
  21104930.281      104879.448 7     54603.245 9
  24471544.891      180602.410 5     46654.842 5
  21493596.859     -257857.328 7   -134004.229 7
  21312629.031      119036.939 7     62004.823 8
  23529452.352     -314449.240 5    -81856.056 3
  22869262.055     -217234.264 6   -112998.298 6
 94  2 14 17  2 30.0000000  0  6 25  1 14 15 22 29
  21111627.531      140074.905 7     82028.229 9
  24482872.867      240128.827 5     93038.866 4
  21477205.367     -344000.220 7   -201128.577 7
  21320254.031      159099.566 7     93222.391 8
  23509413.398     -419746.385 5   -163905.671 5
  22855398.375     -290074.229 6   -169756.720 6
 94  2 14 17  3  0.0000000  0  6 25  1 14 15 22 29
  21118336.133      175338.277 7    109506.131 9
  24494132.414      299307.882 5    139152.207 4
  21460788.836     -430263.743 7   -268346.917 7
  21327911.500      199324.476 7    124566.408 8
  23489325.898     -525305.633 5   -246159.533 5
  22841494.242     -363149.117 6   -226698.197 6
 94  2 14 17  3 30.0000000  0  6 25  1 14 15 22 29
  21125063.477      210686.135 7    137049.865 9
  24505332.047      358140.816 5    184995.865 3
  21444350.641     -516647.024 7   -335658.571 7
  21335599.633      239725.397 7    156047.588 7
  23469196.781     -631077.014 5   -328578.721 5
  22827547.438     -436437.875 6   -283806.326 6
 94  2 14 17  4  0.0000000  0  6 25  1 14 15 22 29
  21131810.531      246128.574 7    164667.290 9
  24516462.164      416641.473 5    230580.573 5
  21427893.883     -603125.656 7   -403044.538 8
  21343318.680      280315.344 7    187676.044 7
  23449034.484     -737029.241 5   -411138.835 5
  22813562.883     -509928.551 6   -341071.800 5
 94  2 14 17  4 30.0000000  0  6 25  1 14 15 22 29
  21138572.430      281684.042 7    192372.794 9
  24527535.875      474815.185 5    275910.539 3
  21411423.133     -689680.247 7   -470489.684 8
  21351086.586      321100.422 6    219456.560 7
  23428842.070     -843150.562 5   -493830.716 4
  22799540.531     -583601.591 6   -398479.368 6
 94  2 14 17  5  0.0000000  0  6 25  1 14 15 22 29
  21145363.320      317349.947 7    220164.356 9
  24538536.461      532652.680 5    320978.499 3
  21394936.516     -776316.199 7   -537998.241 8
  21358879.633      362077.752 6    251386.885 7
  23408613.328     -949448.709 5   -576660.404 5
  22785489.141     -657454.958 6   -456027.451 6
 94  2 14 17  5 30.0000000  0  6 25  1 14 15 22 29
  21152167.039      353116.692 7    248034.486 9
  24549473.984      590152.956 5    365783.711 3
  21378434.555     -863035.811 7   -605571.982 7
  21366715.867      403248.203 6    283467.687 7
  23388353.648    -1055919.471 5   -659624.601 5
  22771399.203     -731505.695 6   -513729.343 6
 94  2 14 17  6  0.0000000  0  6 25  1 14 15 22 29
  21158986.188      388938.556 7    275947.565 9
  24560355.438      647291.182 5    410306.811 2
  21361913.906     -949858.430 7   -673225.996 8
  21374578.305      444572.643 6    315668.483 7
  23368048.500    -1162620.757 5   -742768.423 5
  22757260.695     -805802.543 6   -571622.999 5
 94  2 14 17  6 30.0000000  0  6 25  1 14 15 22 29
  21165805.820      424791.744 7    303885.053 9
  24571151.391      704037.278 5    454524.329 3
  21345367.789    -1036808.332 7   -740979.186 7
  21382469.742      486021.017 7    347965.852 7
  23347693.281    -1269588.189 5   -826119.640 5
  22743068.133     -880379.424 6   -629734.862 6
 94  2 14 17  7  0.0000000  0  6 25  1 14 15 22 29
  21172634.922      460675.628 7    331846.460 9
  24581873.922      760397.395 5    498441.088 4
  21328800.336    -1123868.465 7   -808818.282 8
  21390379.125      527595.281 6    380361.312 7
  23327289.109    -1376813.112 5   -909671.514 5
  22728821.531     -955252.341 6   -688077.403 6
 94  2 14 17  7 29.9990000  0  6 25  1 14 15 22 29
  21179475.089      496608.610 7    359846.132 9
  24592536.948      816390.290 5    542071.710 3
  21312219.987    -1210998.645 7   -876711.952 8
  21398312.269      569302.969 7    412860.736 7
  23306841.901    -1484269.709 5   -993403.927 5
  22714519.386    -1030407.198 6   -746639.657 6
 94  2 14 17  7 59.9990000  0  6 25  1 14 15 22 29
  21186330.620      532639.503 7    387922.092 9
  24603121.300      872046.122 5    585439.691 4
  21295631.753    -1298174.038 7   -944640.848 8
  21406281.979      611169.192 7    445483.706 7
  23286351.339    -1591937.778 5  -1077301.116 5
  22700171.175    -1105798.628 6   -805386.238 5
 94  2 14 17  8 29.9990000  0  6 25  1 14 15 22 29
  21193200.354      568742.854 7    416054.511 9
  24613642.683      927323.365 5    628512.654 4
  21279025.815    -1385440.532 7  -1012640.743 8
  21414276.034      653157.705 7    478201.957 7
  23265814.011    -1699847.368 5  -1161386.501 5
  22685780.355    -1181435.159 6   -864323.817 6
 94  2 14 17  8 59.9990000  0  6 25  1 14 15 22 29
  21200082.433      604913.338 7    444239.248 8
  24624093.612      982233.864 5    671299.864 3
  21262400.769    -1472800.780 7  -1080713.690 7
  21422290.737      695274.194 7    511019.932 6
  23245241.565    -1807978.191 5  -1245644.265 4
  22671342.753    -1257291.186 6   -923432.425 5
 94  2 14 17  9 29.9990000  0  6 25  1 14 15 22 29
  21206973.433      641129.884 7    472459.872 9
  24634469.558     1036768.346 5    713794.051 4
  21245753.534    -1560287.020 7  -1148884.819 8
  21430324.519      737502.621 7    543925.128 7
  23224618.245    -1916341.443 5  -1330083.158 5
  22656871.878    -1333354.298 6   -982702.403 6
 94  2 14 17  9 59.9990000  0  6 25  1 14 15 22 29
  21213870.104      677366.563 7    500696.188 8
  24644768.269     1090900.621 5    755974.815 3
  21229074.315    -1647936.859 7  -1217183.421 7
  21438379.261      779826.712 7    576904.863 7
  23203953.276    -2024945.857 5  -1414709.952 4
  22642354.386    -1409631.575 6  -1042139.268 5
 94  2 14 17 10 29.9990000  0  6 25  1 14 15 22 29
  21220765.425      713598.404 7    528928.734 9
  24654983.315     1144624.507 5    797837.374 4
  21212363.878    -1735747.702 7  -1285607.485 8
  21446450.151      822244.594 6    609957.690 7
  23183245.300    -2133779.714 5  -1499515.519 5
  22627794.065    -1486141.712 6  -1101757.576 6
 94  2 14 17 10 59.9990000  0  6 25  1 14 15 22 29
  21227658.026      749823.682 7    557156.167 9
  24665135.589     1197948.890 5    839388.604 4
  21195627.519    -1823694.922 7  -1354137.816 8
  21454541.026      864757.567 6    643084.614 7
  23162492.854    -2242821.937 5  -1584483.457 5
  22613192.417    -1562889.012 6  -1161560.684 6
 94  2 14 17 11 29.9990000  0  6 25  1 14 15 22 29
  21234558.073      786079.529 7    585407.416 9
  24675207.081     1250894.309 5    880644.561 4
  21178874.253    -1911741.198 7  -1422745.332 8
  21462654.417      907387.207 6    676302.443 7
  23141705.940    -2352059.923 5  -1669603.931 5
  22598545.815    -1639857.565 6  -1221536.186 6
 94  2 14 17 11 59.9990000  0  6 25  1 14 15 22 29
  21241467.159      822384.320 7    613696.800 9
  24685220.190     1303460.511 5    921604.987 4
  21162105.808    -1999860.023 7  -1491409.380 8
  21470787.776      950144.046 6    709619.378 7
  23120882.495    -2461484.317 5  -1754869.638 5
  22583854.769    -1717054.053 6  -1281689.319 6
 94  2 14 17 12 29.9990000  0  6 25  1 14 15 22 29
  21248392.714      858770.880 7    642049.898 9
  24695152.651     1355672.092 5    962289.111 4
  21145328.948    -2088019.364 7  -1560105.002 8
  21478948.761      993044.596 6    743048.308 7
  23100028.651    -2571079.896 5  -1840268.748 5
  22569123.128    -1794474.508 6  -1342016.973 6
 94  2 14 17 12 59.9990000  0  6 25  1 14 15 22 29
  21255327.706      895224.787 7    670455.473 9
  24705021.847     1407527.212 5   1002695.447 4
  21128541.222    -2176236.975 7  -1628846.022 8
  21487139.144     1036064.149 6    776569.963 7
  23079134.190    -2680876.655 5  -1925824.598 5
  22554345.464    -1872137.442 6  -1402533.565 6
 94  2 14 17 13 29.9990000  0  6 25  1 14 15 22 29
  21262267.175      931692.888 7    698872.107 9
  24714820.206     1458982.789 5   1042790.465 5
  21111732.831    -2264568.875 7  -1697676.102 8
  21495339.612     1079152.306 6    810145.071 7
  23058192.300    -2790923.521 5  -2011575.333 5
  22539507.128    -1950098.620 6  -1463282.566 6
 94  2 14 17 13 59.9990000  0  5 25 14 15 22 29
  21269209.831      968163.751 8    727290.891 7
  21094903.448    -2353017.135 7  -1766596.850 7
  21503546.714     1122302.489 6    843768.504 6
  23037205.581    -2901203.283 5  -2097507.546 4
  22524613.190    -2028360.049 6  -1524265.530 5
 94  2 14 17 14 29.9990000  0  5 25 14 15 22 29
  21276148.644     1004636.271 8    755710.966 9
  21078051.104    -2441568.620 7  -1835598.033 8
  21511773.050     1165519.432 6    877443.961 7
  23016181.667    -3011690.426 6  -2183601.359 5
  22509670.815    -2106903.839 6  -1585468.494 6
 94  2 14 17 14 59.9990000  0  5 25 14 15 22 29
  21283092.714     1041122.808 7    784141.956 9
  21061188.245    -2530186.922 7  -1904651.275 8
  21520015.112     1208828.480 6    911191.189 7
  22995128.347    -3122342.833 6  -2269823.947 5
  22494675.229    -2185694.318 6  -1646863.688 6
 94  2 14 17 15 29.9990000  0  5 25 14 15 22 29
  21290043.737     1077649.032 7    812603.879 9
  21044316.761    -2618847.054 7  -1973737.123 8
  21528276.292     1252258.080 6    945032.338 7
  22974047.011    -3233115.178 6  -2356139.998 5
  22479640.683    -2264696.996 6  -1708424.252 6
 94  2 14 17 15 59.9990000  0  5 25 14 15 22 29
  21297002.761     1114222.490 7    841102.585 9
  21027441.120    -2707529.633 7  -2042840.453 8
  21536568.753     1295820.171 6    978976.724 7
  22952948.565    -3343982.379 6  -2442529.990 5
  22464572.433    -2343895.670 6  -1770137.549 6
 94  2 14 17 16 29.9990000  0  5 25 14 15 22 29
  21303974.300     1150857.227 7    869649.082 9
  21010561.792    -2796225.169 7  -2111953.897 8
  21544887.503     1339531.922 6   1013037.762 7
  22931835.909    -3454932.102 6  -2528984.260 5
  22449464.026    -2423280.420 6  -1831995.782 6
 94  2 14 17 16 59.9990000  0  5 25 14 15 22 29
  21310947.706     1187496.088 7    898198.765 9
  20993669.800    -2884999.897 7  -2181129.029 8
  21553219.933     1383335.685 6   1047170.466 7
  22910694.979    -3566030.885 6  -2615554.692 5
  22434311.862    -2502905.923 6  -1894041.689 6
 94  2 14 17 17 29.9990000  0  5 25 14 15 22 29
  21317917.433     1224127.336 7    926742.519 9
  20976756.651    -2973877.958 7  -2250384.684 8
  21561573.839     1427216.422 6   1081363.167 7
  22889524.558    -3677288.420 6  -2702248.833 5
  22419114.003    -2582767.051 6  -1956271.160 6
 94  2 14 17 17 59.9990000  0  5 25 14 15 22 29
  21324885.901     1260753.631 7    955282.418 9
  20959827.565    -3062845.193 7  -2319709.824 8
  21569938.214     1471168.072 6   1115611.121 7
  22868319.519    -3788709.989 6  -2789070.801 5
  22403873.776    -2662860.792 6  -2018681.896 6
 94  2 14 17 18 29.9990000  0  5 25 14 15 22 29
  21331859.948     1297396.612 7    983835.319 9
  20942883.073    -3151879.625 7  -2389087.335 8
  21578314.636     1515200.278 6   1149921.838 7
  22847082.667    -3900301.656 6  -2876025.328 5
  22388594.214    -2743167.666 6  -2081258.703 6
 94  2 14 17 18 59.9990000  0  5 25 14 15 22 29
  21338841.769     1334077.919 7   1012418.086 9
  20925937.050    -3240941.503 7  -2458486.228 8
  21586708.901     1559327.498 6   1184306.592 7
  22825825.604    -4012036.487 6  -2963091.412 5
  22373272.722    -2823664.097 6  -2143983.225 6
 94  2 14 17 19 29.9990000  0  5 25 14 15 22 29
  21345830.245     1370806.498 7   1041037.694 9
  20908986.612    -3330007.894 7  -2527888.630 8
  21595127.128     1603553.389 6   1218768.235 7
  22804534.792    -4123904.087 6  -3050260.964 5
  22357919.925    -2904358.442 6  -2206861.966 6
 94  2 14 17 19 59.9990000  0  5 25 14 15 22 29
  21352831.417     1407597.290 7   1069705.786 9
  20892043.581    -3419047.429 7  -2597270.116 8
  21603564.104     1647889.573 6   1253315.829 7
  22783221.097    -4235905.223 6  -3137534.575 5
  22342522.151    -2985268.567 6  -2269908.846 6
 94  2 14 17 20 29.9990000  0  5 25 14 15 22 29
  21359844.448     1444450.175 7   1098422.255 9
  20875107.503    -3508050.285 7  -2666623.020 8
  21612024.722     1692346.050 6   1287957.137 7
  22761888.300    -4348015.065 6  -3224892.906 5
  22327082.573    -3066399.007 6  -2333127.402 6
 94  2 14 17 20 59.9990000  0  5 25 14 15 22 29
  21366866.839     1481349.048 7   1127174.559 9
  20858175.745    -3597026.170 7  -2735954.903 8
  21620505.183     1736910.343 6   1322682.464 7
  22740536.112    -4460216.665 6  -3312322.748 5
  22311597.972    -3147772.882 6  -2396535.645 6
 94  2 14 17 21 29.9990000  0  5 25 14 15 22 29
  21373894.026     1518278.825 7   1155950.946 9
  20841245.042    -3685994.707 7  -2805281.053 8
  21629004.198     1781566.664 6   1357479.503 7
  22719165.519    -4572524.203 6  -3399835.139 5
  22296065.995    -3229396.998 6  -2460138.889 6
 94  2 14 17 21 59.9990000  0  5 25 14 15 22 29
  21380938.159     1555295.328 7   1184794.912 9
  20824327.003    -3774904.267 7  -2874561.254 8
  21637528.448     1826371.692 6   1392392.420 6
  22697785.464    -4684867.687 6  -3487375.557 6
  22280499.237    -3311196.106 6  -2523878.483 6
 94  2 14 17 22 29.9990000  0  5 25 14 15 22 29
  21388000.925     1592406.942 7   1213712.994 9
  20807418.706    -3863756.225 7  -2943796.566 8
  21646082.542     1871327.100 6   1427422.524 6
  22676405.878    -4797224.302 6  -3574926.200 5
  22264906.300    -3393144.169 6  -2587734.160 6
 94  2 14 17 22 59.9990000  0  5 25 14 15 22 29
  21395074.050     1629579.679 7   1242678.702 8
  20790513.698    -3952593.591 7  -3013020.498 8
  21654658.089     1916393.787 6   1462539.332 6
  22655017.769    -4909635.124 6  -3662519.101 6
  22249277.823    -3475266.701 6  -2651725.773 6
 94  2 14 17 23 29.9990000  0  5 25 14 15 22 29
  21402154.792     1666792.038 7   1271675.289 8
  20773608.628    -4041426.367 7  -3082240.863 8
  21663253.089     1961559.298 6   1497733.133 6
  22633611.573    -5022108.724 6  -3750160.930 5
  22233619.667    -3557562.229 6  -2715852.196 6
 94  2 14 17 23 59.9990000  0  5 25 14 15 22 29
  21409242.214     1704040.567 7   1300700.048 9
  20756708.979    -4130239.117 7  -3151445.624 8
  21671873.448     2006830.007 6   1533008.907 7
  22612196.808    -5134626.548 6  -3837837.216 5
  22217929.729    -3640028.643 6  -2780111.783 6
 94  2 14 17 24 29.9990000  0  5 25 14 15 22 29
  21416334.573     1741307.959 7   1329739.504 8
  20739812.089    -4219028.168 7  -3220631.908 8
  21680505.698     2052200.737 6   1568362.622 6
  22590782.308    -5247182.895 6  -3925543.541 6
  22202200.276    -3722678.966 6  -2844514.670 6
 94  2 14 17 24 59.9990000  0  5 25 14 15 22 29
  21423430.612     1778589.992 7   1358790.372 8
  20722922.589    -4307784.754 7  -3289792.903 8
  21689156.151     2097678.769 6   1603799.954 6
  22569355.917    -5359766.026 6  -4013270.730 5
  22186436.230    -3805506.390 6  -2909055.563 6
 94  2 14 17 25 29.9990000  0  5 25 14 15 22 29
  21430527.425     1815900.762 7   1387863.631 8
  20706039.581    -4396503.228 7  -3358924.202 8
  21697835.753     2143267.118 6   1639323.244 6
  22547935.933    -5472371.139 6  -4101015.038 5
  22170641.292    -3888501.434 6  -2973727.077 6
 94  2 14 17 25 59.9990000  0  5 25 14 15 22 29
  21437646.511     1853302.806 7   1417008.018 8
  20689174.526    -4485129.372 7  -3427983.552 8
  21706539.714     2189016.599 6   1674972.096 6
  22526511.901    -5584950.766 6  -4188739.487 6
  22154828.628    -3971617.391 6  -3038492.789 6
 94  2 14 17 26 29.9990000  0  5 25 14 15 22 29
  21444781.472     1890795.082 7   1446222.712 7
  20672326.698    -4573671.693 7  -3496977.587 7
  21715272.714     2234906.871 6   1710730.645 6
  22505085.355    -5697527.960 6  -4276462.018 5
  22138981.417    -4054865.475 6  -3103361.462 6
 94  2 14 17 26 59.9990000  0  5 25 14 15 22 29
  21451928.589     1928355.696 7   1475490.660 8
  20655488.331    -4662151.656 7  -3565923.036 9
  21724025.354     2280900.151 6   1746569.461 6
  22483654.604    -5810149.119 6  -4364218.796 6
  22123112.394    -4138274.383 6  -3168355.450 6
 94  2 14 17 27 29.9990000  0  5 25 14 15 22 29
  21459091.581     1965997.121 7   1504821.569 8
  20638669.440    -4750541.639 7  -3634798.371 8
  21732799.144     2327008.062 6   1782497.596 6
  22462216.284    -5922796.959 6  -4451996.364 5
  22107214.511    -4221825.204 6  -3233460.008 6
 94  2 14 17 27 59.9990000  0  5 25 14 15 22 29
  21466276.112     2003747.836 7   1534237.636 8
  20621876.729    -4838791.755 7  -3703564.710 9
  21741601.151     2373267.302 6   1818543.652 6
  22440782.667    -6035428.816 6  -4539761.462 6
  22091297.167    -4305475.018 6  -3298641.698 6
 94  2 14 17 28 29.9990000  0  5 25 14 15 22 29
  21473480.948     2041619.074 7   1563747.611 8
  20605111.183    -4926887.968 7  -3772211.135 9
  21750437.667     2419693.536 6   1854719.829 6
  22419359.300    -6148013.868 6  -4627490.052 5
  22075361.854    -4389208.301 6  -3363888.428 6
 94  2 14 17 28 59.9990000  0  5 25 14 15 22 29
  21480712.651     2079609.337 7   1593350.334 8
  20588376.831    -5014838.619 7  -3840744.133 9
  21759301.550     2466290.615 6   1891029.129 6
  22397947.089    -6260530.958 6  -4715165.694 5
  22059410.229    -4473023.794 6  -3429199.210 6
 94  2 14 17 29 29.9990000  0  5 25 14 15 22 29
  21487955.144     2117682.468 7   1623017.627 8
  20571656.565    -5102695.302 7  -3909203.908 9
  21768199.503     2513021.270 6   1927442.508 6
  22376544.276    -6373006.327 6  -4802808.814 5
  22043443.565    -4556955.715 6  -3494600.735 6
 94  2 14 17 29 59.9990000  0  5 25 14 15 22 29
  21495214.948     2155822.133 7   1652736.761 8
  20554952.550    -5190483.191 7  -3977610.074 9
  21777107.339     2559860.081 6   1963940.169 6
  22355146.151    -6485459.628 6  -4890434.718 6
  22027437.753    -4641042.343 6  -3560122.778 6
 94  2 14 17 30 29.9990000  0  5 25 14 15 22 29
  21502487.511     2194036.010 7   1682513.717 8
  20538264.253    -5278178.337 7  -4045943.974 9
  21786041.370     2606814.632 6   2000528.011 6
  22333754.565    -6597866.811 6  -4978024.676 6
  22011407.550    -4725285.154 6  -3625766.528 6
 94  2 14 17 30 59.9990000  0  5 25 14 15 22 29
  21509782.667     2232378.661 7   1712391.025 8
  20521606.542    -5365712.300 7  -4114152.279 9
  21795014.558     2653938.399 6   2037247.707 6
  22312380.956    -6710180.635 6  -5065541.909 6
  21995360.847    -4809614.460 6  -3691477.683 6
 94  2 14 17 31 29.9990000  0  5 25 14 15 22 29
  21517094.636     2270803.232 7   1742332.149 8
  20504976.230    -5453110.793 7  -4182255.024 9
  21804004.979     2701194.120 6   2074070.221 6
  22291019.112    -6822436.183 6  -5153013.707 6
  21979291.675    -4894061.896 6  -3757280.894 6
 94  2 14 17 31 59.9990000  0  5 25 14 15 22 29
  21524416.745     2309272.145 7   1772307.837 8
  20488368.034    -5540383.013 7  -4250259.380 9
  21813016.120     2748556.142 6   2110975.561 6
  22269669.058    -6934647.108 6  -5240450.747 6
  21963194.581    -4978646.657 6  -3823191.103 6
 94  2 14 17 32 29.9990000  0  5 25 14 15 22 29
  21531738.753     2347753.747 7   1802293.422 8
  20471778.284    -5627551.609 7  -4318182.989 9
  21822045.487     2796002.614 6   2147946.726 6
  22248322.292    -7046830.720 6  -5327866.510 6
  21947075.034    -5063368.757 6  -3889208.340 6
 94  2 14 17 32 59.9990000  0  5 25 14 15 22 29
  21539064.636     2386251.764 7   1832291.792 8
  20455212.042    -5714622.821 7  -4386030.718 9
  21831092.667     2843540.333 6   2184988.968 6
  22226981.034    -7158973.910 6  -5415250.769 6
  21930927.354    -5148206.475 6  -3955315.666 6
 94  2 14 17 33 29.9990000  0  5 25 14 15 22 29
  21546395.972     2424781.281 7   1862314.716 8
  20438663.706    -5801579.352 7  -4453789.085 9
  21840160.261     2891181.006 6   2222111.435 6
  22205650.089    -7271050.866 6  -5502583.430 6
  21914763.862    -5233154.074 6  -4021508.614 6
 94  2 14 17 33 59.9990000  0  5 25 14 15 22 29
  21553739.511     2463372.207 7   1892385.500 8
  20422142.558    -5888388.252 7  -4521432.413 9
  21849248.417     2938945.321 6   2259330.244 6
  22184343.362    -7383038.591 6  -5589846.574 6
  21898582.003    -5318195.501 6  -4087774.659 6
 94  2 14 17 34 29.9990000  0  5 25 14 15 22 29
  21561097.933     2502040.558 7   1922516.617 8
  20405654.722    -5975041.278 7  -4588954.275 8
  21858362.847     2986832.354 6   2296644.687 6
  22163047.378    -7494937.420 6  -5677040.462 6
  21882382.870    -5403336.775 6  -4154118.516 6
 94  2 14 17 34 59.9990000  0  5 25 14 15 22 29
  21568477.581     2540815.390 7   1952730.715 8
  20389201.440    -6061507.459 7  -4656330.546 8
  21867500.276     3034854.242 6   2334064.208 6
  22141778.284    -7606726.588 6  -5764148.910 6
  21866157.472    -5488579.573 6  -4220541.478 6
 94  2 14 17 35 29.9980000  0  5 25 14 15 22 29
  21575878.381     2579713.329 7   1983040.737 8
  20372788.334    -6147757.936 7  -4723538.743 8
  21876665.256     3083019.301 6   2371595.298 6
  22120526.459    -7718391.634 6  -5851160.657 6
  21849918.490    -5573925.581 6  -4287044.865 6
 94  2 14 17 35 59.9980000  0  5 25 14 15 22 29
  21583302.412     2618727.962 7   2013441.682 8
  20356416.662    -6233795.350 7  -4790580.915 9
  21885858.693     3131325.228 6   2409236.136 6
  22099303.490    -7829934.921 6  -5938077.534 6
  21833655.529    -5659380.172 6  -4353632.879 6
 94  2 14 17 36 29.9980000  0  5 25 14 15 22 29
  21590742.740     2657822.742 7   2043905.075 8
  20340078.896    -6319652.241 7
  21895070.576     3179735.419 6   2446958.222 6
  22078090.170    -7941380.161 6  -6024918.022 6
  21817370.061    -5744967.755 6
 94  2 14 17 36 59.9980000  0  5 25 14 15 22 29
  21598194.803     2696982.404 7   2074419.027 7
  20323772.342    -6405336.951 7
  21904302.740     3228245.012 6   2484757.759 6
  22056907.553    -8052720.908 6  -6111677.089 6
  21801058.646    -5830683.738 6
 94  2 14 17 37 29.9980000  0  5 25 14 15 22 29
  21605662.279     2736220.994 7   2104994.477 7
  20307502.904    -6490835.703 7  -4990872.170 8
  21913552.834     3276872.825 6   2522649.419 6
  22035743.467    -8163933.803 6  -6198336.530 6
  21784729.068    -5916492.162 6  -4553980.431 6
 94  2 14 17 37 59.9980000  0  5 25 14 15 22 29
  21613142.561     2775529.820 7   2135624.640 7
  20291268.959    -6576146.481 7  -5057348.119 8
  21922830.639     3325623.499 6   2560636.812 6
  22014605.623    -8275010.229 6  -6284889.634 6
  21768387.717    -6002368.989 6  -4620897.459 6
 94  2 14 17 38 29.9980000  0  5 25 14 15 22 29
  21620652.381     2814995.366 7   2166376.919 7
  20275086.678    -6661187.816 7  -5123614.110 8
  21932148.756     3374585.733 6   2598789.046 6
  21993509.451    -8385866.816 6  -6371271.442 6
  21752049.701    -6088221.074 6  -4687795.208 6
 94  2 14 17 38 59.9980000  0  5 25 14 15 22 29
  21628205.897     2854688.578 7   2197306.596 7
  20258968.412    -6745877.032 7  -5189605.712 8
  21941521.389     3423828.775 6   2637160.103 6
  21972473.436    -8496423.479 6  -6457419.534 6
  21735736.412    -6173963.275 6  -4754607.333 6
 94  2 14 17 39 29.9980000  0  6 25 18 14 15 22 29
  21635806.154     2894630.848 7   2228430.334 7
  24245617.428          -0.05513
  20242926.420    -6830182.374 7  -5255298.193 8
  21950946.568     3473368.933 6   2675762.680 6
  21951498.053    -8606659.959 6  -6543318.129 6
  21719442.826    -6259581.657 6  -4821322.970 6
 94  2 14 17 39 59.9980000  0  6 25 18 14 15 22 29
  21643453.772     2934814.930 7   2259742.503 7
  24223786.725     -114723.102 3        -0.28212
  20226957.896    -6914101.117 7  -5320689.425 8
  21960426.920     3523193.284 6   2714586.711 6
  21930580.029    -8716580.153 6  -6628970.252 6
  21703170.709    -6345094.026 6  -4887956.006 6
 94  2 14 17 40 29.9980000  0  6 25 18 14 15 22 29
  21651148.623     2975243.097 7   2291244.867 7
  24201952.381     -229461.636 3    -89406.908 1
  20211059.256    -6997645.242 7  -5385788.749 8
  21969958.404     3573275.735 6   2753611.847 6
  21909719.350    -8826197.377 6  -6714386.275 6
  21686911.654    -6430533.124 6  -4954531.937 6
 94  2 14 17 40 59.9980000  0  6 25 18 14 15 22 29
  21658887.342     3015920.375 7   2322941.347 7
  24180112.115     -344211.010 3   -178821.968 2
  20195235.318    -7080816.565 7  -5450597.569 8
  21979537.764     3623607.456 6   2792831.225 6
  21888918.975    -8935507.810 6  -6799563.228 6
  21670662.389    -6515918.526 6  -5021066.024 6
 94  2 14 17 41 29.9980000  0  6 25 18 14 15 22 29
  21666677.068     3056851.959 7   2354835.983 7
  24158277.748     -458969.452 3   -268244.055 2
  20179475.068    -7163622.414 7  -5515121.620 8
  21989165.514     3674197.735 6   2832252.078 6
  21868178.779    -9044496.769 6  -6884489.649 6
  21654422.764    -6601257.588 6  -5087563.991 6
 94  2 14 17 41 59.9980000  0  6 25 18 14 15 22 29
  21674514.303     3098034.375 7   2386926.084 6
  24136437.225     -573738.970 3   -357674.783 2
  20163785.061    -7246073.811 7  -5579369.464 7
  21998837.709     3725048.018 6   2871875.531 5
  21847503.295    -9153152.249 6  -6969156.212 6
  21638195.287    -6686540.368 6  -5154018.113 6
 94  2 14 17 42 29.9980000  0  6 25 18 14 15 22 29
  21682395.998     3139457.614 7   2419203.847 7
  24114600.303     -688509.569 3   -447106.344 2
  20148162.412    -7328172.937 7  -5643342.811 8
  22008567.764     3776163.765 6   2911705.845 6
  21826893.482    -9261464.069 6  -7053554.968 6
  21621980.615    -6771753.597 6  -5220418.036 7
 94  2 14 17 42 59.9980000  0  6 25 18 14 15 22 29
  21690319.451     3181093.371 7   2451647.223 6
  24092756.834     -803268.944 3   -536529.161 1
  20132608.568    -7409913.946 7  -5707037.110 7
  22018344.186     3827542.243 6   2951740.877 5
  21806345.975    -9369437.063 6  -7137689.693 6
  21605777.170    -6856892.497 6  -5286760.023 6
 94  2 14 17 43 29.9980000  0  6 25 18 14 15 22 29
  21698283.600     3222940.851 7   2484255.591 7
  24070922.967     -918011.303 3   -625938.741 1
  20117126.279    -7491275.672 7  -5770435.860 8
  22028172.420     3879188.735 6   2991984.748 6
  21785864.529    -9477061.672 6  -7221552.945 6
  21589595.631    -6941931.252 6  -5353023.986 6
 94  2 14 17 43 59.9980000  0  6 25 18 14 15 22 29
  21706286.115     3265001.965 7   2517030.427 7
  24049087.615    -1032738.675 3   -715336.662 2
  20101717.982    -7572234.418 7  -5833520.609 8
  22038049.818     3931092.111 6   3032428.797 5
  21765449.654    -9584351.587 6  -7305155.394 6
  21573432.186    -7026862.817 6  -5419204.417 7
 94  2 14 17 44 29.9980000  0  6 25 18 14 15 22 29
  21714331.662     3307277.921 7   2549972.678 7
  24027262.420    -1147448.881 3   -804721.236 1
  20086394.475    -7652762.249 7  -5896269.578 8
  22047974.412     3983249.132 6   3073070.490 6
  21745093.881    -9691309.335 6  -7388499.002 6
  21557294.436    -7111686.575 6  -5485300.843 7
 94  2 14 17 44 59.9980000  0  6 25 18 14 15 22 29
  21722418.654     3349775.574 7   2583087.690 7
  24005438.553    -1262141.419 3   -894092.042 1
  20071154.522    -7732852.111 7  -5958677.275 8
  22057945.881     4035652.710 6   3113904.303 5
  21724802.897    -9797928.219 6  -7471578.557 6
  21541172.897    -7196404.005 6  -5551314.406 7
 94  2 14 17 45 29.9980000  0  6 25 18 14 15 22 29
  21730546.889     3392486.710 7   2616369.053 7
  23983614.584    -1376831.474 3   -983460.917 2
  20055995.139    -7812521.804 7  -6020757.570 8
  22067964.522     4088292.592 6   3154922.253 6
  21704580.959    -9904201.924 6  -7554389.140 6
  21525067.771    -7281026.763 6  -5617254.208 7
 94  2 14 17 45 59.9980000  0  6 25 18 14 15 22 29
  21738715.982     3435414.251 7   2649819.052 7
  23961794.186    -1491500.956 3  -1072813.760 1
  20040913.896    -7891775.229 7  -6082513.503 8
  22078026.475     4141169.378 6   3196124.795 5
  21684427.053   -10010117.622 6  -7636920.767 6
  21508980.100    -7365561.190 6  -5683125.173 7
 94  2 14 17 46 29.9980000  0  6 25 18 14 15 22 29
  21746919.881     3478533.380 7   2683418.337 7
  23939977.107    -1606149.754 3  -1162150.475 2
  20025906.467    -7970641.002 7  -6143967.363 8
  22088133.678     4194272.600 6   3237503.788 5
  21664338.568   -10115670.856 6  -7719169.963 6
  21492907.678    -7450023.901 6  -5748940.256 7
 94  2 14 17 46 59.9980000  0  6 25 18 14 15 22 29
  21755161.561     3521838.638 7   2717162.660 7
  23918163.248    -1720780.115 3  -1251472.764 1
  20010965.756    -8049150.491 7  -6205143.600 8
  22098276.029     4247589.981 6   3279049.660 5
  21644319.068   -10220874.179 6  -7801146.507 6
  21476849.709    -7534421.336 6  -5814704.472 7
 94  2 14 17 47 29.9980000  0  6 25 18 14 15 22 29
  21763437.600     3565335.234 7   2751056.070 7
  23896357.287    -1835386.263 3  -1340776.222 2
  19996094.217    -8127294.457 7  -6266035.018 8
  22108465.779     4301122.794 6   3320763.401 5
  21624368.467   -10325734.704 6  -7882855.941 6
  21460801.107    -7618750.339 6  -5880415.365 7
 94  2 14 17 47 59.9980000  0  6 25 18 14 15 22 29
  21771753.865     3609035.109 7   2785107.878 7
  23874552.389    -1949973.489 3  -1430064.931 1
  19981298.709    -8205059.597 7  -6326631.245 8
  22118690.170     4354863.560 6   3362639.179 5
  21604473.748   -10430258.146 6  -7964302.720 6
  21444766.873    -7702999.944 6  -5946064.379 7
 94  2 14 17 48 29.9980000  0  6 25 18 14 15 22 29
  21780108.701     3652937.723 7   2819317.656 7
  23852747.045    -2064552.511 3  -1519347.218 2
  19966574.436    -8282431.038 7  -6386920.692 8
  22128958.553     4408813.685 6   3404678.094 6
  21584648.951   -10534446.377 6  -8045488.311 6
  21428753.428    -7787162.599 6  -6011645.644 7
 94  2 14 17 48 59.9980000  0  6 25 18 14 15 22 29
  21788501.818     3697042.199 7   2853684.722 7
  23830935.131    -2179143.839 3  -1608639.138 2
  19951928.975    -8359398.121 7  -6446895.059 8
  22139260.326     4462959.073 6   3446869.159 5
  21564885.529   -10638305.569 6  -8126417.526 6
  21412748.639    -7871249.307 6  -6077167.730 7
 94  2 14 17 49 29.9980000  0  6 25 18 14 15 22 29
  21796927.154     3741324.067 7   2888190.022 7
  23809125.639    -2293775.175 3  -1697962.198 1
  19937356.522    -8435966.280 7  -6506558.566 8
  22149600.053     4517281.784 6   3489198.405 5
  21545185.404   -10741834.632 6  -8207089.493 6
  21396761.076    -7955283.211 6  -6142648.672 7
 94  2 14 17 49 59.9980000  0  6 25 18 14 15 22 29
  21805385.482     3785769.619 7   2922822.861 7
  23787301.975    -2408453.251 3  -1787321.711 2
  19922862.232    -8512142.247 7  -6565916.465 8
  22159970.623     4571782.568 6   3531666.404 5
  21525549.826   -10845014.515 6  -8287489.384 6
  21380778.607    -8039269.804 6  -6208092.766 7
 94  2 14 17 50 29.9980000  0  6 25 18 14 15 22 29
  21813870.678     3830360.593 7   2957569.021 7
  23765473.506    -2523173.483 3  -1876714.054 2
  19908439.881    -8587934.787 7  -6624975.585 8
  22170376.529     4626458.295 6   3574270.730 5
  21505982.740   -10947845.203 6  -8367617.179 6
  21364802.795    -8123220.671 6  -6273509.009 7
 94  2 14 17 50 59.9980000  0  6 25 18 14 15 22 29
  21822383.982     3875092.913 7   2992425.314 7
  23743633.154    -2637933.663 3  -1966137.534 3
  19894084.225    -8663361.828 7  -6683749.908 8
  22180812.365     4681304.256 6   3617007.708 5
  21486480.225   -11050317.829 6  -8447465.957 6
  21348837.709    -8207136.246 6  -6338897.758 7
 94  2 14 17 51 29.9980000  0  6 25 18 14 15 22 29
  21830921.772     3919958.846 7   3027385.711 7
  23721791.396    -2752731.720 3  -2055590.485 2
  19879798.959    -8738432.715 7  -6742246.693 8
  22191278.115     4736316.788 6   3659874.468 5
  21467052.068   -11152430.929 6  -8527034.591 6
  21332875.404    -8291012.044 6  -6404255.517 7
 94  2 14 17 51 59.9980000  0  6 25 18 14 15 22 29
  21839482.607     3964951.894 7   3062445.154 7
  23699937.115    -2867565.017 4  -2145070.914 2
  19865583.201    -8813149.108 7  -6800467.254 8
  22201780.076     4791480.479 6   3702859.024 5
  21447682.951   -11254207.254 6  -8606340.795 6
  21316917.131    -8374860.705 7  -6469592.143 7
 94  2 14 17 52 29.9980000  0  6 25 18 14 15 22 29
  21848073.678     4010092.413 7   3097619.505 7
  23678080.154    -2982419.535 4  -2234567.877 3
  19851434.123    -8887487.795 7  -6858393.496 8
  22212302.873     4846798.162 6   3745963.567 5
  21428378.865   -11355648.401 6  -8685385.832 6
  21300972.646    -8458665.313 7  -6534894.442 7
 94  2 14 17 52 59.9980000  0  6 25 18 14 15 22 29
  21856694.084     4055396.120 7   3132921.015 6
  23656221.045    -3097291.304 4  -2324078.277 1
  19837365.443    -8961427.769 7  -6916009.052 7
  22222862.256     4902276.805 6   3789193.522 5
  21409144.803   -11456736.163 6  -8764155.492 6
  21285033.748    -8542413.229 7  -6600152.564 6
 94  2 14 17 53 29.9980000  0  6 25 18 14 15 22 29
  21865342.982     4100841.702 7   3168333.089 7
  23634355.467    -3212201.247 3  -2413618.417 1
  19823370.850    -9034967.514 7  -6973312.731 8
  22233444.475     4957890.676 6   3832528.865 5
  21389968.811   -11557497.952 6  -8842671.142 6
  21269106.248    -8626123.894 7  -6665381.655 7
 94  2 14 17 53 59.9980000  0  6 25 18 14 15 22 29
  21874014.014     4146408.652 7   3203839.718 7
  23612478.365    -3327160.478 3  -2503196.949 1
  19809451.592    -9108120.814 7  -7030315.298 8
  22244049.014     5013624.421 6   3875957.611 5
  21370854.545   -11657947.142 6  -8920943.221 6
  21253181.451    -8709799.213 7  -6730583.194 7
 94  2 14 17 54 29.9980000  0  6 25 18 14 15 22 29
  21882709.326     4192106.066 7   3239448.010 7
  23590594.701    -3442161.616 4  -2592808.147 1
  19795605.240    -9180872.944 7  -7087005.261 8
  22254683.076     5069492.068 6   3919490.674 5
  21351805.803   -11758051.843 6  -8998946.853 6
  21237271.170    -8793414.993 7  -6795738.340 7
 94  2 14 17 54 59.9980000  0  6 25 18 14 15 22 29
  21891428.686     4237921.957 7   3275148.621 7
  23568702.068    -3557206.014 4  -2682453.045 2
  19781834.967    -9253238.736 7  -7143394.181 8
  22265336.279     5125486.150 6   3963122.268 5
  21332823.842   -11857804.742 6  -9076676.345 6
  21221368.576    -8876982.745 7  -6860856.064 7
 94  2 14 17 55 29.9980000  0  6 25 18 14 15 22 29
  21900167.678     4283847.288 6   3310934.506 6
  23546802.920    -3672295.126 4  -2772132.846 2
  19768137.881    -9325236.029 7  -7199495.960 8
  22276014.084     5181596.722 6   4006844.640 5
  21313903.178   -11957219.735 7  -9154142.533 6
  21205469.639    -8960514.262 7  -6925945.539 7
 94  2 14 17 55 59.9980000  0  6 25 18 14 15 22 29
  21908927.318     4329884.343 6   3346807.452 6
  23524891.225    -3787430.895 3  -2861848.979 2
  19754504.498    -9396872.824 7  -7255316.837 8
  22286715.092     5237819.837 6   4050654.702 5
  21295052.490   -12056283.996 7  -9231335.420 6
  21189580.311    -9044024.080 6  -6991018.103 7
 94  2 14 17 56 29.9980000  0  6 25 18 14 15 22 29
  21917712.201     4376038.855 6   3382771.925 6
  23502973.506    -3902622.990 3  -2951609.039 2
  19740935.764    -9468162.225 7  -7310867.010 7
  22297430.053     5294138.910 6   4094539.547 5
  21276270.451   -12155001.009 7  -9308257.721 6
  21173687.201    -9127543.236 6  -7056097.938 7
 94  2 14 17 56 59.9970000  0  6 25 18 14 15 22 29
  21926520.470     4422331.300 6   3418843.881 6
  23481045.845    -4017846.349 3  -3041393.440 2
  19727439.587    -9539089.091 7  -7366134.695 8
  22308170.790     5350569.279 6   4138511.104 5
  21257556.954   -12253344.778 7  -9384889.169 6
  21157793.228    -9211052.868 7  -7121170.339 7
 94  2 14 17 57 29.9970000  0  6 25 18 14 15 22 29
  21935351.407     4468736.110 6   3455003.401 6
  23459106.478    -4133140.072 3  -3131232.672 1
  19714010.032    -9609667.180 7  -7421130.609 8
  22318924.876     5407090.156 6   4182553.184 5
  21238906.017   -12351340.508 7  -9461249.417 7
  21141901.017    -9294575.071 7  -7186252.531 7
 94  2 14 17 57 59.9970000  0  6 25 18 14 15 22 29
  21944201.985     4515250.651 6   3491248.431 6
  23437154.720    -4248495.239 3  -3221119.782 1
  19700650.181    -9679879.679 7  -7475841.643 8
  22329700.478     5463698.802 6   4226663.663 5
  21220324.345   -12448973.242 7  -9537326.791 7
  21126007.501    -9378093.263 7  -7251331.595 7
 94  2 14 17 58 29.9970000  0  6 25 18 14 15 22 29
  21953071.243     4561857.482 6   3527565.379 6
  23415187.814    -4363919.063 4  -3311060.432 2
  19687359.610    -9749716.189 7  -7530259.705 8
  22340485.978     5520390.946 6   4270839.200 5
  21201814.267   -12546247.457 7  -9613124.814 7
  21110119.978    -9461590.295 7  -7316394.174 7
 94  2 14 17 58 59.9970000  0  6 25 18 14 15 22 29
  21961953.071     4608530.789 6   3563934.134 6
  23393206.767    -4479429.439 4  -3401068.472 1
  19674145.712    -9819158.279 7  -7584370.432 8
  22351290.415     5577157.711 6   4315072.885 5
  21183374.345   -12643168.350 6  -9688647.504 7
  21094232.884    -9545061.755 7  -7381436.821 7
 94  2 14 17 59 29.9970000  0  6 25 18 14 15 22 29
  21970845.017     4655254.835 6   3600342.416 6
  23371210.829    -4595034.034 4  -3491149.965 1
  19661006.493    -9888196.688 7  -7638166.601 8
  22362104.915     5633988.037 6   4359356.094 5
  21164994.649   -12739749.931 7  -9763905.802 7
  21078356.540    -9628513.500 7  -7446464.111 7
 94  2 14 17 59 59.9970000  0  6 25 18 14 15 22 29
  21979743.743     4702019.342 6   3636782.226 6
  23349191.493    -4710730.830 4  -3581303.289 2
  19647945.345    -9956836.005 7  -7691651.780 8
  22372929.696     5690875.260 5   4403683.637 5
  21146683.485   -12835989.732 7  -9838897.778 7
  21062476.806    -9711945.776 7  -7511476.237 7
 94  2 14 18  0 29.9970000  0  6 25 18 14 15 22 29
  21988648.220     4748814.110 6   3673245.610 6
  23327158.173    -4826528.189 4  -3671534.977 2
  19634957.087   -10025084.106 7  -7744832.114 8
  22383764.985     5747812.522 5   4448050.175 5
  21128433.329   -12931888.963 7  -9913624.378 7
  21046603.048    -9795366.866 7  -7576479.648 7
 94  2 14 18  0 59.9970000  0  6 25 18 14 15 22 29
  21997557.353     4795631.819 6   3709726.874 6
  23305101.610    -4942424.819 4  -3761844.043 2
  19622041.298   -10092963.563 7  -7797725.188 8
  22394604.087     5804789.677 5   4492447.778 5
  21110248.134   -13027454.471 7  -9988090.938 7
  21030726.478    -9878797.369 7  -7641490.401 7
 94  2 14 18  1 29.9970000  0  6 25 18 14 15 22 29
  22006471.407     4842471.683 6   3746225.401 6
  23283031.134    -5058413.767 4  -3852225.043 1
  19609190.306   -10160498.078 7  -7850349.480 8
  22405451.876     5861801.024 5   4536872.030 5
  21092123.931   -13122686.847 7 -10062297.917 7
  21014849.556    -9962240.960 7  -7706511.349 7
 94  2 14 18  1 59.9970000  0  6 25 18 14 15 22 29
  22015389.532     4889337.025 6   3782743.777 6
  23260942.517    -5174492.142 4  -3942675.722 2
  19596400.603   -10227697.188 7  -7902712.419 8
  22416311.353     5918844.975 5   4581321.681 5
  21074068.204   -13217575.588 7 -10136237.140 7
  20998966.056   -10045703.067 7  -7771546.746 7
 94  2 14 18  2 29.9970000  0  6 25 18 14 15 22 29
  22024315.657     4936240.783 6   3819292.089 6
  23238835.790    -5290664.378 5  -4033199.543 2
  19583676.657   -10294563.369 7  -7954815.937 8
  22427168.493     5975913.591 5   4625790.561 5
  21056075.220   -13312132.415 7 -10209917.744 7
  20983079.907   -10129199.415 7  -7836608.811 7
 94  2 14 18  2 59.9970000  0  6 25 18 14 15 22 29
  22033247.501     4983191.186 6   3855876.745 6
  23216712.688    -5406929.212 5  -4123795.492 3
  19571016.970   -10361084.861 7  -8006650.866 8
  22438038.712     6033004.917 5   4670277.138 5
  21038145.649   -13406352.095 7 -10283335.646 7
  20967181.407   -10212736.769 7  -7901702.834 7
 94  2 14 18  3 29.9970000  0  6 25 18 14 15 22 29
  22042193.837     5030193.718 6   3892502.009 6
  23194568.142    -5523283.386 5  -4214461.054 2
  19558427.157   -10427260.158 7  -8058216.032 8
  22448902.470     6090114.725 5   4714778.107 5
  21020280.610   -13500232.827 7 -10356489.448 7
  20951277.946   -10296299.829 7  -7966816.886 7
 94  2 14 18  3 59.9970000  0  6 25 18 14 15 22 29
  22051145.712     5077237.545 6   3929159.453 6
  23172409.759    -5639719.752 5  -4305190.627 2
  19545899.751   -10493081.383 7  -8109505.289 8
  22459771.204     6147236.200 5   4759288.164 4
  21002477.329   -13593786.780 7 -10429388.615 7
  20935374.431   -10379890.922 7  -8031952.786 7
 94  2 14 18  4 29.9970000  0  6 25 18 14 15 22 29
  22060107.665     5124328.007 6   3965853.231 6
  23150242.259    -5756224.811 5  -4395973.726 2
  19533447.274   -10558528.721 7  -8160503.202 8
  22470646.454     6204379.561 5   4803815.291 4
  20984737.751   -13687004.465 7 -10502025.764 7
  20919465.595   -10463485.794 7  -8097091.627 7
 94  2 14 18  4 59.9970000  0  6 25 18 14 15 22 29
  22069072.665     5171439.760 6   4002563.602 6
  23128056.189    -5872808.687 5  -4486818.246 3
  19521062.165   -10623615.044 7  -8211219.808 8
  22481526.556     6261532.937 5   4848350.203 3
  20967061.689   -13779884.746 7 -10574400.016 7
  20903557.399   -10547086.385 7  -8162234.931 7
 94  2 14 18  5 29.9970000  0  6 25 18 14 15 22 29
  22078041.665     5218568.903 6   4039287.527 6
  23105861.540    -5989452.157 5  -4577709.204 2
  19508742.376   -10688341.919 7  -8261656.320 8
  22492403.157     6318704.624 5   4892899.383 5
  20949455.173   -13872415.044 7 -10646501.568 7
  20887654.212   -10630670.176 7  -8227365.137 7
 94  2 14 18  5 59.9970000  0  6 25 18 14 15 22 29
  22087011.759     5265709.249 6   4076020.184 6
  23083652.493    -6106155.916 5  -4668647.145 3
  19496499.313   -10752690.956 7  -8311798.415 8
  22503286.915     6375893.994 5   4937462.332 5
  20931919.056   -13964580.772 7 -10718319.029 7
  20871744.571   -10714245.589 7  -8292488.812 7
 94  2 14 18  6 29.9970000  0  6 25 18 14 15 22 29
  22095984.532     5312870.933 6   4112769.459 6
  23061429.673    -6222941.154 4  -4759648.608 3
  19484324.696   -10816661.899 7  -8361645.886 8
  22514171.814     6433091.345 5   4982031.515 5
  20914449.665   -14056372.465 7 -10789845.036 7
  20855846.892   -10797808.797 7  -8357602.980 7
 94  2 14 18  6 59.9970000  0  6 25 18 14 15 22 29
  22104967.532     5360065.424 6   4149544.306 6
  23039191.884    -6339792.994 5  -4850701.968 3
  19472225.618   -10880244.232 7  -8411190.543 8
  22525057.704     6490298.899 5   5026608.648 4
  20897053.728   -14147774.566 7 -10861067.464 7
  20839950.290   -10881349.108 7  -8422699.304 7
 94  2 14 18  7 29.9970000  0  6 25 18 14 15 22 29
  22113954.134     5407289.580 6   4186342.258 6
  23016943.313    -6456711.146 5  -4941806.987 3
  19460202.978   -10943431.856 7  -8460427.637 8
  22535942.814     6547507.374 5   5071186.490 5
  20879733.970   -14238797.168 7 -10931994.175 7
  20824054.759   -10964865.621 7  -8487777.093 7
 94  2 14 18  7 59.9970000  0  6 25 18 14 15 22 29
  22122950.142     5454566.001 6   4223180.949 6
  22994683.704    -6573697.278 5  -5032964.962 3
  19448259.688   -11006196.629 7  -8509335.239 8
  22546829.407     6604718.509 5   5115766.409 4
  20862489.149   -14329428.473 7 -11002615.984 7
  20808167.462   -11048354.877 7  -8552833.645 7
 94  2 14 18  8 29.9970000  0  6 25 18 14 15 22 29
  22131958.149     5501904.824 6   4260068.256 6
  22972407.814    -6690752.817 5  -5124177.044 3
  19436398.439   -11068537.857 7  -8557912.804 8
  22557717.071     6661936.612 5   5160351.752 5
  20845314.228   -14419660.097 7 -11072926.333 7
  20792284.259   -11131821.149 7  -8617872.297 8
 94  2 14 18  8 59.9970000  0  6 25 18 14 15 22 29
  22140976.079     5549291.592 6   4296992.926 6
  22950118.110    -6807872.836 5  -5215439.318 3
  19424613.673   -11130463.483 7  -8606166.528 7
  22568609.571     6719161.302 5   5204942.236 5
  20828219.321   -14509495.065 7 -11142927.590 7
  20776403.064   -11215277.563 7  -8682903.265 8
 94  2 14 18  9 29.9970000  0  6 25 18 14 15 22 29
  22150003.915     5596732.023 6   4333959.435 6
  22927821.915    -6925043.263 5  -5306740.867 2
  19412908.962   -11191962.008 7  -8654087.444 8
  22579501.173     6776405.812 5   5249548.148 4
  20811206.204   -14598911.699 7 -11212602.857 7
  20760525.009   -11298720.264 7  -8747923.559 7
 94  2 14 18  9 59.9970000  0  6 25 18 14 15 22 29
  22159036.415     5644197.818 6   4370945.702 6
  22905510.610    -7042299.994 5  -5398109.647 3
  19401280.196   -11253064.232 7  -8701699.551 7
  22590393.985     6833647.307 5   5294151.711 4
  20794269.571   -14687931.038 7 -11281968.525 7
  20744641.048   -11382181.975 7  -8812958.658 7
 94  2 14 18 10 29.9970000  0  6 25 18 14 15 22 29
  22168068.892     5691671.197 6   4407937.885 6
  22883177.892    -7159643.057 4  -5489545.719 3
  19389722.837   -11313789.073 7  -8749017.608 8
  22601285.681     6890880.341 5   5338748.691 3
  20777403.235   -14776561.675 7 -11351031.295 7
  20728756.814   -11465673.851 7  -8878017.274 8
 94  2 14 18 10 59.9970000  0  6 25 18 14 15 22 29
  22177107.173     5739161.274 6   4444943.083 6
  22860834.985    -7277047.530 4  -5581029.619 3
  19378243.868   -11374116.275 7  -8796025.817 7
  22612176.868     6948110.954 5   5383343.783 4
  20760610.274   -14864791.985 7 -11419782.105 7
  20712869.290   -11549170.675 7  -8943079.737 8
 94  2 14 18 11 29.9970000  0  6 25 18 14 15 22 29
  22186145.235     5786663.112 6   4481957.442 6
  22838484.407    -7394520.991 5  -5672567.263 4
  19366841.931   -11434047.257 7  -8842725.290 8
  22623062.478     7005325.721 5   5427926.507 4
  20743897.345   -14952621.890 7 -11488220.912 7
  20696971.860   -11632685.525 7  -9008156.243 7
 94  2 14 18 11 59.9970000  0  6 25 18 14 15 22 29
  22195191.774     5834197.901 6   4518997.482 6
  22816113.189    -7512071.786 5  -5764165.178 2
  19355513.829   -11493566.605 7  -8889104.010 8
  22633951.087     7062526.139 5   5472498.061 4
  20727257.767   -15040051.913 7 -11556348.110 7
  20681082.306   -11716213.396 7  -9073242.895 7
 94  2 14 18 12 29.9970000  0  6 25 18 14 15 22 29
  22204242.384     5881759.969 6   4556058.770 6
  22793734.493    -7629690.342 5  -5855815.880 2
  19344271.821   -11552662.486 7  -8935152.763 8
  22644829.681     7119708.696 5   5517055.695 5
  20710701.751   -15127069.617 7 -11624154.024 8
  20665184.876   -11799740.202 7  -9138328.711 7
 94  2 14 18 12 59.9970000  0  6 25 18 14 15 22 29
  22213298.274     5929345.778 6   4593138.553 6
  22771335.759    -7747382.005 5  -5947523.565 4
  19333104.032   -11611338.787 7  -8980874.562 7
  22655708.157     7176870.187 5   5561596.916 5
  20694222.056   -15213675.612 7 -11691639.118 8
  20649291.978   -11883254.831 7  -9203405.036 8
 94  2 14 18 13 29.9970000  0  6 25 18 14 15 22 29
  22222353.610     5976931.162 6   4630218.015 6
  22748919.564    -7865176.803 5  -6039311.616 4
  19322012.345   -11669623.145 7  -9026290.958 7
  22666580.095     7233993.376 5   5606108.283 4
  20677815.142   -15299889.272 7 -11758818.495 8
  20633398.829   -11966774.262 7  -9268485.106 8
 94  2 14 18 13 59.9970000  0  6 25 18 14 15 22 29
  22231407.993     6024518.986 6   4667299.361 6
  22726486.782    -7983065.601 5  -6131172.918 5
  19310997.579   -11727501.889 7  -9071391.293 7
  22677445.814     7291084.890 5   5650594.964 5
  20661487.071   -15385704.899 7 -11825687.729 8
  20617510.298   -12050274.436 7  -9333550.168 8
 94  2 14 18 14 29.9970000  0  6 25 18 14 15 22 29
  22240460.985     6072085.049 6   4704363.741 6
  22704041.134    -8101034.080 5  -6223096.310 4
  19300057.704   -11784988.260 7  -9116185.890 7
  22688302.454     7348137.097 5   5695051.026 5
  20645230.454   -15471116.985 7 -11892242.527 8
  20601627.134   -12133753.104 7  -9398598.469 8
 94  2 14 18 14 59.9970000  0  6 25 18 14 15 22 29
  22249512.024     6119650.092 6   4741427.326 6
  22681576.071    -8219068.627 5  -6315071.194 2
  19289193.009   -11842081.016 7  -9160673.761 7
  22699151.274     7405153.682 5   5739479.319 5
  20629054.931   -15556120.213 7 -11958478.744 8
  20585745.376   -12217215.051 7  -9463633.727 8
 94  2 14 18 15 29.9970000  0  6 25 18 14 15 22 29
  22258565.696     6167230.534 6   4778502.889 6
  22659113.345    -8337132.729 5  -6407069.089 3
  19278414.220   -11898740.017 7  -9204823.656 7
  22709995.790     7462150.365 5   5783892.103 4
  20612961.126   -15640691.937 7 -12024378.733 8
  20569865.118   -12300639.609 7  -9528639.861 8
 94  2 14 18 15 59.9970000  0  6 25 18 14 15 22 29
  22267622.712     6214820.174 6   4815585.619 6
  22636639.040    -8455221.248 5  -6499086.038 3
  19267713.915   -11954959.732 7  -9248631.241 7
  22720836.860     7519116.177 5   5828280.837 4
  20596947.509   -15724837.060 7 -12089946.318 8
  20554001.376   -12384030.164 7  -9593619.488 8
 94  2 14 18 16 29.9960000  0  6 25 18 14 15 22 29
  22276677.254     6262398.989 6   4852659.895 5
  22614161.652    -8573343.671 5  -6591129.387 2
  19257097.707   -12010762.514 7  -9292113.944 6
  22731667.434     7576027.478 5   5872627.092 4
  20581014.934   -15808571.883 7
  20538132.754   -12467405.538 7
 94  2 14 18 16 59.9960000  0  6 25 18 14 15 22 29
  22285732.066     6309975.446 6   4889732.343 6
  22591670.660    -8691529.620 5  -6683222.237 4
  19246556.816   -12066147.315 7  -9335270.942 7
  22742486.074     7632882.760 5   5916929.713 4
  20565157.543   -15891914.603 7 -12220136.542 8
  20522267.137   -12550776.441 7  -9723551.594 8
 94  2 14 18 17 29.9960000  0  6 25 18 14 15 22 29
  22294782.676     6357547.573 6   4926801.407 6
  22569167.566    -8809777.146 5  -6775363.087 4
  19236099.277   -12121103.344 7  -9378093.827 7
  22753298.973     7689687.125 5   5961192.625 3
  20549373.988   -15974849.328 7 -12284760.961 8
  20506407.512   -12634117.296 7  -9788492.499 8
 94  2 14 18 17 59.9960000  0  6 25 18 14 15 22 29
  22303836.645     6405122.410 6   4963872.584 6
  22546653.113    -8928112.355 5  -6867572.242 4
  19225717.473   -12175651.662 7  -9420599.013 7
  22764095.770     7746427.646 5   6005405.814 4
  20533673.434   -16057368.861 7 -12349061.852 8
  20490548.590   -12717451.656 7  -9853428.330 8
 94  2 14 18 18 29.9960000  0  6 25 18 14 15 22 29
  22312890.160     6452699.116 6   5000945.227 6
  22524114.785    -9046543.622 5  -6959856.270 4
  19215414.856   -12229795.206 7  -9462788.790 7
  22774878.645     7803101.818 5   6049567.309 4
  20518044.520   -16139476.579 7 -12413041.837 8
  20474695.176   -12800776.390 7  -9918356.664 8
 94  2 14 18 18 59.9960000  0  6 25 18 14 15 22 29
  22321942.465     6500271.638 6   5038014.621 6
  22501557.871    -9165079.837 5  -7052222.046 4
  19205190.980   -12283534.372 7  -9504663.468 7
  22785650.832     7859703.279 5   6093672.133 3
  20502500.129   -16221166.122 7 -12476695.969 8
  20458837.035   -12884090.711 7  -9983276.885 8
 94  2 14 18 19 29.9960000  0  6 25 18 14 15 22 29
  22330994.145     6547839.648 6   5075080.511 6
  22478985.793    -9283698.351 5  -7144651.982 5
  19195043.215   -12336860.205 7  -9546216.072 7
  22796405.996     7916233.143 5   6137721.173 4
  20487036.285   -16302430.941 7 -12540019.142 8
  20442987.512   -12967389.354 7 -10048184.892 8
 94  2 14 18 19 59.9960000  0  6 25 18 14 15 22 29
  22340043.449     6595390.929 6   5112133.357 6
  22456394.856    -9402396.642 5  -7237144.074 5
  19184976.496   -12389767.206 7  -9587442.308 7
  22807148.324     7972683.694 5   6181708.411 4
  20471648.910   -16383283.187 7 -12603020.825 8
  20427136.777   -13050686.551 7 -10113091.769 8
 94  2 14 18 20 29.9960000  0  6 25 18 14 15 22 29
  22349086.855     6642909.842 6   5149161.000 6
  22433796.527    -9521160.148 5  -7329686.993 4
  19174989.176   -12442244.896 7  -9628334.022 7
  22817879.957     8029061.185 5   6225638.720 5
  20456343.715   -16463722.149 7 -12665700.452 8
  20411292.449   -13133954.453 7 -10177975.819 8
 94  2 14 18 20 59.9960000  0  6 25 18 14 15 22 29
  22358125.738     6690414.137 6   5186177.255 6
  22411189.027    -9639964.745 5  -7422261.925 4
  19165086.207   -12494274.637 7  -9668876.677 7
  22828593.754     8085378.885 5   6269522.441 5
  20441122.231   -16543714.889 7 -12728032.372 8
  20395453.395   -13217194.504 7 -10242838.166 8
 94  2 14 18 21 29.9960000  0  6 25 18 14 15 22 29
  22367166.535     6737919.999 6   5223194.726 6
  22388576.160    -9758794.708 5  -7514856.624 3
  19155275.340   -12545829.967 7  -9709049.657 7
  22839302.520     8141652.991 5   6313372.170 5
  20425992.191   -16623237.351 7 -12789997.850 8
  20379615.699   -13300397.521 7 -10307671.661 8
 94  2 14 18 21 59.9960000  0  6 25 18 14 15 22 29
  22376201.043     6785405.533 6   5260196.364 6
  22365955.785    -9877674.965 5  -7607490.516 4
  19145553.340   -12596927.144 7  -9748865.641 7
  22849999.645     8197874.059 5   6357180.593 3
  20410945.613   -16702281.576 7 -12851590.667 8
  20363792.199   -13383573.459 7 -10372484.051 8
 94  2 14 18 22 29.9960000  0  6 25 18 14 15 22 29
  22385236.652     6832869.764 6   5297181.391 6
  22343320.895    -9996612.915 5  -7700169.374 3
  19135918.020   -12647567.053 7  -9788325.310 7
  22860690.668     8254034.405 5   6400941.706 3
  20395994.598   -16780846.585 7 -12912810.068 8
  20347967.988   -13466723.567 7 -10437276.321 8
 94  2 14 18 22 59.9960000  0  6 25 18 14 15 22 29
  22394263.121     6880318.390 6   5334154.278 6
  22320676.059   -10115605.173 5  -7792890.547 4
  19126369.754   -12697750.145 7  -9827429.017 7
  22871362.754     8310129.894 5   6444652.276 4
  20381136.887   -16858931.475 7 -12973655.351 8
  20332143.363   -13549865.818 7 -10502062.471 8
 94  2 14 18 23 29.9960000  0  6 25 18 14 15 22 29
  22403287.387     6927745.870 6   5371110.679 6
  22298025.090   -10234648.505 5  -7885651.522 4
  19116908.559   -12747463.974 7  -9866167.057 7
  22882025.606     8366160.406 5   6488312.238 3
  20366367.629   -16936536.616 7 -13034126.799 8
  20316331.574   -13632975.474 7 -10566823.217 8
 94  2 14 18 23 59.9960000  0  6 25 18 14 15 22 29
  22412309.457     6975156.804 6   5408054.177 5
  22275364.457   -10353728.727 5  -7978441.244 3
  19107536.496   -12796713.079 7  -9904542.983 7
  22892675.676     8422119.221 4   6531916.300 2
  20351692.004   -17013662.717 7 -13094224.968 8
  20300523.551   -13716047.314 7 -10631554.499 8
 94  2 14 18 24 29.9960000  0  6 25 18 14 15 22 29
  22421334.754     7022579.781 5   5445007.061 5
  22252700.316   -10472825.767 5  -8071244.067 5
  19098255.488   -12845480.354 7  -9942543.451 7
  22903300.957     8478007.370 4   6575465.333 2
  20337108.285   -17090307.877 7 -13153948.382 8
  20284726.191   -13799067.842 7 -10696245.789 8
 94  2 14 18 24 59.9960000  0  6 25 18 14 15 22 29
  22430359.777     7070010.302 6   5481965.811 5
  22230033.371   -10591944.317 5  -8164063.658 5
  19089061.691   -12893780.215 7  -9980179.706 7
  22913929.621     8533816.641 5   6618952.894 2
  20322618.543   -17166471.413 7 -13213296.509 8
  20268936.277   -13882034.976 7 -10760895.481 8
 94  2 14 18 25 29.9960000  0  6 25 18 14 15 22 29
  22439386.168     7117439.642 6   5518923.659 5
  22207360.449   -10711094.246 5  -8256907.686 5
  19079958.699   -12941614.046 7 -10017452.819 7
  22924531.652     8589541.378 5   6662374.578 2
  20308213.152   -17242152.999 7 -13272269.088 8
  20253162.512   -13964941.759 7 -10825498.141 8
 94  2 14 18 25 59.9960000  0  6 25 18 14 15 22 29
  22448409.934     7164867.619 5   5555880.430 5
  22184678.637   -10830281.786 5  -8349781.026 5
  19070942.738   -12988997.305 7 -10054374.835 7
  22935119.777     8645174.908 5   6705725.181 4
  20293902.480   -17317354.934 7 -13330867.920 8
  20237395.809   -14047798.719 7 -10890061.980 8
 94  2 14 18 26 29.9960000  0  6 25 18 14 15 22 29
  22457437.059     7212302.920 6   5592842.910 5
  22161991.731   -10949507.096 5  -8442683.794 5
  19062013.863   -13035920.002 7 -10090937.966 7
  22945694.316     8700729.486 5   6749014.291 2
  20279686.238   -17392073.500 7 -13389090.100 8
  20221637.660   -14130587.857 7 -10954572.962 8
 94  2 14 18 26 59.9960000  0  6 25 18 14 15 22 29
  22466461.691     7259719.507 6   5629790.784 5
  22139292.652   -11068778.935 5  -8535622.831 4
  19053170.934   -13082396.413 7 -10127153.350 7
  22956250.934     8756199.302 5   6792237.325 3
  20265556.434   -17466315.638 7 -13446941.030 8
  20205896.090   -14213321.663 7 -11019040.829 8
 94  2 14 18 27 29.9960000  0  6 25 18 14 15 22 29
  22475483.832     7307130.276 6   5666734.132 5
  22116587.152   -11188090.913 5  -8628593.139 4
  19044415.895   -13128407.763 7 -10163006.340 6
  22966791.012     8811595.626 5   6835403.092 2
  20251524.379   -17540065.932 7 -13504408.735 7
  20190161.332   -14295991.763 7 -11083459.053 7
 94  2 14 18 27 59.9960000  0  6 25 18 14 15 22 29
  22484507.480     7354547.604 5   5703682.597 5
  22093879.340   -11307435.872 5  -8721589.140 2
  19035747.129   -13173956.792 7 -10198499.098 6
  22977317.606     8866917.442 5   6878510.807 1
  20237580.004   -17613333.033 7 -13561499.926 7
  20174443.816   -14378594.525 7 -11147824.797 7
 94  2 14 18 28 29.9960000  0  6 25 18 14 15 22 29
  22493526.879     7401958.824 5   5740626.287 3
  22071158.746   -11426822.055 5  -8814617.272 3
  19027166.262   -13219045.829 7 -10233633.405 6
  22987827.231     8922155.871 4   6921553.553 2
  20223725.895   -17686128.108 7 -13618223.317 7
  20158739.129   -14461139.802 7 -11212145.768 6
 94  2 14 18 28 59.9960000  0  7 25 18 14 15 22 29 19
  22502546.301     7449346.324 5   5777551.502 4
  22048434.356   -11546251.928 5  -8907679.410 2
  19018674.957   -13263675.222 7 -10268409.560 6
  22998325.168     8977303.370 4   6964525.421 1
  20209966.910   -17758442.275 6 -13674571.989 6
  20143034.809   -14543634.263 6 -11276427.129 6
  23551483.520          -0.44613
 94  2 14 18 29 29.9960000  0  7 25 18 14 15 22 29 19
  22511561.449     7496724.348 5   5814469.327 4
  22025702.145   -11665711.018 5  -9000764.348 2
  19010272.770   -13307828.387 7 -10302814.632 6
  23008797.957     9032362.848 4   7007428.745 1
  20196300.879   -17830264.177 7 -13730537.086 6
  20127350.973   -14626061.755 6 -11340656.324 6
  23525040.324     -138939.952 3
 94  2 14 18 29 59.9960000  0  7 25 18 14 15 22 29 19
  22520576.473     7544093.241 5   5851380.046 4
  22002964.957   -11785180.005 5  -9093856.988 2
  19001963.387   -13351492.751 7 -10336838.820 6
  23019260.871     9087338.208 4   7050266.473 1
  20182727.207   -17901589.216 7 -13786115.031 7
  20111680.309   -14708411.895 7 -11404825.245 7
  23498619.715     -277777.255 3
 94  2 14 18 30 29.9960000  0  7 25 18 14 15 22 29 19
  22529587.637     7591435.324 5   5888269.881 5
  21980229.543   -11904660.326 5  -9186958.465 2
  18993749.293   -13394652.748 7 -10370469.997 6
  23029706.770     9142224.632 4   7093034.944 1
  20169251.606   -17972400.254 7 -13841292.466 7
  20096027.637   -14790684.023 7 -11468933.376 7
  23472215.895     -416516.431 3        -0.17811
 94  2 14 18 30 59.9960000  0  7 25 18 14 15 22 29 19
  22538589.863     7638750.480 5   5925138.751 5
  21957494.887   -12024144.092 5  -9280062.636 3
  18985634.715   -13437302.591 7 -10403703.648 6
  23040132.043     9197016.265 4   7135729.503 2
  20155876.660   -18042687.234 7 -13896061.541 7
  20080385.598   -14872877.260 7 -11532980.030 7
  23445838.535     -555161.470 3   -108035.257 2
 94  2 14 18 31 29.9960000  0  7 25 18 14 15 22 29 19
  22547590.098     7686056.963 5   5962000.855 3
  21934760.777   -12143618.941 5  -9373159.874 2
  18977617.316   -13479436.566 7 -10436535.334 6
  23050544.371     9251715.000 4   7178351.672 1
  20142599.902   -18112454.806 7 -13950425.894 7
  20064759.871   -14954992.102 7 -11596965.611 7
  23419472.441     -693711.638 3   -215996.405 1
 94  2 14 18 31 59.9960000  0  7 25 18 14 15 22 29 19
  22556592.324     7733347.560 5   5998850.564 4
  21912022.301   -12263086.806 5  -9466251.670 2
  18969696.941   -13521054.899 7 -10468965.221 6
  23060938.770     9306321.136 4   7220901.735 1
  20129421.238   -18181702.179 7 -14004384.893 7
  20049149.184   -15037029.575 7 -11660890.899 7
  23393121.004     -832161.982 3   -323879.626 1
 94  2 14 18 32 29.9960000  0  7 25 18 14 15 22 29 19
  22565586.957     7780622.460 5   6035688.061 4
  21889292.035   -12382549.725 5  -9559339.631 3
  18961873.512   -13562171.276 7 -10501003.966 6
  23071311.363     9360830.012 4   7263375.977 1
  20116344.332   -18250428.161 7 -14057937.622 6
  20033549.981   -15118999.052 7 -11724763.209 7
  23366792.105     -970510.466 3   -431683.394 1
 94  2 14 18 32 59.9960000  0  7 25 18 14 15 22 29 19
  22574580.856     7827876.614 5   6072509.358 4
  21866553.129   -12502030.782 5  -9652441.722 3
  18954139.676   -13602815.734 7 -10532674.992 6
  23081663.809     9415220.853 4   7305758.260 1
  20103359.027   -18318661.724 7 -14111106.639 6
  20017957.840   -15200933.797 7 -11788608.465 7
  23340482.355    -1108787.846 3   -539431.710 1
 94  2 14 18 33 29.9960000  0  7 25 18 14 15 22 29 19
  22583568.973     7875112.588 5   6109316.505 4
  21843813.605   -12621537.868 5  -9745564.121 4
  18946495.090   -13642988.031 7 -10563978.094 6
  23091981.082     9469494.063 3   7348048.849 1
  20090468.277   -18386398.723 7 -14163888.749 7
  20002375.715   -15282827.366 7 -11852421.623 6
  23314183.691    -1246988.496 3   -647120.249 2
 94  2 14 18 33 59.9950000  0  7 25 18 14 15 22 29 19
  22592558.851     7922356.746 5   6146130.026 4
  21821073.093   -12741038.186 5  -9838681.235 1
  18938949.171   -13682646.672 7 -10594880.952 6
  23102296.304     9523678.608 3
  20077684.804   -18453586.439 7 -14216242.821 6
  19986804.218   -15364639.073 7 -11916171.002 7
  23287908.405    -1385074.447 3   -754719.341 1
 94  2 14 18 34 29.9950000  0  7 25 18 14 15 22 29 19
  22601550.327     7969608.705 5   6182949.621 3
  21798333.358   -12860545.805 5  -9931804.032 3
  18931499.241   -13721788.712 7 -10625381.255 6
  23112587.944     9577767.945 3        -0.26211
  20065000.577   -18520230.004 6 -14268172.883 7
  19971250.405   -15446388.029 7 -11979871.470 7
  23261648.249    -1523081.687 3   -862257.045 1
 94  2 14 18 34 59.9950000  0  7 25 18 14 15 22 29 19
  22610543.241     8016855.984 5   6219765.555 2
  21775587.273   -12980063.581 5 -10024934.743 3
  18924149.718   -13760403.995 7 -10655471.105 6
  23122862.093     9631752.677 3     42065.581 1
  20052424.710   -18586331.524 6 -14319680.576 7
  19955706.718   -15528066.478 7 -12043517.006 7
  23235399.327    -1661003.795 3   -969728.472 1
 94  2 14 18 35 29.9950000  0  7 25 18 14 15 22 29 19
  22619531.796     8064089.189 5   6256570.533 3
  21752846.577   -13099573.877 5 -10118059.599 3
  18916903.202   -13798488.422 7 -10685147.297 6
  23133117.444     9685636.805 3     84053.022 1
  20039951.741   -18651887.182 7 -14370762.920 7
  19940178.898   -15609659.126 7 -12107095.682 6
  23209177.452    -1798808.116 3  -1077108.133 1
 94  2 14 18 35 59.9950000  0  7 25 18 14 15 22 29 19
  22628513.921     8111306.193 5   6293362.840 3
  21730106.163   -13219064.168 5 -10211168.912 2
  18909755.562   -13836045.597 7 -10714412.644 6
  23143350.671     9739420.218 3    125961.972 1
  20027577.468   -18716911.885 7 -14421431.533 6
  19924667.655   -15691172.265 7 -12170612.405 7
  23182976.569    -1936499.983 3  -1184400.159 1
 94  2 14 18 36 29.9950000  0  7 25 18 14 15 22 29 19
  22637494.030     8158493.904 5   6330132.330 2
  21707370.929   -13338547.182 5 -10304272.517 1
  18902706.116   -13873098.174 7 -10743284.797 6
  23153562.804     9793090.300 3    167782.614 2
  20015299.273   -18781427.000 7 -14471703.063 6
  19909170.710   -15772605.762 6 -12234067.065 7
  23156792.655    -2074088.737 3  -1291611.895 1
 94  2 14 18 36 59.9950000  0  7 25 18 14 15 22 29 19
  22646470.601     8205657.959 5   6366883.386 2
  21684636.366   -13458020.252 5 -10397368.371 2
  18895750.460   -13909653.003 7 -10771769.096 6
  23163759.210     9846650.606 3    209517.741 1
  20003119.358   -18845430.498 7 -14521575.933 6
  19893694.476   -15853939.587 6 -12297444.057 6
  23130632.335    -2211550.539 3  -1398724.748 1
 94  2 14 18 37 29.9950000  0  7 25 18 14 15 22 29 19
  22655438.319     8252778.226 5   6403600.322 2
  21661897.140   -13577508.492 5 -10490476.027 2
  18888883.069   -13945736.603 7 -10799886.196 6
  23173924.523     9900077.628 3    251148.996 1
  19991034.249   -18908935.915 7 -14571060.677 6
  19878232.718   -15935198.616 6 -12360762.762 6
  23104488.937    -2348920.088 3  -1505765.726 1
 94  2 14 18 37 59.9950000  0  7 25 18 14 15 22 29 19
  22664399.069     8299868.713 5   6440294.053 3
  21639156.398   -13697017.096 5 -10583599.569 2
  18882108.030   -13981334.642 7 -10827624.942 6
  23184071.515     9953376.461 3    292680.324 1
  19979051.007   -18971910.458 7 -14620131.751 6
  19862789.757   -16016355.724 7 -12424002.050 6
  23078368.796    -2486208.932 3  -1612743.851 1
 94  2 14 18 38 29.9950000  0  7 25 18 14 15 22 29 19
  22673356.749     8346936.187 5   6476969.862 3
  21616409.601   -13816537.455 5 -10676732.247 2
  18875431.366   -14016424.334 7 -10854967.563 6
  23194187.132    10006560.103 2    334121.966 1
  19967174.851   -19034314.814 7 -14668758.518 6
  19847370.780   -16097378.769 6 -12487136.869 6
  23052263.194    -2623380.606 3  -1719630.697 1
 94  2 14 18 38 59.9950000  0  7 25 18 14 15 22 29 19
  22682306.358     8393980.097 5   6513627.286 2
  21593667.905   -13936065.107 5 -10769870.620 2
  18868852.726   -14051000.544 7 -10881910.072 6
  23204286.655    10059625.431 2
  19955410.116   -19096138.811 6 -14716933.049 6
  19831972.819   -16178284.501 6 -12550180.273 6
  23026188.788    -2760427.328 3  -1826420.221 1
 94  2 14 18 39 29.9950000  0  7 25 18 14 15 22 29 19
  22691257.343     8441013.736 5   6550276.698 2
  21570923.413   -14055582.029 5 -10863000.634 3
  18862369.398   -14085064.093 7 -10908453.123 6
  23214353.819    10112579.403 2
  19943759.351   -19157366.282 7 -14764642.761 6
  19816602.616   -16259069.639 7 -12613129.739 6
  23000134.976    -2897339.180 3  -1933104.642 1
 94  2 14 18 39 59.9950000  0  7 25 18 14 15 22 29 19
  22700204.163     8488019.115 5   6586904.125 2
  21548182.788   -14175087.491 5 -10956121.717 3
  18855984.663   -14118622.071 7 -10934602.209 6
  23224414.062    10165404.181 2        -0.05111
  19932216.835   -19218024.116 7 -14811908.579 7
  19801248.765   -16339747.007 7 -12675995.206 7
  22974105.773    -3034116.007 4  -2039683.938 1
 94  2 14 18 40 29.9950000  0  7 25 18 14 15 22 29 19
  22709146.085     8535008.747 5   6623519.294 4
  21525448.546   -14294557.620 5 -11049215.274 3
  18849696.421   -14151665.277 7 -10960350.162 6
  23234442.265    10218103.061 3     41063.807 1
  19920780.140   -19278123.355 7 -14858739.116 7
  19785911.273   -16420333.787 7 -12738790.084 7
  22948105.999    -3170736.005 3  -2146141.000 1
 94  2 14 18 40 59.9950000  0  7 25 18 14 15 22 29 19
  22718082.866     8581991.403 5   6660129.050 4
  21502720.866   -14413990.928 5 -11142280.137 4
  18843504.038   -14184200.868 7 -10985702.578 7
  23244445.429    10270665.706 3     82021.564 2
  19909447.148   -19337682.143 7 -14905148.511 7
  19770594.804   -16500847.782 7 -12801528.241 7
  22922129.116    -3307227.552 3  -2252497.965 2
 94  2 14 18 41 29.9950000  0  7 25 18 14 15 22 29 19
  22727023.515     8628970.273 5   6696735.855 3
  21480002.601   -14533383.211 5 -11235313.026 4
  18837414.710   -14216211.365 7 -11010645.825 7
  23254417.562    10323093.482 3    122874.230 1
  19898212.265   -19396702.213 7 -14951138.110 7
  19755291.804   -16581258.274 7 -12864185.742 7
  22896183.812    -3443586.338 4  -2358751.510 2
 94  2 14 18 41 59.9950000  0  7 25 18 14 15 22 29 19
  22735959.429     8675930.624 5   6733328.256 4
  21457285.093   -14652761.658 5 -11328335.144 5
  18831422.843   -14247684.822 7 -11035170.597 6
  23264374.077    10375372.470 3    163610.942 1
  19887084.819   -19455198.253 7 -14996719.365 7
  19740007.030   -16661580.004 7 -12926774.082 7
  22870253.132    -3579821.078 3  -2464908.385 3
 94  2 14 18 42 29.9950000  0  7 25 18 14 15 22 29 19
  22744896.897     8722886.117 5   6769916.871 4
  21434567.655   -14772144.072 5 -11421360.350 5
  18825538.577   -14278626.050 7 -11059280.648 7
  23274292.890    10427502.201 3    204231.342 1
  19876055.304   -19513157.618 7 -15041882.424 7
  19724739.046   -16741804.705 7 -12989286.814 8
  22844357.085    -3715930.292 4  -2570967.459 1
 94  2 14 18 42 59.9950000  0  7 25 18 14 15 22 29 19
  22753829.444     8769825.157 5   6806492.677 4
  21411846.358   -14891541.990 5 -11514397.641 5
  18819747.608   -14309038.925 7 -11082978.995 7
  23284184.015    10479481.441 3    244734.502 1
  19865129.991   -19570576.361 7 -15086624.224 7
  19709493.991   -16821924.727 7 -13051717.982 8
  22818478.202    -3851914.942 3  -2676929.426 3
 94  2 14 18 43 29.9950000  0  7 25 18 14 15 22 29 19
  22762755.937     8816750.808 5   6843058.046 3
  21389124.937   -15010945.113 6 -11607438.989 5
  18814066.257   -14338912.708 7 -11106257.272 7
  23294045.546    10531323.003 3    285130.411 1
  19854305.288   -19627439.691 7 -15130933.232 7
  19694268.304   -16901928.931 7 -13114058.908 8
  22792631.882    -3987749.531 4  -2782774.499 1
 94  2 14 18 43 59.9950000  0  7 25 18 14 15 22 29 19
  22771679.226     8863645.318 5   6879599.167 5
  21366400.437   -15130352.364 5 -11700483.535 5
  18808477.429   -14368269.113 7 -11129132.394 7
  23303890.405    10583017.855 3    325411.978 1
  19843590.827   -19683760.633 7 -15174819.598 7
  19679061.273   -16981845.102 7 -13176331.240 7
  22766804.421    -4123446.391 4  -2888512.231 1
 94  2 14 18 44 29.9950000  0  7 25 18 14 15 22 29 19
  22780594.999     8910481.439 5   6916094.793 3
  21343679.272   -15249752.953 5 -11793522.909 5
  18802986.124   -14397139.879 7 -11151629.101 7
  23313690.452    10634551.010 3    365567.534 1
  19832972.788   -19739544.160 7 -15218287.215 7
  19663869.499   -17061672.398 7 -13238534.318 7
  22741013.023    -4259024.596 4  -2994157.447 2
 94  2 14 18 44 59.9950000  0  7 25 18 14 15 22 29 19
  22789491.968     8957250.657 5   6952538.285 4
  21320966.015   -15369120.390 5 -11886536.459 5
  18797582.140   -14425517.838 7 -11173741.801 7
  23323477.601    10685928.909 3    405602.123 1
  19822461.101   -19794791.611 7 -15261337.114 7
  19648699.601   -17141406.354 7 -13300664.663 8
  22715227.054    -4394488.194 4  -3099713.399 2
 94  2 14 18 45 29.9950000  0  7 25 18 14 15 22 29 19
  22798382.265     9003949.697 5   6988927.081 4
  21298254.366   -15488456.543 5 -11979525.622 5
  18792280.780   -14453393.255 7 -11195462.907 7
  23333219.476    10737146.988 3    445512.183 1
  19812048.515   -19849503.721 7 -15303969.869 7
  19633544.460   -17221035.900 7 -13362713.655 8
  22689477.296    -4529849.352 4  -3205189.488 1
 94  2 14 18 45 59.9950000  0  7 25 18 14 15 22 29 19
  22807256.827     9050581.434 5   7025263.466 2
  21275550.921   -15607767.973 5 -12072495.497 5
  18787072.741   -14480751.161 7 -11216780.724 6
  23342928.241    10788205.905 3    485298.267 1
  19801741.366   -19903678.415 7 -15346183.828 7
  19618416.452   -17300539.528 7 -13424664.486 7
  22663732.273    -4665107.640 4  -3310585.401 1
 94  2 14 18 46 29.9950000  0  7 25 18 14 15 22 29 19
  22816117.101     9097151.612 5   7061551.831 3
  21252848.483   -15727072.817 5 -12165460.276 5
  18781965.265   -14507595.544 7 -11237698.438 7
  23352611.030    10839092.620 3    524950.112 1
  19791535.132   -19957312.201 7 -15387976.357 7
  19603308.530   -17379922.981 7 -13486521.728 8
  22638014.444    -4800267.551 5  -3415904.673 2
 94  2 14 18 46 59.9950000  0  7 25 18 14 15 22 29 19
  22824968.679     9143672.278 5   7097801.625 4
  21230145.976   -15846375.785 5 -12258423.597 5
  18776959.679   -14533902.145 7 -11258197.095 7
  23362262.562    10889811.928 3    564471.543 1
  19781431.913   -20010401.671 7 -15429344.756 8
  19588226.601   -17459183.686 7 -13548283.307 8
  22612318.101    -4935310.582 5  -3521132.897 2
 94  2 14 18 47 29.9950000  0  7 25 18 14 15 22 29 19
  22833811.507     9190141.023 5   7134010.949 3
  21207440.382   -15965695.349 6 -12351399.849 4
  18772055.304   -14559669.826 7 -11278275.819 7
  23371879.062    10940360.266 3    603859.707 2
  19771436.702   -20062935.736 7 -15470280.372 7
  19573167.929   -17538320.664 7 -13609948.472 8
  22586645.679    -5070211.698 5  -3626250.519 2
 94  2 14 18 47 59.9950000  0  6 25 18 14 22 29 19
  22842646.468     9236562.321 5   7170183.303 3
  21184736.851   -16085005.409 6 -12444368.690 5
  18767254.054   -14584907.611 7 -11297941.633 7
  19761546.999   -20114892.698 7 -15510766.298 7
  19558129.538   -17617338.185 7 -13671520.555 8
  22561007.147    -5204940.014 5  -3731233.494 2
 94  2 14 18 48 29.9950000  0  6 25 18 14 22 29 19
  22851464.733     9282915.555 5   7206302.601 3
  21162035.710   -16204300.644 6 -12537325.982 5
  18762548.585   -14609635.573 7 -11317210.185 7
  19751769.843   -20166275.055 7 -15550804.483 8
  19543113.991   -17696256.849 7 -13733015.613 8
  22535405.288    -5339498.249 5  -3836083.952 2
 94  2 14 18 48 59.9950000  0  6 25 18 14 22 29 19
  22860273.444     9329197.130 5   7242366.056 2
  21139337.554   -16323575.864 6 -12630267.686 5
  18757939.663   -14633845.687 7 -11336075.224 7
  19742102.733   -20217086.544 7 -15590397.845 7
  19528115.460   -17775062.247 7 -13794422.405 8
  22509829.890    -5473882.190 5  -3940798.626 3
 94  2 14 18 49 29.9950000  0  6 25 18 14 22 29 19
  22869066.530     9375405.512 5   7278372.472 3
  21116642.726   -16442832.040 6 -12723194.558 5
  18753428.624   -14657551.611 7 -11354547.382 7
  19732538.116   -20267336.022 7 -15629553.286 8
  19513142.171   -17853765.110 7 -13855749.302 8
  22484290.507    -5608112.864 5  -4045393.869 4
 94  2 14 18 49 59.9950000  0  6 25 18 14 22 29 19
  22877850.616     9421547.939 5   7314327.456 2
  21093957.554   -16562053.619 6 -12816094.455 5
  18749014.796   -14680757.329 7 -11372629.765 7
  19723080.608   -20317035.420 7 -15668280.096 8
  19498181.319   -17932372.559 7 -13917001.851 8
  22458765.874    -5742221.419 5  -4149893.945 2
 94  2 14 18 50 29.9950000  0  6 25 18 14 22 29 19
  22886626.374     9467653.994 5   7350254.141 3
  21071275.468   -16681237.585 6 -12908965.048 5
  18744698.944   -14703433.814 7 -11390299.767 7
  19713726.929   -20366185.756 7 -15706579.066 8
  19483245.405   -18010866.269 7 -13978165.763 8
  22433272.452    -5876211.971 5  -4254302.065 2
 94  2 14 18 50 59.9940000  0  7 25 18 14  4 22 29 19
  22895390.861     9513746.538 5   7386170.263 2
  21048609.549   -16800361.051 6 -13001788.492 5
  18740486.588   -14725564.296 7 -11407544.308 7
  23268152.197          -0.93813
  19704477.799   -20414772.123 7 -15744438.592 8
  19468338.221   -18089224.977 7 -14039224.489 8
  22407798.369    -6010063.331 5  -4358601.697 2
 94  2 14 18 51 29.9940000  0  7 25 18 14  4 22 29 19
  22904166.393     9559830.876 4   7422079.970 1
  21025952.088   -16919420.774 5 -13094562.260 2
  18736376.377   -14747163.594 7 -11424374.942 6
  23254900.088      -69654.588 3
  19695345.783   -20462793.796 6 -15781858.100 6
  19453446.611   -18167460.731 7 -14100187.399 6
  22382349.213    -6143787.392 4  -4462802.143 2
 94  2 14 18 51 59.9940000  0  7 25 18 14  4 22 29 19
  22912930.049     9605903.519 4   7457980.587 1
  21003309.697   -17038404.410 5 -13187276.755 3
  18732365.330   -14768238.021 7 -11440796.609 6
  23241734.182     -138846.293 2
  19686317.424   -20510238.904 6 -15818828.330 6
  19438582.463   -18245573.106 7 -14161054.186 6
  22356932.346    -6277358.885 4  -4566883.659 1
 94  2 14 18 52 29.9940000  0  7 25 18 14  4 22 29 19
  22921690.307     9651937.748 4   7493851.254 1
  20980678.049   -17157331.376 5 -13279947.040 3
  18728451.721   -14788807.226 7 -11456824.577 6
  23228651.010     -207579.293 2
  19677396.080   -20557111.588 6 -15855352.515 6
  19423740.768   -18323569.366 7 -14221830.483 6
  22331545.658    -6410776.063 4  -4670844.880 1
 94  2 14 18 52 59.9940000  0  7 25 18 14  4 22 29 19
  22930439.385     9697926.140 4   7529686.214 1
  20958057.385   -17276214.123 5 -13372582.902 3
  18724632.315   -14808881.075 7 -11472466.549 6
  23215655.807     -275847.261 2        -0.16011
  19668587.275   -20603407.677 6 -15891427.402 6
  19408918.596   -18401456.167 6 -14282521.493 6
  22306186.939    -6544034.882 4  -4774682.722 2
 94  2 14 18 53 29.9940000  0  7 25 18 14  4 22 29 19
  22939187.588     9743880.332 5   7565494.487 2
  20935443.025   -17395058.591 6 -13465188.906 5
  18720908.197   -14828444.745 7 -11487710.975 7
  23202761.322     -343643.346 3    -52828.366 1
  19659887.572   -20649118.063 7 -15927045.876 8
  19394120.213   -18479226.030 7 -14343121.370 9
  22280859.135    -6677132.546 5  -4878394.970 3
 94  2 14 18 53 59.9940000  0  7 25 18 14  4 22 29 19
  22947920.197     9789794.446 5   7601271.554 4
  20912831.135   -17513878.108 6 -13557775.474 5
  18717287.369   -14847476.108 7 -11502540.622 7
  23189951.244     -410970.674 3   -105291.200 1
  19651302.979   -20694242.090 7 -15962207.455 8
  19379345.104   -18556868.008 7 -14403621.610 9
  22255563.002    -6810063.105 5  -4981976.993 3
 94  2 14 18 54 29.9940000  0  7 25 18 14  4 22 29 19
  22956651.986     9835667.663 5   7637016.753 4
  20890221.807   -17632688.181 6 -13650354.695 5
  18713769.135   -14865962.222 7 -11516945.401 8
  23177224.877     -477830.188 3   -157389.531 1
  19642823.611   -20738807.055 7 -15996933.383 8
  19364594.549   -18634373.379 7 -14464015.398 9
  22230290.650    -6942838.923 5  -5085438.440 2
 94  2 14 18 54 59.9940000  0  7 25 18 14  4 22 29 19
  22965377.666     9881510.751 5   7672738.475 5
  20867616.783   -17751478.978 6 -13742918.898 5
  18710357.940   -14883887.877 7 -11530913.453 8
  23164594.799     -544219.799 3   -209121.713 1
  19634446.736   -20782818.128 7 -16031227.693 8
  19349875.416   -18711726.194 7 -14524290.312 9
  22205057.580    -7075447.730 5  -5188769.748 4
 94  2 14 18 55 29.9940000  0  6 18 14  4 22 29 19
  20845016.096   -17870244.593 6 -13835463.470 6
  18707048.471   -14901276.409 7 -11544462.971 8
  23152050.213     -610158.084 3   -260502.208 1
  19626174.283   -20826291.766 7 -16065103.215 8
  19335184.799   -18788937.419 7 -14584454.895 9
  22179855.947    -7207904.434 5  -5291982.537 3
 94  2 14 18 55 59.9940000  0  6 18 14  4 22 29 19
  20822420.580   -17988985.518 6 -13927988.797 5
  18703837.354   -14918159.066 7 -11557618.297 8
  23139580.135     -675661.056 3   -311543.531 2
  19618000.643   -20869240.647 7 -16098569.828 8
  19320513.182   -18866021.388 7 -14644520.316 9
  22154675.947    -7340222.431 5  -5395087.248 4
 94  2 14 18 56 29.9940000  0  6 18 14  4 22 29 19
  20799832.541   -18107681.726 6 -14020479.277 6
  18700721.635   -14934537.491 7 -11570380.715 8
  23127196.479     -740713.746 3   -362233.966 2
  19609930.447   -20911642.001 7 -16131609.788 8
  19305874.221   -18942966.143 7 -14704477.265 9
  22129529.205    -7472386.862 5  -5498072.292 4
 94  2 14 18 56 59.9940000  0  6 18 14  4 22 29 19
  20777253.174   -18226329.989 6 -14112932.404 6
  18697698.846   -14950429.525 7 -11582764.126 8
  23114909.557     -805314.244 3   -412572.068 2
  19601972.471   -20953462.066 7 -16164196.791 8
  19291255.471   -19019773.120 7 -14764326.866 9
  22104404.447    -7604397.498 5  -5600937.526 4
 94  2 14 18 57 29.9940000  0  6 18 14  4 22 29 19
  20754686.174   -18344927.660 6 -14205346.113 6
  18694766.236   -14965836.662 7 -11594769.699 8
  23102700.471     -869455.231 3   -462552.077 1
  19594127.463   -20994691.705 7 -16196323.715 8
  19276666.791   -19096441.487 7 -14824068.452 9
  22079309.697    -7736265.252 5  -5703691.409 4
 94  2 14 18 57 59.9940000  0  6 18 14  4 22 29 19
  20732125.502   -18463499.630 6 -14297739.806 5
  18691924.182   -14980755.985 7 -11606395.155 7
  23090580.236     -933151.497 3   -512185.556 2
  19586390.900   -21035346.986 7 -16228003.094 8
  19262104.752   -19172971.376 7 -14883702.130 9
  22054240.166    -7868000.914 5  -5806342.398 5
 94  2 14 18 58 29.9940000  0  6 18 14  4 22 29 19
  20709564.721   -18582044.295 6 -14390112.216 6
  18689185.479   -14995164.754 7 -11617622.777 8
  23078548.213     -996386.473 3   -561459.597 2
  19578765.502   -21075421.037 7 -16259229.558 8
  19247568.572   -19249353.231 7 -14943220.465 9
  22029204.893    -7999589.982 5  -5908879.173 4
 94  2 14 18 58 59.9940000  0  6 18 14  4 22 29 19
  20687009.432   -18700569.006 6 -14482469.080 6
  18686539.408   -15009068.560 7 -11628456.925 8
  23066600.346    -1059184.834 3   -610393.423 1
  19571243.424   -21114941.753 7 -16290024.866 8
  19233058.088   -19325611.506 7 -15002642.501 9
  22004181.275    -8131055.898 5  -6011319.996 5
 94  2 14 18 59 29.9940000  0  6 18 14  4 22 29 19
  20664465.111   -18819046.414 6 -14574789.079 6
  18683993.744   -15022433.505 7 -11638871.177 8
  23054733.197    -1121541.340 3   -658982.919 1
  19563831.455   -21153905.390 7 -16320386.092 8
  19218570.986   -19401733.002 7 -15061957.955 9
  21979194.549    -8262374.775 5  -6113646.275 4
 94  2 14 18 59 59.9940000  0  6 18 14  4 22 29 19
  20641928.885   -18937473.593 6 -14667069.957 5
  18681559.299   -15035244.863 7 -11648854.077 7
  23042949.025    -1183462.356 3   -707233.117 1
  19556522.127   -21192296.689 7 -16350301.366 8
  19204113.900   -19477717.285 7 -15121166.496 9
  21954237.705    -8393522.310 5  -6215839.071 4
 94  2 14 19  0 29.9940000  0  6 18 14  4 22 29 19
  20619401.236   -19055855.953 6 -14759315.905 5
  18679222.104   -15047510.786 7 -11658411.950 7
  23031244.096    -1244964.140 3   -755156.583 1
  19549328.854   -21230119.135 7 -16379773.368 8
  19189676.455   -19553576.445 7 -15180277.525 8
  21929311.822    -8524503.566 5  -6317902.308 4
 94  2 14 19  0 59.9940000  0  6 18 14  4 22 29 19
  20596882.986   -19174199.521 6 -14851531.625 6
  18676990.408   -15059244.479 7 -11667555.107 8
  23019623.924    -1306058.895 3   -802762.941 1
  19542235.815   -21267382.421 7 -16408809.680 9
  19175265.150   -19629302.760 7 -15239285.041 9
  21904417.900    -8655322.877 5  -6419839.384 5
 94  2 14 19  1 29.9940000  0  6 18 14  4 22 29 19
  20574370.541   -19292509.409 6 -14943721.112 6
  18674856.471   -15070459.389 7 -11676294.014 8
  23008076.033    -1366732.998 3   -850041.490 1
  19535250.775   -21304085.976 7 -16437409.845 8
  19160884.979   -19704880.838 7 -15298177.045 9
  21879557.768    -8785958.575 5  -6521633.395 4
 94  2 14 19  1 59.9940000  0  6 18 14  4 22 29 19
  20551860.205   -19410792.010 6 -15035889.330 6
  18672819.119   -15081161.794 7 -11684633.564 8
  22996606.088    -1426975.999 3   -896984.115 2
  19528372.299   -21340238.332 7 -16465580.517 8
  19146531.369   -19780311.368 7 -15356954.065 9
  21854733.658    -8916415.783 5  -6623288.347 4
 94  2 14 19  2 29.9940000  0  6 18 14  4 22 29 19
  20529361.455   -19529025.698 6 -15128019.457 6
  18670879.885   -15091357.650 7 -11692578.400 8
  22985235.385    -1486757.266 3   -943566.942 1
  19521595.002   -21375840.536 7 -16493322.511 8
  19132207.932   -19855589.760 7 -15415612.539 9
  21829942.182    -9046699.374 5  -6724807.993 4
 94  2 14 19  2 59.9940000  0  6 18 14  4 22 29 19
  20506872.314   -19647206.187 6 -15220108.124 6
  18669033.463   -15101060.807 7 -11700139.316 8
  22973949.291    -1546068.001 3   -989783.139 1
  19514923.096   -21410908.616 7 -16520648.311 8
  19117906.338   -19930739.171 7 -15474170.499 9
  21805184.525    -9176812.555 5  -6826194.840 5
 94  2 14 19  3 29.9940000  0  6 18 14  4 22 29 19
  20484395.932   -19765318.788 6 -15312143.897 6
  18667282.900   -15110253.818 7 -11707302.726 8
  22962749.080    -1604894.602 3  -1035622.089 2
  19508354.447   -21445431.339 7 -16547549.160 8
  19103627.744   -20005771.213 7 -15532637.008 9
  21780454.463    -9306749.884 5  -6927444.655 5
 94  2 14 19  3 59.9940000  0  6 18 14  4 22 29 19
  20461936.268   -19883345.400 6 -15404112.666 6
  18665637.838   -15118908.660 7 -11714046.780 8
  22951649.916    -1663221.092 3  -1081071.307 1
  19501891.627   -21479384.753 7 -16574006.414 8
  19089375.150   -20080674.750 7 -15591003.374 9
  21755763.947    -9436514.082 5  -7028559.548 5
 94  2 14 19  4 29.9940000  0  6 18 14  4 22 29 19
  20439496.033   -20001266.798 6 -15495999.448 6
  18664090.510   -15127026.633 7 -11720372.498 8
  22940650.744    -1721039.688 3  -1126124.750 1
  19495546.799   -21512753.261 7 -16600007.892 8
  19075149.947   -20155424.706 7 -15649250.071 9
  21731104.658    -9566085.904 5  -7129524.518 4
 94  2 14 19  4 59.9940000  0  6 18 14  4 22 29 19
  20417075.330   -20119093.420 6 -15587812.376 6
  18662650.924   -15134606.878 7 -11726279.209 8
  22929738.416    -1778372.734 3  -1170799.847 1
  19489302.440   -21545538.767 7 -16625555.073 8
  19060957.588   -20230008.735 7 -15707367.473 9
  21706486.416    -9695463.810 5  -7230338.351 4
 94  2 14 19  5 29.9940000  0  6 18 14  4 22 29 19
  20394668.190   -20236841.725 6 -15679564.281 6
  18661308.244   -15141657.477 7 -11731773.203 8
  22918916.572    -1835240.951 3  -1215112.772 1
  19483179.018   -21577733.163 7 -16650641.637 8
  19046799.182   -20304404.692 7 -15765338.327 9
  21681900.549    -9824653.929 5  -7331005.826 5
 94  2 14 19  5 59.9940000  0  6 18 14  4 22 29 19
  20372270.393   -20354536.284 6 -15771274.301 6
  18660057.510   -15148220.474 7 -11736887.252 8
  22908175.697    -1891680.224 3  -1259091.436 2
  19477159.525   -21609360.615 7 -16675286.428 8
  19032677.885   -20378620.630 7 -15823168.908 9
  21657348.557    -9953680.023 5  -7431545.481 4
 94  2 14 19  6 29.9940000  0  6 18 14  4 22 29 19
  20349880.666   -20472188.275 6 -15862951.150 6
  18658898.955   -15154319.497 7 -11741639.761 8
  22897516.799    -1947712.526 3  -1302753.001 3
  19471245.494   -21640438.506 7 -16699502.982 8
  19018585.104   -20452677.198 7 -15880875.305 9
  21632825.322   -10082548.492 5  -7531962.302 5
 94  2 14 19  6 59.9940000  0  6 18 14  4 22 29 19
  20327504.143   -20589791.256 6 -15954589.791 6
  18657833.158   -15159929.488 7 -11746011.201 8
  22886937.955    -2003322.964 3  -1346085.808 2
  19465436.049   -21670953.903 7 -16723281.204 8
  19004524.900   -20526565.452 7 -15938450.536 9
  21608333.260   -10211256.413 5  -7632254.006 4
 94  2 14 19  7 29.9930000  0  6 18 14  4 22 29 19
  20305135.208   -20707338.256 6 -16046184.841 6
  18656858.286   -15165047.822 7 -11749999.554 8
  22876436.286    -2058498.681 3  -1389079.885 2
  19459737.778   -21700911.647 7 -16746624.915 8
  18990491.989   -20600292.119 7 -15995899.876 9
  21583871.208   -10339803.624 5  -7732420.476 4
 94  2 14 19  7 59.9930000  0  6 18 14  4 22 29 19
  20282776.653   -20824829.463 6 -16137736.390 6
  18655976.997   -15169679.697 7 -11753608.840 8
  22866018.942    -2113236.565 3  -1431732.800 1
  19454140.161   -21730326.162 7 -16769545.296 8
  18976492.021   -20673876.724 7 -16053238.511 9
  21559438.661   -10468209.525 5  -7832476.822 4
 94  2 14 19  8 29.9930000  0  6 18 14  4 22 29 19
  20260433.583   -20942247.353 6 -16229230.816 6
  18655193.192   -15173794.125 7 -11756814.917 8
  22855686.825    -2167524.747 3  -1474035.286 2
  19448648.286   -21759183.656 7 -16792031.631 8
  18962519.513   -20747303.103 7 -16110453.854 9
  21535031.044   -10596465.901 5  -7932416.669 5
 94  2 14 19  8 59.9930000  0  6 18 14  4 22 29 19
  20238103.044   -21059595.930 6 -16320671.216 6
  18654509.536   -15177384.241 7 -11759612.439 8
  22845441.552    -2221355.707 3  -1515981.481 2
  19443264.450   -21787482.690 7 -16814082.796 8
  18948578.927   -20820556.584 7 -16167534.469 9
  21510653.974   -10724568.788 5  -8032236.918 4
 94  2 14 19  9 29.9930000  0  6 18 14  4 22 29 19
  20215781.099   -21176889.012 6 -16412068.389 6
  18653924.255   -15180463.010 7 -11762011.506 8
  22835282.810    -2274748.028 3  -1557585.870 1
  19437984.763   -21815227.265 7 -16835701.907 8
  18934670.224   -20893652.817 7 -16224492.551 9
  21486304.247   -10852515.636 5  -8131935.590 5
 94  2 14 19  9 59.9930000  0  6 18 14  4 22 29 19
  20193473.560   -21294128.697 6 -16503423.939 6
  18653437.935   -15183023.499 7 -11764006.722 8
  22825206.810    -2327703.019 3  -1598849.524 1
  19432813.489   -21842402.268 7 -16856877.194 8
  18920790.919   -20966583.908 7 -16281321.945 9
  21461990.427   -10980290.969 5  -8231500.617 5
 94  2 14 19 10 29.9930000  0  6 18 14  4 22 29 19
  20171170.185   -21411334.894 6 -16594753.395 6
  18653046.896   -15185074.530 7 -11765604.953 8
  22815212.356    -2380231.073 3  -1639780.448 2
  19427749.599   -21869010.972 7 -16877611.204 8
  18906941.388   -21039362.318 7 -16338032.372 9
  21437712.044   -11107888.776 5  -8330927.321 5
 94  2 14 19 10 59.9930000  0  6 18 14  4 22 29 19
  20148872.091   -21528508.395 6 -16686057.374 6
  18652753.044   -15186629.013 7 -11766816.277 8
  22805302.716    -2432314.104 3  -1680364.625 1
  19422792.263   -21895054.749 7 -16897905.012 8
  18893120.255   -21111996.686 7 -16394630.561 9
  21413469.403   -11235277.189 5  -8430190.877 4
 94  2 14 19 11 29.9930000  0  6 18 14  4 22 29 19
  20126579.005   -21645662.713 6 -16777346.393 6
  18652542.966   -15187713.729 7 -11767661.537 8
  22795469.310    -2483987.808 3  -1720629.858 2
  19417938.372   -21920560.939 7 -16917779.915 8
  18879320.739   -21184515.366 7 -16451138.595 9
  21389261.653   -11362475.655 5  -8529306.441 5
 94  2 14 19 11 59.9930000  0  6 18 14  4 22 29 19
  20104292.505   -21762773.892 6 -16868601.801 6
  18652426.669   -15188331.000 7 -11768142.553 8
  22785716.669    -2535231.800 2  -1760560.222 2
  19413190.372   -21945518.139 7 -16937227.023 8
  18865547.216   -21256893.953 7 -16507537.471 9
  21365096.528   -11489480.376 5  -8628271.027 5
 94  2 14 19 12 29.9930000  0  6 18 14  4 22 29 19
  20082022.021   -21879796.761 6 -16959788.390 6
  18652398.224   -15188470.148 7
  22776049.364    -2586020.976 2  -1800136.193 1
  19408550.231   -21969913.496 7 -16956236.338 8
  18851804.810   -21329109.408 7 -16563809.230 9
  21340964.427   -11616280.740 5  -8727076.381 5
 94  2 14 19 12 59.9930000  0  6 18 14  4 22 29 19
  20059774.138   -21996717.058 6 -17050895.057 6
  18652463.552   -15188136.416 7
  22766468.052    -2636361.601 2  -1839362.642 2
  19404009.403   -21993764.809 7 -16974821.728 8
  18838095.403   -21401152.457 7 -16619946.653 9
  21316872.130   -11742892.386 5  -8825734.684 5
 94  2 14 19 13 29.9930000  0  6 18 14  4 22 29 19
  20037546.489   -22113522.373 6 -17141912.131 6
  18652620.317   -15187311.666 7 -11767348.361 8
  22756975.833    -2686259.059 3  -1878243.779 1
  19399574.036   -22017065.861 7 -16992978.346 8
  18824426.333   -21472990.226 7 -16675924.119 9
  21292810.708   -11869338.503 5  -8924264.007 5
 94  2 14 19 13 59.9930000  0  6 18 14  4 22 29 19
  20015341.052   -22230209.836 6 -17232837.372 6
  18652868.161   -15185994.757 7 -11766322.221 8
  22747569.216    -2735701.665 3  -1916770.488 1
  19395247.091   -22039821.718 7 -17010710.138 8
  18810796.310   -21544615.083 7 -16731735.679 9
  21268777.755   -11995625.905 5  -9022669.662 5
 94  2 14 19 14 29.9930000  0  6 18 14  4 22 29 19
  19993161.497   -22346775.741 6 -17323667.889 6
  18653226.192   -15184147.428 7 -11764882.770 8
  22738247.278    -2784686.532 3  -1954940.520 2
  19391018.138   -22062032.791 7 -17028017.444 8
  18797204.505   -21616028.880 7 -16787382.778 9
  21244779.731   -12121733.556 5  -9120935.246 5
 94  2 14 19 14 59.9930000  0  6 18 14  4 22 29 19
  19970994.130   -22463260.791 6 -17414435.407 6
  18653675.216   -15181763.881 7 -11763025.491 8
  22729012.052    -2833226.720 3  -1992764.057 1
  19386897.106   -22083694.288 7 -17044896.522 8
  18783656.278   -21687236.323 7 -16842869.082 9
  21220817.161   -12247664.508 5  -9219063.136 5
 94  2 14 19 15 29.9930000  0  6 18 14  4 22 29 19
  19948837.161   -22579693.547 6 -17505162.171 6
  18654225.255   -15178867.894 7 -11760768.901 8
  22719853.653    -2881339.294 2  -2030254.378 2
  19382880.231   -22104809.325 7 -17061349.799 8
  18770140.231   -21758259.450 7 -16898211.766 9
  21196882.708   -12373432.946 5  -9317064.408 5
 94  2 14 19 15 59.9930000  0  6 18 14  4 22 29 19
  19926691.263   -22696067.342 6 -17595842.993 6
  18654875.911   -15175468.553 7 -11758120.093 8
  22710779.700    -2929016.054 2  -2067405.069 1
  19378966.255   -22125368.151 7 -17077369.677 8
  18756656.739   -21829117.242 7 -16953425.615 9
  21172985.231   -12499020.068 5  -9414924.396 5
 94  2 14 19 16 29.9930000  0  6 18 14  4 22 29 19
  19904558.427   -22812379.673 6 -17686475.926 6
  18655615.146   -15171566.772 7 -11755079.772 8
  22701794.192    -2976247.328 2  -2104208.663 1
  19375163.841   -22145360.238 7 -17092947.953 8
  18743205.450   -21899805.732 7 -17008507.542 9
  21149123.731   -12624411.836 5  -9512632.156 5
 94  2 14 19 16 59.9930000  0  6 18 14  4 22 29 19
  19882439.349   -22928613.366 6 -17777047.596 6
  18656451.294   -15167189.968 7 -11751669.303 8
  22692889.763    -3023029.944 3  -2140662.635 1
  19371465.856   -22164780.742 7 -17108080.851 8
  18729789.231   -21970307.449 7 -17063443.933 9
  21125297.481   -12749609.921 5  -9610189.011 5
 94  2 14 19 17 29.9930000  0  6 18 14  4 22 29 19
  19860340.739   -23044746.295 6 -17867540.727 6
  18657369.591   -15162359.874 7 -11747905.618 8
  22684070.677    -3069376.537 2  -2176776.878 1
  19367874.380   -22183661.803 7 -17122793.407 8
  18716405.825   -22040636.459 7 -17118245.756 9
  21101512.896   -12874612.664 5  -9707593.652 5
 94  2 14 19 17 59.9930000  0  6 18 14  4 22 29 19
  19838264.856   -23160756.769 6 -17957938.445 6
  18658378.786   -15157047.763 7 -11743766.333 8
  22675339.278    -3115266.163 2  -2212535.039 2
  19364387.614   -22201990.276 7 -17137075.390 8
  18703057.481   -22110781.902 7 -17172904.534 9
  21077765.356   -12999401.547 5  -9804831.664 5
 94  2 14 19 18 29.9930000  0  6 18 14  4 22 29 19
  19816208.599   -23276655.720 6 -18048249.254 6
  18659483.192   -15151262.318 7 -11739258.213 8
  22666691.458    -3160706.790 2  -2247943.323 2
  19360999.278   -22219781.582 7 -17150938.799 8
  18689743.013   -22180753.180 7 -17227427.608 9
  21054056.114   -13123986.033 5  -9901910.407 5
 94  2 14 19 18 59.9930000  0  6 18 14  4 22 29 19
  19794180.028   -23392414.864 6 -18138451.123 6
  18660676.458   -15144981.190 7 -11734363.853 8
  22658133.778    -3205686.682 2  -2282992.616 2
  19357721.099   -22237010.014 7 -17164363.603 8
  18676464.224   -22250534.648 7 -17281802.774 9
  21030392.380   -13248352.299 5  -9998819.113 5
 94  2 14 19 19 29.9930000  0  6 18 14  4 22 29 19
  19772180.497   -23508034.461 6 -18228544.256 6
  18661969.630   -15138179.441 7 -11729063.811 8
  22649665.435    -3250184.606 2  -2317666.336 3
  19354553.880   -22253666.201 7 -17177342.498 8
  18663222.521   -22320118.652 7 -17336024.068 9
  21006766.669   -13372493.426 5 -10095552.376 5
 94  2 14 19 19 59.9930000  0  6 18 14  4 22 29 19
  19750199.833   -23623539.733 6 -18318548.309 6
  18663361.028   -15130867.030 7 -11723365.850 8
  22641288.489    -3294202.548 2  -2351966.042 2
  19351491.669   -22269757.502 7 -17189881.218 8
  18650017.724   -22389508.152 7 -17390093.803 9
  20983182.841   -13496430.691 5 -10192126.804 5
 94  2 14 19 20 29.9930000  0  6 18 14  4 22 29 19
  19728241.942   -23738933.039 6 -18408465.113 6
  18664851.396   -15123044.855 7 -11717270.674 8
  22632998.067    -3337749.700 3  -2385898.879 1
  19348533.888   -22285290.648 7 -17201985.006 8
  18636854.208   -22458683.727 7 -17443996.853 9
  20959638.028   -13620165.740 5 -10288543.648 5
 94  2 14 19 20 59.9930000  0  6 18 14  4 22 29 19
  19706302.958   -23854223.817 6 -18498302.034 6
  18666437.614   -15114712.129 7 -11710777.669 7
  22624805.333    -3380845.496 3  -2419480.042 1
  19345682.083   -22300273.707 7 -17213660.143 7
  18623733.786   -22527630.980 7 -17497721.981 8
  20936127.044   -13743705.189 5 -10384808.079 5
 94  2 14 19 21 29.9930000  0  6 18 14  4 22 29 19
  19684378.044   -23969428.157 6 -18588071.603 6
  18668120.997   -15105867.709 7 -11703885.934 8
  22616683.872    -3423490.359 3  -2452709.809 1
  19342934.763   -22314714.315 7 -17224912.575 8
  18610658.114   -22596346.752 7 -17551266.731 9
  20912659.771   -13867044.895 5 -10480916.854 5
 94  2 14 19 21 59.9930000  0  6 18 14  4 22 29 19
  19662471.536   -24084549.145 6 -18677776.227 6
  18669898.950   -15096526.507 7 -11696607.107 8
  22608653.685    -3465704.591 3  -2485604.027 2
  19340291.364   -22328609.587 7 -17235740.070 8
  18597624.724   -22664835.426 7 -17604634.519 9
  20889223.505   -13990189.775 5 -10576873.829 5
 94  2 14 19 22 29.9930000  0  6 18 14  4 22 29 19
  19640581.810   -24199586.428 6 -18767415.628 6
  18671768.685   -15086698.412 7 -11688948.874 8
  22600700.333    -3507499.650 3  -2518171.604 1
  19337751.255   -22341955.081 7 -17246139.158 8
  18584633.724   -22733106.033 7 -17657832.380 9
  20865824.630   -14113144.751 5 -10672682.811 5
 94  2 14 19 22 59.9930000  0  6 18 14  4 22 29 19
  19618708.747   -24314532.709 6 -18856984.124 6
  18673727.942   -15076401.765 7 -11680925.543 8
  22592822.763    -3548879.452 3  -2550415.629 1
  19335315.872   -22354758.223 7 -17256115.619 8
  18571682.192   -22801171.701 7 -17710870.544 9
  20842463.942   -14235908.960 5 -10768343.141 5
 94  2 14 19 23 29.9920000  0  6 18 14  4 22 29 19
  19596852.500   -24429387.892 6 -18946481.637 6
  18675774.461   -15065647.233 7 -11672545.418 7
  22585032.633    -3589844.906 3  -2582336.801 1
  19332978.055   -22367037.298 7 -17265683.725 8
  18558765.648   -22869047.868 7 -17763761.044 9
  20819138.078   -14358489.932 5 -10863860.687 5
 94  2 14 19 23 59.9920000  0  6 18 14  4 22 29 19
  19575016.805   -24544133.921 6 -19035894.092 6
  18677908.508   -15054432.008 7 -11663806.311 7
  22577314.070    -3630399.520 3  -2613937.767 2
  19330741.703   -22378792.669 7 -17274843.736 8
  18545884.344   -22936736.816 7 -17816505.661 9
  20795841.320   -14480897.088 5 -10959242.791 5
 94  2 14 19 24 29.9920000  0  6 18 14  4 22 29 19
  19553204.117   -24658755.931 6 -19125209.917 6
  18680132.578   -15042746.524 7 -11654700.774 7
  22569672.453    -3670536.105 3  -2645213.081 1
  19328601.703   -22390036.408 7 -17283605.073 8
  18533039.891   -23004231.621 7 -17869098.999 9
  20772587.398   -14603110.083 5 -11054473.582 5
 94  2 14 19 24 59.9920000  0  6 18 14  4 22 29 19
  19531415.070   -24773251.439 6 -19214427.149 6
  18682444.844   -15030584.764 7 -11645224.090 7
  22562118.969    -3710254.795 3  -2676162.716 1
  19326558.539   -22400778.203 7 -17291975.260 8
  18520233.906   -23071526.976 7 -17921536.895 8
  20749371.195   -14725117.155 6 -11149543.922 5
 94  2 14 19 25 29.9920000  0  6 18 14  4 22 29 19
  19509650.945   -24887620.470 6 -19303545.866 6
  18684850.375   -15017940.011 7 -11635371.085 7
  22554638.922    -3749543.145 3  -2706777.011 2
  19324614.117   -22411007.925 7 -17299946.467 8
  18507468.188   -23138615.980 7 -17973814.038 8
  20726195.313   -14846919.594 6 -11244454.837 5
 94  2 14 19 25 59.9920000  0  6 18 14  4 22 29 19
  19487914.266   -25001859.028 6 -19392562.905 6
  18687344.430   -15004833.970 7 -11625158.612 7
  22547248.172    -3788400.721 3  -2737055.646 2
  19322764.086   -22420716.815 7 -17307511.813 8
  18494741.656   -23205492.643 7 -18025925.699 8
  20703056.180   -14968513.415 6 -11339203.176 5
 94  2 14 19 26 29.9920000  0  6 18 14  4 22 29 19
  19466196.711   -25115983.173 6 -19481490.788 6
  18689926.008   -14991274.991 7 -11614593.196 7
  22539933.883    -3826831.254 3  -2767001.546 1
  19321016.930   -22429900.664 7 -17314668.033 7
  18482057.453   -23272151.085 7 -18077867.316 8
  20679955.375   -15089888.438 6 -11433781.030 5
 94  2 14 19 26 59.9920000  0  6 18 14  4 22 29 19
  19444498.836   -25230005.372 6 -19570339.237 6
  18692593.203   -14977269.758 7 -11603680.052 7
  22532701.867    -3864838.079 3  -2796617.241 1
  19319368.711   -22438549.520 7 -17321407.380 7
  18469411.328   -23338600.663 7 -18129646.193 8
  20656897.664   -15211066.429 5 -11528205.357 5
 94  2 14 19 27 29.9920000  0  6 18 14  4 22 29 19
  19422825.625   -25343906.060 6 -19659093.006 6
  18695339.305   -14962818.540 7 -11592419.389 7
  22525554.805    -3902410.011 3
  19317832.445   -22446640.661 7 -17327712.145 7
  18456808.867   -23404827.785 7 -18181251.726 8
  20633875.414   -15332042.106 5 -11622472.038 5
 94  2 14 19 27 59.9920000  0  6 18 14  4 22 29 19
  19401173.438   -25457687.001 6 -19747753.464 6
  18698177.789   -14947914.865 6 -11580806.161 7
  22518480.609    -3939559.124 3
  19316397.984   -22454171.784 7 -17333580.533 7
  18444248.219   -23470835.291 7 -18232686.131 8
  20610897.461   -15452802.640 5 -11716571.064 5
 94  2 14 19 28 29.9920000  0  6 18 14  4 22 29 19
  19379545.094   -25571344.890 6 -19836318.033 6
  18701102.391   -14932533.443 6 -11568820.664 7
  22511492.672    -3976274.192 3        -0.15711
  19315072.086   -22461142.053 7 -17339011.900 7
  18431731.602   -23536617.688 7 -18283945.131 8
  20587959.086   -15573340.990 6 -11810496.974 5
 94  2 14 19 28 59.9920000  0  6 18 14  4 22 29 19
  19357939.039   -25684876.472 6 -19924784.186 6
  18704118.516   -14916690.066 6 -11556475.197 7
  22504590.070    -4012552.609 2    -28269.038 1
  19313847.695   -22467567.240 7 -17344018.518 7
  18419253.563   -23602179.304 7 -18335032.089 8
  20565060.094   -15693680.440 6 -11904267.892 5
 94  2 14 19 29 29.9920000  0  6 18 14  4 22 29 19
  19336362.516   -25798263.395 6 -20013137.574 6
  18707218.563   -14900392.195 6 -11543775.555 6
  22497768.094    -4048393.724 3    -56197.202 1
  19312727.914   -22473461.176 7 -17348611.160 7
  18406823.633   -23667505.683 7 -18385935.714 7
  20542197.289   -15813811.760 5 -11997876.621 5
 94  2 14 19 29 59.9920000  0  6 18 14  4 22 29 19
  19314812.898   -25911513.108 6 -20101384.090 6
  18710408.773   -14883637.491 6 -11530719.986 6
  22491034.125    -4083794.621 3    -83782.373 1
  19311704.742   -22478831.636 7 -17352795.951 7
  18394437.352   -23732593.296 7 -18436653.343 7
  20519378.305   -15933737.145 6 -12091324.917 5
 94  2 14 19 30 29.9920000  0  6 18 14  4 22 29 19
  19293289.266   -26024621.681 6 -20189520.611 6
  18713681.664   -14866440.907 7 -11517320.080 6
  22484391.484    -4118760.615 2   -111028.649 1
  19310781.016   -22483688.486 7 -17356580.502 7
  18382095.344   -23797446.543 7 -18487188.325 7
  20496593.453   -16053479.949 6 -12184630.906 5
 94  2 14 19 30 59.9920000  0  6 18 14  4 22 29 19
  19271792.266   -26137587.721 6 -20277546.082 6
  18717034.047   -14848813.406 6 -11503584.403 6
  22477809.133    -4153310.463 2   -137950.616 1
  19309956.094   -22488024.115 7 -17359958.920 7
  18369797.945   -23862073.099 7 -18537546.685 7
  20473838.219   -16173040.892 5 -12277795.220 5
 94  2 14 19 31 29.9920000  0  5 18 14 22 29 19
  19250321.813   -26250416.230 6 -20365464.346 6
  18720475.984   -14830735.341 6 -11489497.611 6
  19309228.242   -22491841.556 7 -17362933.548 7
  18357540.430   -23926487.115 7 -18587739.415 7
  20451126.219   -16292405.972 5 -12370806.876 5
 94  2 14 19 31 59.9920000  0  6 18 14  4 22 29 19
  19228873.195   -26363124.111 6 -20453288.624 6
  18724002.992   -14812196.821 6 -11475052.037 6
  22464886.945          -0.49912
  19308600.469   -22495140.086 7 -17365503.826 7
  18345323.016   -23990694.301 7 -18637770.984 7
  20428450.055   -16411573.352 5 -12463664.497 5
 94  2 14 19 32 29.9920000  0  6 18 14  4 22 29 19
  19207448.773   -26475708.932 6 -20541017.012 6
  18727621.438   -14793191.250 6 -11460242.526 6
  22458530.266      -33383.903 2
  19308070.016   -22497933.651 7 -17367680.633 7
  18333141.594   -24054700.019 7 -18687645.562 7
  20405810.703   -16530536.732 5 -12556363.163 5
 94  2 14 19 32 59.9920000  0  6 18 14  4 22 29 19
  19186044.203   -26588190.248 6 -20628664.753 6
  18731323.250   -14773729.802 6 -11445077.793 6
  22452248.477      -66395.860 2
  19307628.039   -22500252.966 7 -17369487.894 7
  18321001.086   -24118504.342 7 -18737363.209 7
  20383211.641   -16649295.452 6 -12648902.346 5
 94  2 14 19 33 29.9920000  0  6 18 14  4 22 29 19
  19164657.813   -26700574.965 6 -20716237.213 6
  18735112.188   -14753814.770 6 -11429559.618 6
  22446042.055      -99031.578 2        -0.40411
  19307275.961   -22502119.899 7 -17370942.662 7
  18308898.758   -24182101.486 7 -18786919.422 7
  20360650.586   -16767855.387 6 -12741286.647 5
 94  2 14 19 33 59.9920000  0  6 18 14  4 22 29 19
  19143293.961   -26812849.722 6 -20803724.005 6
  18738984.992   -14733467.295 6 -11413704.478 6
  22439898.609     -131277.130 2    -25126.858 1
  19307008.313   -22503523.071 7 -17372036.050 7
  18296841.227   -24245465.160 7 -18836293.712 7
  20338126.617   -16886224.853 6 -12833522.521 5
 94  2 14 19 34 29.9920000  0  6 18 14  4 22 29 19
  19121947.836   -26925016.806 6 -20891126.887 6
  18742934.430   -14712711.756 6 -11397531.357 6
  22433832.883     -163131.451 2    -49948.484 1
  19306830.273   -22504466.442 7 -17372771.161 6
  18284826.977   -24308604.190 7 -18885492.959 7
  20315633.883   -17004423.991 6 -12925625.674 5
 94  2 14 19 34 59.9920000  0  6 18 14  4 22 29 19
  19100626.063   -27037067.906 6 -20978439.402 6
  18746962.063   -14691544.308 6 -11381037.275 6
  22427862.227     -194578.821 2    -74452.948 1
  19306738.328   -22504930.141 7
  18272854.938   -24371510.747 7 -18934511.057 7
  20293175.492   -17122444.481 5 -13017589.622 5
 94  2 14 19 35 29.9920000  0  6 18 14  4 22 29 19
  19079328.867   -27148990.147 6 -21065651.502 6
  18751066.273   -14669976.204 6 -11364230.993 6
  22421950.805     -225621.377 2    -98641.991 1
  19306747.172   -22504894.320 7
  18260927.102   -24434193.508 7 -18983354.766 7
  20270750.242   -17240289.561 6 -13109416.892 5
 94  2 14 19 35 59.9920000  0  6 18 14  4 22 29 19
  19058061.742   -27260746.793 6 -21152734.565 6
  18755248.531   -14647992.868 6 -11347101.154 6
  22416126.016     -256236.597 3
  19306850.203   -22504340.789 7
  18249047.359   -24496624.835 7 -19032002.554 7
  20248360.383   -17357938.149 5 -13201091.039 5
 94  2 14 19 36 29.9920000  0  6 18 14  4 22 29 19
  19036822.352   -27372358.673 6 -21239704.832 6
  18759512.484   -14625593.880 6 -11329647.431 6
  22410373.234     -286446.872 3
  19307050.969   -22503297.042 6 -17371859.981 6
  18237209.523   -24558831.460 7 -19080475.245 7
  20226011.867   -17475388.252 6 -13292610.538 5
 94  2 14 19 36 59.9920000  0  6 18 14  4 22 29 19
  19015610.336   -27483829.848 6 -21326565.460 6
  18763851.234   -14602797.091 6 -11311883.738 6
  22404698.906     -316282.924 2        -0.47011
  19307337.383   -22501783.001 6 -17370680.215 6
  18225411.891   -24620824.518 7 -19128781.526 7
  20203699.047   -17592646.449 6 -13383980.494 5
 94  2 14 19 37 29.9920000  0  5 18 14 22 29 19
  18994428.703   -27595141.411 6 -21413301.715 6
  18768266.383   -14579602.816 6 -11293810.326 6
  19307716.367   -22499795.555 6 -17369131.558 6
  18213659.344   -24682583.700 7 -19176905.556 7
  20181420.070   -17709714.634 5 -13475202.382 5
 94  2 14 19 37 59.9920000  0  5 18 14 22 29 19
  18973274.219   -27706309.764 6 -21499926.378 6
  18772756.258   -14556000.236 6 -11275418.731 6
  19308182.469   -22497349.585 6 -17367225.610 6
  18201951.805   -24744111.327 7 -19224849.166 7
  20159177.172   -17826594.217 5 -13566277.317 5
 94  2 14 19 38 29.9920000  0  5 18 14 22 29 19
  18952144.203   -27817341.769 6 -21586444.795 6
  18777325.203   -14531986.338 6 -11256706.639 6
  19308738.680   -22494430.304 6 -17364950.852 6
  18190286.242   -24805413.797 6 -19272617.313 7
  20136974.359   -17943272.779 5 -13657195.595 5
 94  2 14 19 38 59.9910000  0  5 18 14 22 29 19
  18931046.214   -27928215.195 6 -21672839.645 6
  18781975.253   -14507566.709 6 -11237678.393 6
  19309385.542   -22491021.686 6 -17362294.793 6
  18178666.331   -24866472.910 7 -19320195.843 7
  20114812.409   -18059736.117 5 -13747946.177 5
 94  2 14 19 39 29.9910000  0  5 18 14 22 29 19
  18909972.495   -28038956.322 6 -21759131.396 6
  18786697.558   -14482732.698 6 -11218327.256 6
  19310126.855   -22487134.539 6 -17359265.853 6
  18167090.355   -24927306.482 7 -19367598.621 7
  20092688.831   -18175985.427 5 -13838529.991 5
 94  2 14 19 39 59.9910000  0  5 18 14 22 29 19
  18888922.300   -28149575.447 6 -21845328.098 6
  18791503.441   -14457486.791 6 -11198655.153 6
  19310955.362   -22482767.591 6 -17355863.041 6
  18155554.792   -24987926.568 7 -19414835.044 7
  20070610.417   -18292021.584 6 -13928947.706 5
 94  2 14 19 40 29.9910000  0  5 18 14 22 29 19
  18867898.581   -28260063.087 6 -21931422.329 6
  18796380.620   -14431848.791 6 -11178677.529 6
  19311879.519   -22477915.035 6 -17352081.835 6
  18144058.261   -25048342.477 7 -19461912.369 7
  20048566.206   -18407851.246 6 -14019204.529 4
 94  2 14 19 40 59.9910000  0  5 18 14 22 29 19
  18846900.198   -28370405.496 6 -22017403.400 6
  18801335.659   -14405817.930 6 -11158393.781 6
  19312891.480   -22472593.241 6 -17347934.993 6
  18132600.237   -25108554.748 7 -19508831.016 7
  20026563.722   -18523489.659 5 -14109312.304 5
 94  2 14 19 41 29.9910000  0  5 18 14 22 29 19
  18825934.089   -28480581.019 6 -22103254.432 6
  18806368.026   -14379363.261 6 -11137779.795 6
  19313996.003   -22466794.438 6 -17343416.461 6
  18121185.636   -25168541.553 7 -19555573.971 7
  20004594.831   -18638938.841 6 -14199272.646 5
 94  2 14 19 41 59.9910000  0  5 18 14 22 29 19
  18805003.503   -28590579.053 6 -22188967.162 6
  18811481.644   -14352500.702 6 -11116847.971 6
  19315189.948   -22460517.917 6 -17338525.675 6
  18109817.886   -25228276.650 7 -19602120.787 7
  19982660.425   -18754194.676 6 -14289082.328 4
 94  2 14 19 42 29.9910000  0  5 18 14 22 29 19
  18784108.253   -28700381.889 6 -22274527.793 6
  18816670.941   -14325233.595 6 -11095600.917 6
  19316472.487   -22453775.140 6 -17333271.579 6
  18098503.964   -25287736.215 7 -19648452.907 6
  19960771.425   -18869232.242 6 -14378721.933 5
 94  2 14 19 42 59.9910000  0  6 27 18 14 22 29 19
  22463190.347     -135731.357 2
  18763250.066   -28809994.270 7 -22359940.027 6
  18821937.276   -14297550.100 6 -11074029.417 6
  19317844.066   -22446573.080 6 -17327659.597 6
  18087247.526   -25346887.484 7 -19694544.808 6
  19938921.120   -18984046.669 6 -14468187.671 5
 94  2 14 19 43 29.9910000  0  6 27 18 14 22 29 19
  22437378.511     -271402.874 2
  18742421.105   -28919447.315 7 -22445228.097 6
  18827280.487   -14269470.121 6 -11052148.953 6
  19319302.823   -22438903.437 6 -17321683.266 6
  18076049.144   -25405732.809 7 -19740398.294 6
  19917116.941   -19098631.840 6 -14557474.766 5
 94  2 14 19 43 59.9910000  0  7 27 18 14 28 22 29 19
  22411575.698     -406989.852 2        -0.41311
  18721624.089   -29028733.446 7 -22530386.116 6
  18832696.855   -14241012.755 6 -11029974.426 6
  22306423.370          -0.62913
  19320853.737   -22430754.716 6 -17315333.642 6
  18064909.230   -25464272.226 7 -19786013.411 6
  19895358.003   -19212974.799 6 -14646573.106 5
 94  2 14 19 44 29.9910000  0  7 27 18 14 28 22 29 19
  22385799.878     -542468.710 3   -105568.266 1
  18700860.362   -29137848.268 6 -22615410.641 6
  18838186.862   -14212169.371 6 -11007499.100 6
  22283588.144     -119998.858 3
  19322495.706   -22422127.915 6 -17308611.467 6
  18053822.276   -25522533.891 7 -19831412.103 6
  19873640.276   -19327105.632 6 -14735506.164 5
 94  2 14 19 44 59.9910000  0  7 27 18 14 28 22 29 19
  22360046.144     -677820.827 2   -211037.339 1
  18680127.964   -29246800.352 6 -22700308.360 6
  18843751.081   -14182929.263 6 -10984714.658 6
  22260772.269     -239902.453 3
  19324229.690   -22413012.743 6 -17301508.756 6
  18042787.073   -25580531.312 7 -19876604.898 6
  19851959.386   -19441039.812 6 -14824285.980 5
 94  2 14 19 45 29.9910000  0  7 27 18 14 28 22 29 19
  22334308.667     -813037.466 2   -316400.793 1
  18659429.480   -29355568.382 6 -22785062.662 6
  18849391.276   -14153286.666 6 -10961616.578 5
  22237976.425     -359707.563 3
  19326057.237   -22403406.989 6 -17294023.779 6
  18031799.105   -25638268.495 7 -19921594.916 6
  19830318.191   -19554765.339 6 -14912903.215 5
 94  2 14 19 45 59.9910000  0  7 27 18 14 28 22 29 19
  22308598.589     -948129.900 2   -421667.423 1
  18638768.308   -29464144.348 6 -22869667.307 6
  18855111.386   -14123228.044 6 -10938194.333 6
  22215195.917     -479419.477 3        -0.16311
  19327972.917   -22393337.208 6 -17286177.217 6
  18020861.698   -25695750.641 7 -19966386.195 6
  19808713.245   -19668304.305 6 -15001375.091 5
 94  2 14 19 46 29.9910000  0  7 27 18 14 28 22 29 19
  22282912.519    -1083133.066 2
  18618140.659   -29572542.268 7 -22954133.200 6
  18860915.487   -14092737.294 6 -10914435.359 6
  22192425.980     -599053.698 3    -93221.594 1
  19329978.128   -22382805.167 6 -17277970.456 6
  18009972.128   -25752970.944 7 -20010973.447 7
  19787143.191   -19781644.795 6 -15089692.293 5
 94  2 14 19 46 59.9910000  0  7 27 18 14 28 22 29 19
  22257226.034    -1218075.370 2        -0.15611
  18597545.800   -29680777.155 7 -23038472.060 7
  18866793.495   -14061841.830 6 -10890361.030 6
  22169678.542     -718614.309 3   -186385.662 1
  19332068.597   -22371819.581 6 -17269410.285 7
  17999136.956   -25809910.404 7 -20055341.867 7
  19765615.394   -19894769.799 6 -15177841.617 5
 94  2 14 19 47 29.9910000  0  7 27 18 14 28 22 29 19
  22231555.261    -1352992.668 3   -105130.348 1
  18576978.089   -29788858.721 7 -23122691.452 7
  18872741.925   -14030583.165 6 -10866003.686 6
  22146937.347     -838115.924 3   -279503.684 1
  19334238.425   -22360414.943 6 -17260523.583 7
  17988349.433   -25866598.875 7 -20099514.715 7
  19744128.206   -20007692.041 6 -15265832.926 5
 94  2 14 19 47 59.9910000  0  7 27 18 14 28 22 29 19
  22205889.081    -1487870.546 3   -210229.788 2
  18556442.269   -29896780.532 7 -23206786.354 7
  18878759.003   -13998961.688 6 -10841363.629 6
  22124210.167     -957544.081 3   -372564.443 2
  19336492.198   -22348573.477 6 -17251296.503 7
  17977610.175   -25923033.364 7 -20143489.651 7
  19722679.909   -20120403.232 6 -15353659.788 5
 94  2 14 19 48 29.9910000  0  7 27 18 14 28 22 29 19
  22180232.995    -1622707.069 3   -315297.012 2
  18535935.011   -30004541.147 7 -23290755.648 7
  18884838.089   -13967008.067 6 -10816464.758 6
  22101495.722    -1076904.534 3   -465572.373 2
  19338830.808   -22336292.598 6 -17241727.021 7
  17966919.909   -25979212.154 7 -20187265.355 7
  19701273.073   -20232896.738 6 -15441317.036 6
 94  2 14 19 48 59.9910000  0  7 27 18 14 28 22 29 19
  22154590.597    -1757460.349 3   -420299.366 1
  18515462.581   -30112124.413 7 -23374586.745 7
  18890984.909   -13934714.771 6 -10791301.212 6
  22078799.597    -1196176.111 3   -558510.982 2
  19341250.175   -22323572.513 6 -17231815.305 7
  17956277.378   -26035136.414 7 -20230842.722 7
  19679908.120   -20345175.461 6 -15528806.914 6
 94  2 14 19 49 29.9910000  0  7 27 18 14 28 22 29 19
  22128971.659    -1892101.695 3   -525214.476 1
  18495025.222   -30219519.616 7 -23458271.301 7
  18897199.776   -13902057.167 6 -10765853.785 6
  22056121.761    -1315344.419 3   -651369.089 1
  19343753.417   -22310410.324 6 -17221559.091 6
  17945683.558   -26090808.698 7 -20274223.746 7
  19658582.323   -20457241.772 6 -15616131.275 6
 94  2 14 19 49 59.9910000  0  7 27 18 14 28 22 29 19
  22103378.605    -2026583.578 2   -630005.364 2
  18474629.300   -30326701.243 7 -23541789.431 7
  18903489.034   -13868993.730 6 -10740090.129 6
  22033468.026    -1434380.412 3   -744124.071 1
  19346352.948   -22296766.084 6 -17210927.259 6
  17935149.573   -26146172.008 7 -20317364.005 7
  19637301.909   -20569072.180 6 -15703271.811 6
 94  2 14 19 50 29.9910000  0  7 27 18 14 28 22 29 19
  22077812.378    -2160922.975 3   -734685.222 1
  18454274.925   -30433666.539 7 -23625138.984 7
  18909861.198   -13835521.752 6 -10714008.133 6
  22010846.698    -1553279.916 3   -836772.664 2
  19349037.956   -22282651.007 6 -17199928.543 7
  17924672.026   -26201228.223 7 -20360264.974 8
  19616065.995   -20680662.237 6 -15790225.065 6
 94  2 14 19 50 59.9910000  0  7 27 18 14 28 22 29 19
  22052279.644    -2295113.322 3   -839249.012 2
  18433963.769   -30540398.850 7 -23708306.983 7
  18916310.878   -13801622.329 6 -10687593.061 6
  21988248.620    -1672014.284 3   -929292.603 2
  19351812.714   -22268067.762 6 -17188565.023 7
  17914254.347   -26255970.913 7 -20402921.632 7
  19594879.862   -20792006.788 6 -15876987.010 5
 94  2 14 19 51 29.9910000  0  7 27 18 14 28 22 29 19
  22026764.456    -2429187.467 3   -943722.224 2
  18413698.917   -30646890.885 7 -23791287.759 7
  18922838.995   -13767318.112 6 -10660862.557 6
  21965683.519    -1790589.521 3  -1021688.567 3
  19354673.831   -22253029.243 6 -17176846.749 7
  17903895.815   -26310404.373 7 -20445337.335 7
  19573735.597   -20903115.156 6 -15963564.923 6
 94  2 14 19 51 59.9910000  0  7 27 18 14 28 22 29 19
  22001271.808    -2563166.845 3  -1048121.637 1
  18393482.698   -30753129.974 7 -23874071.429 7
  18929442.198   -13732617.431 6 -10633823.137 6
  21943149.940    -1909002.919 3  -1113958.408 3
  19357623.284   -22237540.193 6 -17164777.404 7
  17893594.386   -26364534.760 7 -20487516.872 8
  19552638.237   -21013986.463 6 -16049958.103 6
 94  2 14 19 52 29.9910000  0  7 27 18 14 28 22 29 19
  21975788.284    -2697074.335 3  -1152465.055 2
  18373310.800   -30859130.261 7 -23956669.015 7
  18936118.097   -13697535.081 6 -10606486.301 6
  21920648.042    -2027255.364 3  -1206102.864 2
  19360650.339   -22221620.351 6 -17152372.376 7
  17883348.612   -26418386.583 7 -20529479.345 8
  19531582.464   -21124629.948 6 -16136173.755 6
 94  2 14 19 52 59.9910000  0  7 27 18 14 28 22 29 19
  21950322.690    -2830887.864 3  -1256735.230 2
  18353185.042   -30964891.988 7 -24039080.716 7
  18942864.644   -13662071.708 6 -10578852.567 6
  21898172.370    -2145352.551 3  -1298126.384 3
  19363766.167   -22205260.273 6 -17139624.321 7
  17873156.730   -26471943.927 7 -20571212.353 7
  19510570.909   -21235052.030 6 -16222216.886 6
 94  2 14 19 53 29.9910000  0  7 27 18 14 28 22 29 19
  21924876.417    -2964616.999 3  -1360939.675 2
  18333104.261   -31070419.681 7 -24121310.060 7
  18949683.339   -13626249.382 6 -10550939.137 6
  21875725.839    -2263303.530 3  -1390036.013 2
  19366962.667   -22188456.694 6 -17126530.674 6
  17863021.925   -26525205.375 7 -20612714.789 7
  19489600.980   -21345246.949 6 -16308083.022 6
 94  2 14 19 53 59.9910000  0  7 27 18 14 28 22 29 19
  21899435.058    -3098272.370 3  -1465086.655 2
  18313059.058   -31175758.350 7 -24203392.109 7
  18956565.558   -13590085.178 6 -10522759.299 6
  21853306.144    -2381130.700 3  -1481849.167 1
  19370242.808   -22171219.733 6 -17113099.325 6
  17852939.823   -26578180.297 7 -20653993.959 7
  19468671.237   -21455235.439 6 -16393788.297 6
 94  2 14 19 54 29.9900000  0  7 27 18 14 28 22 29 19
  21874024.959    -3231837.459 3  -1569163.255 1
  18293046.787   -31280917.593 7 -24285334.350 7
  18963508.662   -13553588.764 6 -10494320.592 6
  21830914.233    -2498825.319 4  -1573559.060 2
  19373604.897   -22153553.940 6 -17099333.833 6
  17842915.162   -26630860.429 7 -20695043.418 7
  19447781.264   -21565009.828 6 -16479326.752 6
 94  2 14 19 54 59.9900000  0  7 27 18 14 28 22 29 19
  21848621.787    -3365328.614 3  -1673182.248 1
  18273068.678   -31385906.620 7 -24367143.964 7
  18970514.881   -13516772.098 6 -10465632.334 6
  21808538.545    -2616396.764 4  -1665172.951 2
  19377046.592   -22135471.822 6 -17085243.927 6
  17832945.131   -26683260.271 7 -20735874.472 7
  19426930.420   -21674588.853 6 -16564712.977 6
 94  2 14 19 55 29.9900000  0  7 27 18 14 28 22 29 19
  21823234.147    -3498751.092 3  -1777147.698 2
  18253123.701   -31490719.723 7 -24448816.494 7
  18977585.795   -13479624.179 6 -10436685.978 6
  21786193.326    -2733824.260 4  -1756674.723 2
  19380564.537   -22116983.586 6 -17070837.569 6
  17823024.693   -26735379.018 7 -20776486.487 8
  19406113.389   -21783973.082 6 -16649947.418 6
 94  2 14 19 55 59.9900000  0  7 27 18 14 28 22 29 19
  21797855.350    -3632106.880 3  -1881061.168 1
  18233208.959   -31595367.818 7 -24530360.446 7
  18984714.732   -13442154.514 6 -10407488.897 6
  21763870.264    -2851111.200 3  -1848066.958 2
  19384153.514   -22098123.081 6 -17056141.129 6
  17813157.725   -26787243.481 7 -20816900.359 8
  19385332.240   -21893180.494 6 -16735044.079 6
 94  2 14 19 56 29.9900000  0  7 27 18 14 28 22 29 19
  21772494.592    -3765381.493 3  -1984911.405 1
  18213330.428   -31699838.620 7 -24611766.248 7
  18991908.545   -13404350.229 6 -10378031.070 6
  21741578.936    -2968254.254 3  -1939347.100 2
  19387813.092   -22078888.293 6 -17041153.038 6
  17803335.022   -26838857.261 7 -20857118.892 7
  19364583.678   -22002215.248 6 -16820006.196 6
 94  2 14 19 56 59.9900000  0  7 27 18 14 28 22 29 19
  21747148.451    -3898593.146 3  -2088712.560 1
  18193483.428   -31804131.906 7 -24693033.729 7
  18999164.506   -13366227.628 6 -10348325.205 6
  21719313.467    -3085273.085 3  -2030530.474 2
  19391541.475   -22059292.612 6 -17025883.741 6
  17793559.850   -26890226.402 7 -20897146.796 7
  19343865.272   -22111089.618 6 -16904843.350 6
 94  2 14 19 57 29.9900000  0  7 27 18 14 28 22 29 19
  21721807.983    -4031734.162 3  -2192458.666 1
  18173670.920   -31908251.505 7 -24774165.874 7
  19006476.928   -13327798.524 6 -10318380.515 6
  21697069.545    -3202172.672 4  -2121620.914 4
  19395339.490   -22039337.253 6 -17010334.174 6
  17783831.428   -26941349.351 7 -20936982.870 7
  19323177.826   -22219797.927 6 -16989551.111 6
 94  2 14 19 57 59.9900000  0  7 27 18 14 28 22 29 19
  21696485.897    -4164796.067 3  -2296143.123 2
  18153890.350   -32012198.762 7 -24855163.725 7
  19013843.951   -13289079.416 6 -10288209.838 6
  21674844.897    -3318954.574 4  -2212619.650 3
  19399205.147   -22019018.679 6 -16994501.585 6
  17774150.857   -26992221.808 7 -20976623.746 7
  19302525.670   -22328325.671 6 -17074118.161 6
 94  2 14 19 58 29.9900000  0  7 27 18 14 28 22 29 19
  21671177.662    -4297796.939 3  -2399779.994 2
  18134142.568   -32115971.529 7 -24936025.609 7
  19021263.381   -13250091.303 6 -10257829.544 6
  21652643.732    -3435612.636 4  -2303521.900 3
  19403143.740   -21998328.167 6 -16978379.165 6
  17764520.272   -27042821.971 7 -21016052.448 7
  19281908.443   -22436664.983 6 -17158538.373 6
 94  2 14 19 58 59.9900000  0  7 27 18 14 28 22 29 19
  21645883.451    -4430723.217 3  -2503358.791 1
  18114436.615   -32219530.685 7 -25016721.061 7
  19028737.420   -13210817.692 6 -10227226.801 6
  21630475.811    -3552113.721 4  -2394301.826 2
  19407154.545   -21977251.104 6 -16961955.551 6
  17754948.982   -27093128.981 7 -21055252.731 7
  19261333.459   -22544780.135 6 -17242783.928 6
 94  2 14 19 59 29.9900000  0  7 27 18 14 28 22 29 19
  21620599.732    -4563588.752 3  -2606890.225 2
  18094768.709   -32322885.723 7 -25097257.404 7
  19036267.545   -13171254.187 6 -10196398.113 6
  21608336.592    -3668456.810 4  -2484958.576 2
  19411236.068   -21955797.149 6 -16945238.211 6
  17745428.818   -27143153.661 7 -21094232.963 7
  19240799.654   -22652685.447 6 -17326865.917 6
 94  2 14 19 59 59.9900000  0  7 27 18 14 28 22 29 19
  21595324.818    -4696407.011 3  -2710384.882 2
  18075142.029   -32426023.724 7 -25177624.703 7
  19043853.467   -13131394.698 6 -10165338.866 6
  21586226.045    -3784647.572 4  -2575496.730 4
  19415391.389   -21933959.399 6 -16928221.886 6
  17735964.951   -27192888.024 7 -21132987.052 8
  19220305.342   -22760386.513 6 -17410788.826 6
 94  2 14 20  0 29.9900000  0  7 27 18 14 28 22 29 19
  21570061.240    -4829161.330 3  -2813829.646 1
  18055562.068   -32528916.893 7 -25257801.170 7
  19051497.857   -13091206.964 6 -10134023.785 6
  21564148.592    -3900662.460 4  -2665897.776 3
  19419625.139   -21911719.318 6 -16910892.004 6
  17726558.576   -27242321.437 7 -21171506.584 7
  19199851.795   -22867869.064 6 -17494541.409 6
 94  2 14 20  0 59.9900000  0  7 27 18 14 28 22 29 19
  21544814.178    -4961838.929 3  -2917214.694 2
  18036028.568   -32631567.129 7 -25337788.370 7
  19059213.037   -13050674.344 6 -10102439.987 6
  21542102.943    -4016512.116 4  -2756170.135 3
  19423931.514   -21889083.862 6 -16893254.055 6
  17717208.834   -27291459.408 7 -21209795.940 7
  19179438.240   -22975145.083 6 -17578133.085 6
 94  2 14 20  1 29.9900000  0  7 27 18 14 28 22 29 19
  21519582.506    -5094433.864 3  -3020535.266 2
  18016538.029   -32733989.682 7 -25417598.114 7
  19066990.162   -13009809.194 6 -10070597.039 5
  21520088.482    -4132195.358 5  -2846312.763 1
  19428314.053   -21866055.988 6 -16875310.288 6
  17707915.709   -27340288.442 7 -21247844.520 7
  19159061.475   -23082225.237 6 -17661572.102 6
 94  2 14 20  1 59.9900000  0  7 27 18 14 28 22 29 19
  21494370.951    -5226931.135 3  -3123779.830 2
  17997093.412   -32836181.688 7 -25497228.263 7
  19074825.365   -12968631.468 6 -10038510.584 6
  21498109.826    -4247692.574 4  -2936310.519 2
  19432769.123   -21842641.939 6 -16857065.666 6
  17698681.553   -27388810.769 7 -21285654.167 7
  19138723.928   -23189096.777 6 -17744848.603 6
 94  2 14 20  2 29.9900000  0  7 27 18 14 28 22 29 19
  21469176.920    -5359312.491 3  -3226934.060 2
  17977687.514   -32938151.947 7 -25576685.598 7
  19082718.107   -12927151.825 6 -10006188.837 6
  21476171.803    -4362991.174 4  -3026153.458 3
  19437294.936   -21818855.327 6 -16838530.698 6
  17689506.740   -27437024.893 7 -21323223.631 8
  19118428.389   -23295761.083 6 -17827963.601 6
 94  2 14 20  2 59.9900000  0  7 27 18 14 28 22 29 19
  21444013.084    -5491569.748 4  -3329991.585 2
  17958326.701   -33039889.607 7 -25655961.674 7
  19090668.373   -12885374.743 6  -9973635.319 6
  21454269.404    -4478082.328 4  -3115834.725 2
  19441895.115   -21794690.318 6 -16819700.862 6
  17680393.561   -27484917.063 7 -21360542.206 8
  19098172.365   -23402214.496 6 -17910914.264 6
 94  2 14 20  3 29.9900000  0  7 27 18 14 28 22 29 19
  21418867.186    -5623704.359 3  -3432953.520 1
  17939011.022   -33141396.668 7 -25735058.066 7
  19098671.397   -12843314.648 6  -9940861.267 5
  21432408.678    -4592955.214 4  -3205345.913 3
  19446566.068   -21770144.807 6 -16800574.530 6
  17671339.428   -27532498.777 7 -21397618.869 7
  19077954.318   -23508456.125 6 -17993699.896 6
 94  2 14 20  3 59.9900000  0  7 27 18 14 28 22 29 19
  21393745.201    -5755721.924 3  -3535824.291 2
  17919736.967   -33242674.487 7 -25813975.862 7
  19106731.623   -12800968.476 6  -9907864.336 6
  21410588.186    -4707619.858 4  -3294694.861 2
  19451309.475   -21745213.548 6 -16781147.638 6
  17662341.576   -27579783.970 7 -21434464.507 8
  19057776.537   -23614496.762 6 -18076328.932 6
 94  2 14 20  4 29.9900000  0  7 27 18 14 28 22 29 19
  21368647.865    -5887614.926 3  -3638597.993 3
  17900512.272   -33343702.400 7 -25892698.904 7
  19114849.225   -12758306.677 6  -9874621.430 5
  21388810.873    -4822079.977 5  -3383884.408 4
  19456131.068   -21719882.679 6 -16761409.357 6
  17653402.920   -27626753.340 7 -21471064.020 7
  19037636.857   -23720330.535 6 -18158796.762 6
 94  2 14 20  4 59.9900000  0  7 27 18 14 28 22 29 19
  21343570.858    -6019387.201 3  -3741277.594 3
  17881338.709   -33444463.603 7 -25971214.121 7
  19123028.631   -12715311.060 6  -9841118.414 5
  21367068.787    -4936319.872 4  -3472902.347 3
  19461027.365   -21694147.091 6 -16741355.705 6
  17644528.131   -27673399.335 7 -21507411.569 7
  19017539.725   -23825939.928 6 -18241089.759 6
 94  2 14 20  5 29.9900000  0  7 27 18 14 28 22 29 19
  21318519.779    -6151038.945 3  -3843863.291 2
  17862215.201   -33544961.982 7 -26049524.536 7
  19131272.162   -12671987.485 6  -9807359.840 5
  21345373.678    -5050332.317 5  -3561743.049 3
  19466000.256   -21668017.018 6 -16720994.660 6
  17635713.756   -27719716.934 7 -21543503.211 7
  18997486.068   -23931316.236 6 -18323201.119 6
 94  2 14 20  5 59.9900000  0  7 27 18 14 28 22 29 19
  21293483.475    -6282587.963 3  -3946368.905 1
  17843141.631   -33645195.510 7 -26127628.577 6
  19139579.318   -12628335.980 6  -9773345.740 5
  21323722.397    -5164116.489 4  -3650405.897 2
  19471047.217   -21641502.321 6 -16700333.915 6
  17626964.389   -27765692.057 7 -21579327.987 7
  18977480.428   -24036442.803 6 -18405117.884 5
 94  2 14 20  6 29.9900000  0  8 27 18 14 28 22 29 19 31
  21268472.975    -6414036.374 3  -4048796.134 2
  17824119.811   -33745154.395 7 -26205518.600 6
  19147951.561   -12584357.601 6  -9739076.941 5
  21302114.701    -5277659.019 4  -3738880.464 2
  19476161.475   -21614622.053 6 -16679388.308 5
  17618283.865   -27811305.733 7 -21614871.115 6
  18957528.639   -24141297.315 6 -18486822.657 5
  21654690.365     -136042.749 3
 94  2 14 20  6 59.9900000  0  8 27 18 14 28 22 29 19 31
  21243472.209    -6545395.302 3  -4151153.555 1
  17805148.522   -33844842.635 7 -26283197.736 6
  19156377.279   -12540079.168 6  -9704574.312 5
  21280553.686    -5390956.361 5  -3827163.939 2
  19481343.779   -21587382.403 6 -16658162.659 5
  17609670.990   -27856562.926 7 -21650136.467 6
  18937627.881   -24245884.962 6 -18568319.476 5
  21628793.217     -272133.788 2
 94  2 14 20  7 29.9900000  0  8 27 18 14 28 22 29 19 31
  21218488.154    -6676690.835 3  -4253461.610 1
  17786225.068   -33944278.503 7 -26360680.226 7
  19164852.467   -12495541.178 6  -9669869.462 5
  21259035.584    -5504035.757 5  -3915277.647 2
  19486593.139   -21559801.443 6 -16636671.071 6
  17601121.514   -27901496.199 7 -21685149.420 7
  18917770.850   -24350236.679 6 -18649632.466 5
  21602881.389     -408275.617 3
 94  2 14 20  7 59.9900000  0  8 27 18 14 28 22 29 19 31
  21193515.686    -6807914.735 3  -4355713.820 1
  17767356.795   -34043449.080 7 -26437955.966 6
  19173376.811   -12450740.767 6  -9634960.102 4
  21237558.045    -5616898.727 5  -4003222.699 2
  19491904.342   -21531888.406 6 -16614920.697 5
  17592632.045   -27946109.333 7 -21719912.895 6
  18897953.076   -24454369.573 6 -18730774.912 5
  21576966.717     -544466.117 3        -0.00911
 94  2 14 20  8 29.9900000  0  8 27 18 14 28 22 29 19 31
  21168565.701    -6939026.793 3  -4457878.907 1
  17748539.193   -34142340.312 7 -26515014.073 6
  19181949.467   -12405687.568 6  -9599853.810 5
  21216123.217    -5729540.053 5  -4090995.089 1
  19497281.100   -21503637.026 6 -16592906.710 5
  17584202.803   -27990408.106 7 -21754431.470 6
  18878173.443   -24558304.988 6 -18811763.527 5
  21551041.443     -680705.301 3   -106160.120 1
 94  2 14 20  8 59.9900000  0  8 27 18 14 28 22 29 19 31
  21143641.170    -7070017.472 3  -4559949.388 2
  17729770.037   -34240961.712 7 -26591861.872 6
  19190570.201   -12360386.781 6  -9564554.541 5
  21194733.568    -5841952.353 5  -4178589.000 2
  19502723.717   -21475038.674 6 -16570622.327 5
  17575827.936   -28034416.522 7 -21788723.733 6
  18858432.178   -24662058.105 6 -18892610.045 5
  21525107.451     -816984.979 2   -212351.699 1
 94  2 14 20  9 29.9890000  0  8 27 18 14 28 22 29 19 31
  21118739.251    -7200876.105 4  -4661916.992 1
  17711051.079   -34339328.515 7 -26668511.308 6
  19199239.564   -12314826.735 6  -9529053.275 5
  21173383.235    -5954127.189 5  -4265997.920 1
  19508231.423   -21446097.814 6 -16548071.063 5
  17567509.392   -28078133.813 7 -21822789.174 6
  18838722.720   -24765626.898 6 -18973312.964 5
  21499168.548     -953292.537 2   -318565.005 1
 94  2 14 20  9 59.9890000  0  8 27 18 14 28 22 29 19 31
  21093858.251    -7331620.373 3  -4763795.504 2
  17692376.025   -34437470.762 7 -26744985.775 7
  19207960.009   -12269005.488 6  -9493348.504 5
  21152079.962    -6066083.263 5  -4353236.393 3
  19513801.087   -21416821.744 6 -16525258.623 5
  17559245.220   -28121559.088 7 -21856627.080 7
  18819043.017   -24869030.169 6 -19053886.911 6
  21473216.360    -1089671.732 3   -424834.135 1
 94  2 14 20 10 29.9890000  0  8 27 18 14 28 22 29 19 31
  21068996.415    -7462261.051 4  -4865593.275 2
  17673741.931   -34535387.947 7 -26821284.850 7
  19216729.001   -12222922.619 6  -9457439.822 5
  21130816.790    -6177812.322 5  -4440297.942 2
  19519438.907   -21387195.814 6 -16502173.520 6
  17551039.157   -28164681.832 7 -21890229.227 7
  18799405.681   -24972244.608 6 -19134313.686 6
  21447255.368    -1226107.363 3   -531147.167 2
 94  2 14 20 10 59.9890000  0  8 27 18 14 28 22 29 19 31
  21044150.540    -7592824.492 4  -4967330.945 2
  17655154.907   -34633072.174 7 -26897402.435 7
  19225551.767   -12176560.854 6  -9421313.873 5
  21109601.204    -6289304.152 5  -4527174.693 2
  19525143.540   -21357220.572 6 -16478816.253 6
  17542894.298   -28207483.534 7 -21923581.239 7
  18779802.899   -25075244.630 6 -19214573.414 6
  21421284.954    -1362585.616 3   -637493.483 1
 94  2 14 20 11 29.9890000  0  8 27 18 14 28 22 29 19 31
  21019324.884    -7723304.320 4  -5069003.413 2
  17636614.071   -34730496.917 7 -26973317.754 7
  19234427.228   -12129922.464 6  -9384972.310 5
  21088428.376    -6400565.031 5  -4613871.386 4
  19530913.525   -21326895.579 6 -16455186.385 6
  17534815.665   -28249935.367 7 -21956660.563 7
  18760247.540   -25178026.675 6 -19294663.224 6
  21395304.298    -1499104.025 3   -743871.052 1
 94  2 14 20 11 59.9890000  0  8 27 18 14 28 22 29 19 31
  20994516.189    -7853683.278 4  -5170597.396 3
  17618134.501   -34827621.325 7 -27048999.131 7
  19243352.095   -12083008.333 6  -9348415.957 5
  21067307.275    -6511577.625 5  -4700374.706 2
  19536752.868   -21296216.511 6 -16431280.694 6
  17526809.423   -28292010.134 7 -21989446.160 7
  18740727.782   -25280573.509 6 -19374569.835 6
  21369322.774    -1635632.721 3   -850256.700 1
 94  2 14 20 12 29.9890000  0  8 27 18 14 28 22 29 19 31
  20969722.407    -7983962.906 4  -5272113.912 2
  17599709.282   -34924435.775 7 -27124438.906 7
  19252330.923   -12035837.237 6  -9311659.295 5
  21046228.360    -6622331.399 5  -4786676.270 2
  19542652.001   -21265205.485 6 -16407116.260 6
  17518871.876   -28333722.227 7 -22021949.070 7
  18721261.829   -25382887.742 6 -19454295.120 6
  21343342.774    -1772153.716 3   -956636.305 1
 94  2 14 20 12 59.9890000  0  8 27 18 14 28 22 29 19 31
  20944954.118    -8114132.910 4  -5373545.105 3
  17581342.025   -35020960.382 7 -27199652.906 7
  19261352.493   -11988425.603 6  -9274715.283 6
  21025204.876    -6732823.566 5  -4872774.056 4
  19548615.165   -21233871.666 6 -16382700.368 6
  17511000.025   -28375090.434 7 -22054184.093 7
  18701831.845   -25484989.437 6 -19533854.880 6
  21317362.626    -1908683.174 3  -1063022.606 2
 94  2 14 20 13 29.9890000  0  8 27 18 14 28 22 29 19 31
  20920195.314    -8244202.149 4  -5474897.712 2
  17563022.587   -35117225.731 7 -27274664.807 7
  19270418.806   -11940793.557 6  -9237599.435 5
  21004222.251    -6843059.476 5  -4958672.088 4
  19554637.548   -21202228.386 6 -16358043.266 6
  17503188.853   -28416137.110 7 -22086168.486 7
  18682436.595   -25586905.465 6 -19613269.865 6
  21291374.876    -2045232.339 3  -1169424.211 1
 94  2 14 20 13 59.9890000  0  8 27 18 14 28 22 29 19 31
  20895466.790    -8374179.203 5  -5576178.568 2
  17544751.689   -35213240.607 7 -27349481.619 7
  19279524.501   -11892931.483 6  -9200304.436 6
  20983302.618    -6953014.014 5  -5044350.943 4
  19560719.790   -21170270.206 6 -16333140.866 6
  17495437.845   -28456868.515 7 -22117907.280 7
  18663085.110   -25688614.673 6 -19692523.786 6
  21265393.532    -2181784.394 3  -1275828.101 1
 94  2 14 20 14 29.9890000  0  8 27 18 14 28 22 29 19 31
  20870747.157    -8504078.205 4  -5677398.598 3
  17526524.149   -35309025.976 7 -27424119.566 7
  19288674.868   -11844846.190 6  -9162835.455 6
  20962433.110    -7062690.913 5  -5129813.418 4
  19566859.251   -21138005.266 6 -16307999.393 6
  17487742.790   -28497308.226 7 -22149418.763 7
  18643766.282   -25790135.228 6 -19771630.680 6
  21239405.876    -2318363.027 3  -1382252.753 1
 94  2 14 20 14 59.9890000  0  8 27 18 14 28 22 29 19 31
  20846045.985    -8633908.347 4  -5778564.897 3
  17508339.618   -35404592.834 7 -27498587.208 7
  19297869.150   -11796532.884 6  -9125188.763 5
  20941612.353    -7172109.218 5  -5215074.323 3
  19573058.407   -21105424.963 6 -16282612.166 5
  17480102.595   -28537455.784 7 -22180702.551 7
  18624479.532   -25891469.136 6 -19850592.088 6
  21213405.048    -2454984.524 3  -1488710.791 1
 94  2 14 20 15 29.9890000  0  8 27 18 14 28 22 29 19 31
  20821351.275    -8763666.781 4  -5879675.400 4
  17490201.868   -35499902.149 7 -27572854.233 7
  19307108.243   -11747986.470 6  -9087360.514 5
  20920837.650    -7281267.008 5  -5300132.283 4
  19579315.923   -21072535.527 6 -16256984.126 6
  17472522.376   -28577291.032 7 -22211743.054 7
  18605236.290   -25992598.132 6 -19929393.907 6
  21187403.814    -2591624.412 3  -1595183.216 2
 94  2 14 20 15 59.9890000  0  8 27 18 14 28 22 29 19 31
  20796675.618    -8893337.367 4  -5980717.392 4
  17472116.946   -35594934.589 7 -27646905.475 7
  19316391.165   -11699207.550 6  -9049351.045 5
  20900115.517    -7390172.082 5  -5384993.275 4
  19585633.735   -21039336.409 6 -16231114.743 6
  17465001.790   -28616813.783 7 -22242540.006 7
  18586033.735   -26093515.339 6 -20008030.654 6
  21161401.321    -2728270.580 3  -1701660.516 2
 94  2 14 20 16 29.9890000  0  8 27 18 14 28 22 29 19 31
  20772016.681    -9022902.889 4  -6081677.515 3
  17454085.321   -35689690.038 7 -27720740.885 7
  19325715.275   -11650206.204 6  -9011168.263 5
  20879436.860    -7498844.990 5  -5469673.375 4
  19592010.110   -21005831.919 6 -16205007.429 5
  17457540.064   -28656026.902 7 -22273095.708 7
  18566867.814   -26194238.053 6 -20086515.859 6
  21135395.532    -2864928.430 3  -1808146.943 2
 94  2 14 20 16 59.9890000  0  8 27 18 14 28 22 29 19 31
  20747384.556    -9152364.631 5  -6182556.755 2
  17436106.798   -35784165.573 7 -27794358.156 7
  19335080.196   -11600995.193 6  -8972822.089 5
  20858799.900    -7607296.915 5  -5554181.240 3
  19598442.048   -20972035.177 6 -16178672.359 5
  17450135.798   -28694932.164 7 -22303411.489 7
  18547738.384   -26294767.443 6 -20164850.386 6
  21109391.759    -3001585.056 3  -1914632.350 1
 94  2 14 20 17 29.9890000  0  8 27 18 14 28 22 29 19 31
  20722769.446    -9281710.293 4  -6283345.573 2
  17418184.267   -35878348.215 7 -27867747.237 7
  19344484.525   -11551574.485 6  -8934312.565 5
  20838206.142    -7715503.686 5  -5638498.121 4
  19604927.150   -20937955.442 6 -16152116.833 6
  17442795.009   -28733511.282 7 -22333473.187 7
  18528642.657   -26395110.585 6 -20243039.857 6
  21083389.423    -3138217.377 3  -2021098.932 1
 94  2 14 20 17 59.9890000  0  8 27 18 14 28 22 29 19 31
  20698177.204    -9410944.693 4  -6384047.647 2
  17400313.532   -35972257.042 7 -27940922.923 7
  19353931.259   -11501938.268 6  -8895635.078 5
  20817665.587    -7823458.793 5  -5722618.862 3
  19611465.571   -20903595.811 6 -16125343.170 5
  17435516.829   -28771760.389 7 -22363277.692 7
  18509581.548   -26495279.106 6 -20321093.216 6
  21057391.204    -3274839.616 3  -2127557.562 2
 94  2 14 20 18 29.9890000  0  8 27 18 14 28 22 29 19 31
  20673599.415    -9540090.754 5  -6484680.872 2
  17382498.728   -36065883.664 7 -28013878.716 7
  19363414.657   -11452088.467 6  -8856791.169 5
  20797171.454    -7931157.099 5  -5806539.505 4
  19618055.517   -20868966.368 6 -16098359.273 5
  17428302.876   -28809667.672 7 -22392815.859 7
  18490550.603   -26595281.167 6 -20399016.881 6
  21031393.095    -3411470.885 3  -2234023.265 1
 94  2 14 20 18 59.9890000  0  8 27 18 14 28 22 29 19 31
  20649037.853    -9669179.069 5  -6585269.113 2
  17364736.970   -36159231.351 7 -28086617.143 7
  19372938.524   -11402027.843 6  -8817782.971 5
  20776724.774    -8038589.991 5  -5890253.334 4
  19624694.071   -20834080.243 6 -16071175.361 5
  17421154.329   -28847235.441 7 -22422089.463 7
  18471549.017   -26695122.645 6 -20476815.403 6
  21005387.814    -3548120.615 4  -2340503.365 1
 94  2 14 20 19 29.9890000  0  8 27 18 14 28 22 29 19 31
  20624485.790    -9798199.822 5  -6685804.633 4
  17347027.298   -36252290.535 7 -28159130.727 7
  19382509.243   -11351739.539 6  -8778597.331 5
  20756334.814    -8145731.200 5  -5973739.835 2
  19631386.431   -20798918.355 6 -16043776.525 5
  17414074.009   -28884443.015 7 -22451082.362 7
  18452584.774   -26794782.996 6 -20554472.751 6
  20979385.501    -3684776.107 4  -2446987.919 1
 94  2 14 20 19 59.9890000  0  8 27 18 14 28 22 29 19 31
  20599945.774    -9927163.781 5  -6786295.939 3
  17329370.290   -36345070.412 7 -28231426.701 7
  19392121.946   -11301238.189 6  -8739245.733 5
  20736001.821    -8252589.243 5  -6057005.740 4
  19638129.806   -20763476.847 6 -16016159.848 5
  17407055.431   -28921320.849 7 -22479818.362 7
  18433659.696   -26894247.332 6 -20631977.388 6
  20953371.134    -3821447.486 4  -2553484.892 1
 94  2 14 20 20 29.9890000  0  8 27 18 14 28 22 29 19 31
  20575414.423   -10056054.066 5  -6886729.871 4
  17311773.900   -36437553.602 7 -28303491.525 7
  19401774.845   -11250516.179 5  -8699722.215 5
  20715724.962    -8359138.762 5  -6140031.270 4
  19644931.829   -20727730.182 6 -15988305.412 6
  17400104.165   -28957861.817 7 -22508291.895 7
  18414772.032   -26993486.658 6 -20709306.740 6
  20927370.790    -3958091.498 4  -2659960.611 3
 94  2 14 20 20 59.9890000  0  8 27 18 14 28 22 29 19 31
  20550909.626   -10184835.082 5  -6987078.588 4
  17294227.314   -36529747.955 7 -28375331.194 7
  19411467.142   -11199564.348 5  -8660019.555 5
  20695514.423    -8465357.684 5  -6222799.120 4
  19651795.548   -20691662.043 6 -15960200.394 5
  17393212.876   -28994065.494 7 -22536502.521 7
  18395938.306   -27092477.108 6 -20786442.077 6
  20901379.337    -4094680.433 5  -2766393.320 1
 94  2 14 20 21 29.9890000  0  8 27 18 14 28 22 29 19 31
  20526427.524   -10313487.107 5  -7087326.882 3
  17276741.009   -36621646.192 7 -28446940.209 7
  19421205.126   -11148392.902 5  -8620145.836 5
  20675366.853    -8571247.822 5  -6305310.857 4
  19658719.017   -20655280.820 6 -15931851.483 5
  17386386.509   -29029939.759 7 -22564456.549 7
  18377149.329   -27191212.710 6 -20863378.910 6
  20875399.275    -4231212.593 5  -2872781.913 2
 94  2 14 20 21 59.9890000  0  8 27 18 14 28 22 29 19 31
  20501966.423   -10442026.781 5  -7187487.610 1
  17259305.415   -36713268.773 7 -28518334.388 7
  19430983.056   -11097030.056 5  -8580122.944 5
  20655271.071    -8676842.574 5  -6387592.408 5
  19665695.165   -20618620.740 6 -15903285.249 5
  17379618.564   -29065505.578 7 -22592170.179 7
  18358405.040   -27289709.694 6 -20940129.773 6
  20849423.103    -4367710.498 5  -2979143.757 1
 94  2 14 20 22 29.9890000  0  8 27 18 14 28 22 29 19 31
  20477529.329   -10570442.204 5  -7287551.508 2
  17241923.782   -36804607.951 7 -28589507.745 7
  19440793.501   -11045469.451 6  -8539945.950 5
  20635233.056    -8782136.527 5  -6469639.549 4
  19672722.696   -20581696.783 6 -15874513.395 5
  17372916.399   -29100726.911 7 -22619615.384 7
  18339705.196   -27387973.489 6 -21016698.928 6
  20823459.274    -4504167.917 5  -3085474.064 1
 94  2 14 20 22 59.9890000  0  8 27 18 14 28 22 29 19 31
  20453123.790   -10698710.604 5  -7387500.859 3
  17224600.876   -36895634.059 7 -28660437.143 7
  19450642.110   -10993710.132 5  -8499614.105 5
  20615257.392    -8887111.446 5  -6551438.113 5
  19679797.806   -20544506.780 6 -15845534.247 5
  17366283.157   -29135584.393 7 -22646777.073 7
  18321052.368   -27485999.818 6 -21093083.054 6
  20797500.728    -4640571.851 5  -3191762.699 1
 94  2 14 20 23 29.9890000  0  8 27 18 14 28 22 29 19 31
  20428740.751   -10826846.986 5  -7487347.352 3
  17207343.728   -36986335.266 7 -28731113.386 7
  19460527.814   -10941766.712 5  -8459138.817 4
  20595340.790    -8991775.730 5  -6632994.601 2
  19686925.032   -20507058.961 6 -15816354.193 5
  17359719.954   -29170068.534 7 -22673647.844 7
  18302440.079   -27583797.926 6 -21169289.339 6
  20771556.267    -4776905.201 5  -3297996.321 1
 94  2 14 20 23 59.9890000  0  8 27 18 14 28 22 29 19 31
  20404379.665   -10954850.744 5  -7587090.490 3
  17190145.103   -37076698.806 7 -28801526.514 7
  19470450.439   -10889621.003 5  -8418505.915 4
  20575483.407    -9096111.748 5  -6714295.306 4
  19694107.735   -20469326.023 6 -15786951.968 5
  17353233.923   -29204155.870 7 -22700209.420 7
  18283877.407   -27681363.647 6 -21245314.546 6
  20745631.587    -4913138.476 4  -3404151.988 1
 94  2 14 20 24 29.9880000  0  8 27 18 14 28 22 29 19 31
  20380044.887   -11082726.251 5  -7686733.700 3
  17173016.621   -37166714.891 7 -28871668.893 7
  19480410.520   -10837276.466 5  -8377718.071 2
  20555694.285    -9200097.488 5  -6795323.082 4
  19701342.887   -20431290.781 6 -15757314.172 5
  17346823.926   -29237843.404 7 -22726459.460 7
  18265349.410   -27778718.120 6 -21321175.148 6
  20719730.137    -5049257.817 4  -3510218.866 2
 94  2 14 20 24 59.9880000  0  8 27 18 14 28 22 29 19 31
  20355733.481   -11210497.794 5  -7786295.893 2
  17155952.902   -37256395.209 7 -28941549.641 7
  19490408.441   -10784744.310 5  -8336784.044 3
  20535969.942    -9303750.999 5  -6876091.952 3
  19708640.332   -20392949.778 6 -15727438.136 5
  17340484.809   -29271159.880 7 -22752420.363 6
  18246858.652   -27875882.827 6 -21396887.884 6
  20693843.574    -5185286.277 5  -3616214.968 2
 94  2 14 20 25 29.9880000  0  8 27 18 14 28 22 29 19 31
  20331439.051   -11338167.356 4  -7885778.581 2
  17138949.918   -37345741.424 7 -29011170.053 6
  19500443.316   -10732012.358 5  -8295694.323 4
  20516310.066    -9407068.674 5  -6956599.137 2
  19715996.606   -20354290.043 6 -15697313.736 5
  17334216.715   -29304095.951 7 -22778084.849 6
  18228406.613   -27972835.231 6 -21472435.195 6
  20667974.973    -5321230.326 5  -3722145.307 1
 94  2 14 20 25 59.9880000  0  8 27 18 14 28 22 29 19 31
  20307165.746   -11465717.205 5  -7985168.017 2
  17122014.863   -37434743.397 7 -29080522.227 6
  19510518.395   -10679068.707 5  -8254439.642 4
  20496722.895    -9510011.568 5  -7036814.282 3
  19723414.481   -20315312.890 6 -15666942.004 4
  17328023.949   -29336639.386 7 -22803443.388 6
  18210000.668   -28069568.330 6 -21547811.607 6
  20642117.543    -5457103.414 5  -3828020.339 1
 94  2 14 20 26 29.9880000  0  8 27 18 14 28 22 29 19 31
  20282916.223   -11593146.811 5  -8084463.737 2
  17105139.996   -37523413.916 7 -29149616.118 6
  19520627.887   -10625930.984 5  -8213033.739 2
  20477203.731    -9612579.050 5  -7116736.875 2
  19730885.340   -20276046.829 6 -15636345.150 5
  17321905.168   -29368791.120 7 -22828496.708 6
  18191634.285   -28166088.852 6 -21623022.382 6
  20616273.215    -5592915.402 5  -3933847.811 1
 94  2 14 20 26 59.9880000  0  8 27 18 14 28 22 29 19 31
  20258691.488   -11720461.591 5  -8183669.964 2
  17088325.223   -37611772.452 7 -29218466.925 6
  19530773.527   -10572620.227 5  -8171493.029 4
  20457752.051    -9714789.205 5  -7196381.020 2
  19738405.332   -20236529.118 6 -15605552.204 5
  17315855.973   -29400578.427 7 -22853266.048 6
  18173309.332   -28262395.421 6 -21698066.441 6
  20590437.137    -5728678.655 5  -4039637.336 1
 94  2 14 20 27 29.9880000  0  8 27 18 14 28 22 29 19 31
  20234485.410   -11847655.693 5  -8282782.157 2
  17071571.215   -37699814.276 7 -29287070.936 6
  19540949.512   -10519141.091 5  -8129821.098 3
  20438375.363    -9816628.692 5  -7275736.315 2
  19745971.863   -20196774.678 5 -15574574.803 5
  17309876.777   -29432000.718 7 -22877750.966 6
  18155023.340   -28358492.352 6 -21772947.127 6
  20564616.223    -5864372.383 4  -4145372.694 1
 94  2 14 20 27 59.9880000  0  8 27 18 14 28 22 29 19 31
  20210302.449   -11974718.926 5  -8381792.341 2
  17054880.988   -37787532.132 7 -29355422.513 6
  19551161.371   -10465488.720 5  -8088014.184 4
  20419063.395    -9918101.310 5  -7354805.721 4
  19753579.824   -20156791.341 5 -15543419.043 5
  17303967.129   -29463059.362 7 -22901952.526 6
  18136770.785   -28454401.234 6 -21847681.302 6
  20538811.340    -5999975.654 5  -4251037.563 1
 94  2 14 20 28 29.9880000  0  8 27 18 14 28 22 29 19 31
  20186149.535   -12101656.300 5  -8480704.469 2
  17038252.598   -37874904.612 7 -29423504.963 6
  19561405.957   -10411654.608 5  -8046065.645 4
  20399817.184   -10019237.147 5  -7433612.686 4
  19761233.566   -20116561.893 5 -15512071.494 5
  17298125.035   -29493759.505 7 -22925874.732 6
  18118558.684   -28550110.589 6 -21922259.989 6
  20513030.856    -6135458.429 5  -4356608.499 1
 94  2 14 20 28 59.9880000  0  8 27 18 14 28 22 29 19 31
  20162014.395   -12228473.228 4  -8579522.695 2
  17021697.941   -37961911.887 7 -29491302.844 6
  19571683.723   -10357634.793 5  -8003972.414 3
  20380635.457   -10120036.866 5  -7512157.735 2
  19768938.254   -20076075.056 5 -15480523.384 5
  17292349.777   -29524106.417 6 -22949521.692 6
  18100383.801   -28645611.369 6 -21996676.151 6
  20487272.566    -6270817.734 5  -4462083.232 1
 94  2 14 20 29 29.9880000  0  8 27 18 14 28 22 29 19 31
  20137901.402   -12355193.024 5  -8678265.276 3
  17005207.895   -38048552.178 7 -29558814.765 6
  19581997.699   -10303445.085 5  -7961746.781 2
  20361514.762   -10220515.141 5  -7590452.285 2
  19776694.067   -20035333.755 5 -15448776.991 5
  17286640.902   -29554104.887 6 -22972897.142 6
  18082250.449   -28740922.373 6 -22070944.444 6
  20461538.316    -6406064.574 5  -4567470.323 1
 94  2 14 20 29 59.9880000  0  8 27 18 14 28 22 29 19 31
  20113806.551   -12481822.412 5  -8776937.368 1
  16988791.559   -38134833.538 7 -29626046.991 6
  19592341.590   -10249091.431 5  -7919393.415 3
  20342456.441   -10320683.323 5  -7668505.199 3
  19784493.074   -19994339.698 5 -15416833.643 5
  17280999.754   -29583754.710 7 -22996000.904 6
  18064146.723   -28836038.753 6 -22145061.068 6
  20435818.449    -6541213.761 5  -4672781.302 1
 94  2 14 20 30 29.9880000  0  8 27 18 14 28 22 29 19 31
  20089724.981   -12608370.909 5  -8875546.471 2
  16972437.902   -38220770.835 7 -29693011.127 6
  19602709.949   -10194593.710 5  -7876927.817 3
  20323454.262   -10420531.739 5  -7746308.921 2
  19792339.613   -19953108.477 5 -15384705.488 5
  17275423.863   -29613054.239 7 -23018831.726 6
  18046085.129   -28930951.503 6 -22219019.025 6
  20410114.035    -6676280.351 5  -4778027.901 1
 94  2 14 20 30 59.9880000  0  8 27 18 14 28 22 29 19 31
  20065666.434   -12734799.492 5  -8974062.128 4
  16956153.668   -38306348.652 7 -29759695.136 6
  19613112.379   -10139932.059 5  -7834334.447 3
  20304524.020   -10520001.250 5  -7823817.384 2
  19800233.840   -19911619.934 5 -15352376.826 4
  17269923.574   -29641964.083 7 -23041358.887 6
  18028067.934   -29025629.303 6 -22292793.915 6
  20384431.496    -6811247.707 4  -4883197.082 1
 94  2 14 20 31 29.9880000  0  8 27 18 14 28 22 29 19 31
  20041635.012   -12861090.473 5  -9072470.566 2
  16939935.863   -38391574.137 7 -29826104.606 6
  19623545.168   -10085103.872 5  -7791611.305 3
  20285669.574   -10619080.183 5  -7901021.493 1
  19808177.246   -19869879.155 5 -15319851.635 5
  17264495.973   -29670477.516 7 -23063577.151 6
  18010098.777   -29120063.519 6 -22366378.992 6
  20358768.770    -6946108.369 4  -4988283.150 1
 94  2 14 20 31 59.9880000  0  8 27 18 14 28 22 29 19 31
  20017628.762   -12987234.108 5  -9170764.208 3
  16923782.973   -38476454.141 7 -29892244.871 6
  19634015.027   -10030091.858 5  -7748744.956 2
  20266893.176   -10717751.832 5  -7977908.290 4
  19816169.199   -19827887.321 5 -15287130.790 3
  17259148.426   -29698580.298 6 -23085475.439 6
  17992178.145   -29214231.877 6 -22439756.919 6
  20333128.317    -7080853.565 5  -5093279.194 2
 94  2 14 20 32 29.9880000  0  8 27 18 14 28 22 29 19 31
  19993646.840   -13113261.636 5  -9268967.366 2
  16907694.082   -38561000.959 7 -29958125.508 6
  19644513.559    -9974918.052 5  -7705752.510 3
  20248197.512   -10816022.526 5  -8054482.650 3
  19824203.637   -19785665.820 5 -15254231.006 5
  17253875.238   -29726294.168 7 -23107070.677 6
  17974306.957   -29308149.295 6 -22512939.301 6
  20307510.160    -7215485.536 5  -5198187.012 2
 94  2 14 20 32 59.9880000  0  8 27 18 14 28 22 29 19 31
  19969683.191   -13239184.997 5  -9367089.379 3
  16891668.652   -38645214.096 7 -30023746.129 6
  19655044.020    -9919589.058 5  -7662639.160 3
  20229569.535   -10913903.109 5  -8130753.015 4
  19832279.402   -19743218.290 5 -15221155.072 4
  17248671.613   -29753637.145 7 -23128376.904 6
  17956482.043   -29401830.304 6 -22585937.472 6
  20281911.981    -7349993.415 5  -5302998.093 2
 94  2 14 20 33 29.9880000  0  8 27 18 14 28 22 29 19 31
  19945744.496   -13364984.222 5  -9465114.656 2
  16875707.035   -38729082.541 7 -30089098.137 6
  19665606.184    -9864083.759 5  -7619388.417 3
  20211020.043   -11011382.866 5  -8206711.073 3
  19840403.934   -19700529.055 5 -15187890.795 3
  17243541.707   -29780594.235 7 -23149382.418 6
  17938703.137   -29495267.495 6 -22658745.625 6
  20256345.793    -7484347.574 5  -5407689.402 1
 94  2 14 20 33 59.9880000  0  8 27 18 14 28 22 29 19 31
  19921828.934   -13490673.803 5  -9563054.534 2
  16859813.676   -38812609.384 7 -30154183.992 6
  19676196.895    -9808417.080 5  -7576011.949 2
  20192541.566   -11108478.134 5  -8282369.600 4
  19848569.527   -19657614.016 5 -15154450.570 4
  17238483.262   -29807176.481 7 -23170095.893 6
  17920960.676   -29588492.191 6 -22731388.236 6
  20230805.379    -7618558.028 5  -5512268.787 1
 94  2 14 20 34 29.9880000  0  8 27 18 14 28 22 29 19 31
  19897936.559   -13616224.899 5  -9660886.496 3
  16843991.270   -38895764.459 7 -30218980.149 6
  19686822.496    -9752594.190 5  -7532513.751 2
  20174139.348   -11205171.791 5  -8357715.204 3
  19856780.176   -19614469.145 5 -15120831.277 4
  17233498.348   -29833373.736 7 -23190509.359 6
  17903256.567   -29681516.424 6 -22803874.644 6
  20205295.816    -7752606.486 5  -5616721.895 2
 94  2 14 20 34 59.9880000  0  8 27 18 14 28 22 29 19 31
  19874071.965   -13741621.624 5  -9758598.164 2
  16828236.731   -38978549.734 7 -30283488.142 6
  19697474.160    -9696617.117 5  -7488895.411 2
  20155812.223   -11301478.971 5  -8432759.665 4
  19865035.410   -19571092.136 5 -15087031.076 4
  17228586.309   -29859186.096 7 -23210622.906 6
  17885592.973   -29774351.791 6 -22876213.876 6
  20179816.590    -7886499.453 5  -5721053.872 1
 94  2 14 20 35 29.9880000  0  8 27 18 14 28 22 29 19 31
  19850237.348   -13866880.894 5  -9856202.736 2
  16812551.981   -39060972.657 7 -30347713.788 6
  19708148.809    -9640508.017 5  -7445174.175 2
  20137555.457   -11397426.603 5  -8507523.976 2
  19873328.074   -19527511.434 5 -15053072.154 4
  17223745.160   -29884632.123 7 -23230451.000 6
  17867959.434   -29867012.788 6 -22948417.228 6
  20154362.934    -8020265.553 5  -5825286.967 1
 94  2 14 20 35 59.9880000  0  8 27 18 14 28 22 29 19 31
  19826427.410   -13991999.066 5  -9953697.369 2
  16796944.137   -39142994.859 7 -30411627.182 6
  19718854.988    -9584257.383 5  -7401342.678 2
  20119368.824   -11492998.756 5  -8581995.756 3
  19881661.902   -19483713.256 5 -15018943.775 4
  17218975.051   -29909697.563 7 -23249982.528 6
  17850365.856   -29959468.110 6 -23020460.311 6
  20128938.543    -8153880.879 5  -5929402.617 1
 94  2 14 20 36 29.9880000  0  8 27 18 14 28 22 29 19 31
  19802639.488   -14117007.019 5 -10051106.111 2
  16781407.270   -39224641.679 7 -30475248.077 6
  19729581.934    -9527889.362 5  -7357419.696 3
  20101247.637   -11588216.712 5  -8656191.560 3
  19890036.152   -19439709.125 5 -14984654.915 4
  17214274.270   -29934401.806 7 -23269232.606 6
  17832812.066   -30051711.057 6 -23092337.898 6
  20103536.879    -8287356.920 5  -6033409.736 4
 94  2 14 20 36 59.9880000  0  8 27 18 14 28 22 29 19 31
  19778871.449   -14241923.574 5 -10148443.646 2
  16765937.645   -39305935.138 7 -30538593.614 6
  19740330.184    -9471406.424 5  -7313407.187 1
  20083194.184   -11683090.325 5  -8730119.047 3
  19898449.277   -19395491.903 5 -14950200.015 3
  17209640.223   -29958752.509 7 -23288207.201 7
  17815301.223   -30143728.515 6 -23164039.792 6
  20078162.082    -8420697.826 5  -6137311.574 2
 94  2 14 20 37 29.9880000  0  8 27 18 14 28 22 29 19 31
  19755114.324   -14366745.787 5 -10245707.653 2
  16750537.145   -39386867.034 7 -30601657.411 6
  19751099.770    -9414822.667 5  -7269316.115 2
  20065215.738   -11777587.366 5  -8803753.106 2
  19906905.184   -19351064.349 5 -14915581.220 4
  17205075.770   -29982738.839 7 -23306897.859 7
  17797835.902   -30235509.939 6 -23235557.750 6
  20052811.207    -8553907.176 5  -6241110.881 1
 94  2 14 20 37 59.9880000  0  8 27 18 14 28 22 29 19 31
  19731387.020   -14491442.821 5 -10342874.108 2
  16735206.981   -39467425.219 7 -30664430.023 6
  19761889.551    -9358119.141 5  -7225131.722 1
  20047313.949   -11871658.367 5  -8877055.215 4
  19915404.926   -19306395.395 5 -14880774.338 3
  17200586.598   -30006327.383 7 -23325278.565 6
  17780418.606   -30327036.000 6 -23306876.733 6
  20027494.793    -8686962.477 5  -6344790.181 2
 94  2 14 20 38 29.9880000  0  8 27 18 14 28 22 29 19 31
  19707685.856   -14616002.945 5 -10439933.888 3
  16719944.981   -39547621.375 7 -30726920.520 6
  19772700.051    -9301306.160 5  -7180862.035 2
  20029494.957   -11965289.294 5  -8950014.391 3
  19923952.613   -19261483.068 5 -14845777.814 4
  17196174.395   -30029514.541 7 -23343346.497 6
  17763048.887   -30418324.148 6 -23378010.331 6
  20002200.324    -8819874.208 5  -6448357.626 2
 94  2 14 20 38 59.9870000  0  8 27 18 14 28 22 29 19 31
  19684011.101   -14740407.064 5 -10536872.125 2
  16704755.116   -39627440.144 7 -30789116.955 6
  19783531.374    -9244384.267 5  -7136507.485 2
  20011763.523   -12058457.223 5  -9022612.823 2
  19932545.124   -19216333.074 5 -14810596.080 4
  17191839.952   -30052295.770 7 -23361098.117 6
  17745720.015   -30509385.227 6 -23448966.986 6
  19976938.835    -8952633.946 5  -6551806.647 1
 94  2 14 20 39 29.9870000  0  8 27 18 14 28 22 29 19 31
  19660364.468   -14864669.049 5 -10633699.563 3
  16689642.187   -39706870.628 7 -30851010.831 6
  19794384.421    -9187347.330 5  -7092063.285 2
  19994122.062   -12151172.246 5  -9094858.301 2
  19941176.843   -19170962.966 5 -14775242.829 4
  17187580.218   -30074674.742 7 -23378536.299 6
  17728431.179   -30600235.329 6 -23519759.247 6
  19951702.429    -9085252.962 5  -6655146.035 1
 94  2 14 20 39 59.9870000  0  8 27 18 14 28 22 29 19 31
  19636741.796   -14988809.039 5 -10730431.939 2
  16674596.726   -39785925.489 7 -30912611.999 6
  19805265.273    -9130184.943 5  -7047521.325 2
  19976564.593   -12243460.761 5  -9166771.422 3
  19949849.069   -19125388.929 5 -14739730.679 4
  17183394.593   -30096667.405 7 -23395673.447 7
  17711182.905   -30690886.387 6 -23590396.396 6
  19926495.538    -9217710.671 5  -6758359.717 1
 94  2 14 20 40 29.9870000  0  8 27 18 14 28 22 29 19 31
  19613139.530   -15112830.610 5 -10827072.045 3
  16659628.233   -39864595.789 7 -30973913.534 6
  19816167.163    -9072886.026 5  -7002872.998 2
  19959078.257   -12335342.229 5  -9238367.399 3
  19958560.296   -19079610.383 5 -14704059.188 4
  17179284.241   -30118271.729 7 -23412508.030 6
  17693969.319   -30781333.341 6 -23660874.527 6
  19901323.038    -9349984.383 5  -6861430.054 2
 94  2 14 20 40 59.9870000  0  8 27 18 14 28 22 29 19 31
  19589559.804   -15236741.519 5 -10923625.901 3
  16644731.937   -39942873.956 7 -31034909.493 6
  19827096.499    -9015438.950 5  -6958109.197 2
  19941669.304   -12426828.444 5  -9309655.347 2
  19967306.007   -19033640.785 5 -14668238.812 4
  17175248.046   -30139489.016 7 -23429040.994 7
  17676796.944   -30871573.234 6 -23731191.299 6
  19876190.835    -9482059.765 5  -6964345.869 2
 94  2 14 20 41 29.9870000  0  8 27 18 14 28 22 29 19 31
  19566004.499   -15360534.290 5 -11020087.688 3
  16629912.116   -40020755.719 7 -31095596.569 6
  19838060.468    -8957848.506 5  -6913233.727 3
  19924331.780   -12517912.851 5  -9380630.184 3
  19976095.007   -18987481.666 5 -14632270.753 3
  17171284.773   -30160311.602 7 -23445266.411 6
  17659664.968   -30961602.903 6 -23801344.269 6
  19851100.952    -9613913.715 5  -7067089.143 2
 94  2 14 20 41 59.9870000  0  8 27 18 14 28 22 29 19 31
  19542474.374   -15484182.340 5 -11116436.737 4
  16615167.788   -40098235.180 7 -31155970.175 6
  19849045.749    -8900121.180 5  -6868251.575 2
  19907084.030   -12608576.279 5  -9451276.975 3
  19984913.038   -18941122.969 5 -14596147.186 4
  17167399.155   -30180733.630 7 -23461179.705 6
  17642571.429   -31051420.025 6 -23871331.617 6
  19826053.327    -9745525.125 5  -7169643.465 2
 94  2 14 20 42 29.9870000  0  8 27 18 14 28 22 29 19 31
  19518975.202   -15607671.162 5 -11212661.692 3
  16600503.851   -40175301.833 7 -31216022.099 6
  19860047.499    -8842289.998 4  -6823188.483 1
  19889909.023   -12698807.091 5  -9521586.645 4
  19993775.280   -18894575.080 5 -14559876.181 3
  17163588.694   -30200756.911 7 -23476782.289 6
  17625520.585   -31141027.235 6 -23941155.391 6
  19801051.780    -9876910.741 5  -7272021.841 3
 94  2 14 20 42 59.9870000  0  8 27 18 14 28 22 29 19 31
  19495504.937   -15731005.218 5 -11308766.072 4
  16585916.866   -40251946.612 7 -31275745.297 6
  19871069.390    -8784375.922 4  -6778060.819 2
  19872828.679   -12788574.242 5  -9591534.997 3
  20002666.304   -18847846.570 5 -14523464.440 3
  17159853.663   -30220383.424 7 -23492075.700 6
  17608511.241   -31230429.479 6 -24010819.455 6
  19776091.718   -10008078.705 5  -7374230.599 2
 94  2 14 20 43 29.9870000  0  8 27 18 14 28 22 29 19 31
  19472061.249   -15854212.467 5 -11404771.637 4
  16571406.062   -40328201.458 7 -31335164.651 6
  19882101.140    -8726415.441 4  -6732896.988 2
  19855826.648   -12877891.707 5
  20011589.109   -18800962.259 5 -14486931.282 4
  17156189.140   -30239637.063 7 -23507078.563 6
  17591533.585   -31319645.251 6
  19751168.327   -10139062.893 5  -7476296.142 2
 94  2 14 20 43 59.9870000  0  8 27 18 14 28 22 29 19 31
  19448634.523   -15977316.795 5 -11500697.021 4
  16556966.421   -40404081.736 7 -31394292.131 6
  19893136.460    -8668406.998 4  -6687695.796 1
  19838918.898   -12966771.355 5  -9730389.716 2
  20020536.773   -18753926.076 5 -14450279.781 3
  17152595.702   -30258521.405 7 -23521793.655 7
  17574592.155   -31408669.523 6 -24149707.740 6
  19726272.468   -10269887.381 5  -7578237.190 1
 94  2 14 20 44 29.9870000  0  8 27 18 14 28 22 29 19 31
  19425226.116   -16100326.411 5 -11596548.603 3
  16542600.804   -40479582.058 7 -31453123.536 6
  19904187.366    -8610334.235 4  -6642444.478 2
  19822088.624   -13055201.638 5  -9799296.362 2
  20029521.616   -18706719.579 5 -14413495.569 2
  17149078.702   -30277005.040 7 -23536196.510 6
  17557690.882   -31497479.283 6 -24218910.120 6
  19701408.874   -10400543.582 5  -7680047.135 3
 94  2 14 20 44 59.9870000  0  8 27 18 14 28 22 29 19 31
  19401836.015   -16223241.103 5 -11692326.218 3
  16528301.991   -40554711.348 7 -31511665.823 6
  19915259.702    -8552165.798 4  -6597118.600 1
  19805348.984   -13143190.014 5  -9867858.645 3
  20038538.569   -18659333.857 5 -14376571.686 3
  17145641.968   -30295070.641 7 -23550273.620 6
  17540833.734   -31586071.592 6 -24287943.054 6
  19676584.288   -10531006.069 5  -7781706.091 1
 94  2 14 20 45 29.9870000  0  8 27 18 14 28 22 29 19 31
  19378465.999   -16346057.634 5 -11788027.356 4
  16514069.796   -40629500.258 7 -31569942.890 6
  19926345.093    -8493905.758 5  -6551721.346 1
  19788682.913   -13230777.375 5  -9936108.469 3
  20047586.569   -18611787.440 5 -14339522.606 2
  17142279.249   -30312736.976 7 -23564039.620 6
  17524017.585   -31674453.206 6 -24356811.807 6
  19651793.218   -10661280.380 5  -7883218.394 2
 94  2 14 20 45 59.9870000  0  8 27 18 14 28 22 29 19 31
  19355116.194   -16468759.738 5 -11883639.357 3
  16499905.398   -40703938.504 7 -31627946.702 6
  19937452.640    -8435553.122 4  -6506251.957 2
  19772089.616   -13317963.177 5 -10004045.401 2
  20056663.179   -18564073.022 5 -14302342.598 2
  17138993.593   -30330002.065 7 -23577492.960 6
  17507236.632   -31762628.051 6 -24425519.449 6
  19627043.476   -10791342.559 5  -7984565.339 2
 94  2 14 20 46 29.9870000  0  8 27 18 14 28 22 29 19 31
  19331791.179   -16591333.707 5 -11979151.490 3
  16485810.569   -40778006.213 7 -31685661.788 6
  19948572.812    -8377109.282 4  -6460711.497 2
  19755577.343   -13404737.877 5 -10071662.014 2
  20065776.296   -18516181.684 5 -14265024.727 2
  17135785.109   -30346862.541 7 -23590631.013 6
  17490497.109   -31850598.360 6 -24494067.694 6
  19602337.429   -10921167.986 5  -8085727.810 1
 94  2 14 20 46 59.9870000  0  8 27 18 14 28 22 29 19 31
  19308491.359   -16713779.206 5 -12074563.527 4
  16471785.515   -40851704.047 7 -31743088.663 6
  19959706.179    -8318584.867 4  -6415108.243 1
  19739142.530   -13491106.066 5 -10138961.864 4
  20074926.468   -18468124.574 5 -14227577.701 3
  17132647.210   -30363350.134 7 -23603478.509 6
  17473793.554   -31938368.474 6 -24562459.953 6
  19577676.741   -11050758.460 5  -8186707.166 3
 94  2 14 20 47 29.9870000  0  8 27 18 14 28 22 29 19 31
  19285208.460   -16836129.717 5 -12169901.543 4
  16457830.687   -40925041.061 7 -31800234.375 6
  19970850.265    -8260028.635 4  -6369480.223 1
  19722785.765   -13577078.550 5 -10205953.383 4
  20084096.093   -18419924.948 5 -14190019.612 3
  17129571.734   -30379508.328 7 -23616069.338 6
  17457124.390   -32025957.669 6 -24630711.239 6
  19553055.304   -11180152.274 5  -8287533.279 2
 94  2 14 20 47 59.9870000  0  8 27 18 14 28 22 29 19 31
  19261942.577   -16958389.559 5 -12265168.911 4
  16443955.765   -40997963.612 7 -31857057.130 6
  19982003.546    -8201424.613 4  -6323814.968 1
  19706506.265   -13662611.276 5 -10272602.260 3
  20093301.374   -18371555.321 5 -14152329.067 3
  17126564.765   -30395312.262 7 -23628384.122 6
  17440495.132   -32113342.055 6 -24698802.935 6
  19528471.585   -11309332.649 5  -8388193.086 1
 94  2 14 20 48 29.9870000  0  8 27 18 14 28 22 29 19 31
  19238691.601   -17080573.087 5 -12360376.813 3
  16430158.921   -41070462.542 7 -31913549.790 6
  19993165.585    -8142772.628 4  -6278112.299 1
  19690309.991   -13747702.974 5 -10338907.472 4
  20102535.319   -18323028.594 5 -14114516.109 2
  17123624.413   -30410771.085 7 -23640429.986 6
  17423908.468   -32200516.382 6 -24766730.953 6
  19503926.155   -11438321.959 5  -8488704.001 2
 94  2 14 20 48 59.9870000  0  8 27 18 14 28 22 29 19 31
  19215454.202   -17202686.057 5 -12455529.748 5
  16416440.679   -41142549.881 7 -31969721.734 6
  20004328.726    -8084090.556 4  -6232386.227 1
  19674205.898   -13832358.519 5 -10404872.835 3
  20111794.101   -18274373.812 5 -14076603.337 2
  17120744.577   -30425903.683 6 -23652221.651 6
  17407357.710   -32287488.858 6 -24834501.681 6
  19479410.734   -11567140.863 5  -8589082.139 2
 94  2 14 20 49 29.9870000  0  8 27 18 14 28 22 29 19 31
  19192231.171   -17324713.839 5 -12550616.264 4
  16402806.733   -41214206.699 7 -32025558.204 6
  20015504.616    -8025376.539 4  -6186635.255 1
  19658180.257   -13916558.236 5 -10470483.000 3
  20121075.132   -18225596.536 5 -14038595.149 2
  17117932.523   -30440679.377 7 -23663735.208 6
  17390845.796   -32374256.220 6 -24902112.585 6
  19454933.327   -11695776.717 5  -8689317.630 2
 94  2 14 20 49 59.9870000  0  8 27 18 14 28 22 29 19 31
  19169029.718   -17446642.786 5 -12645625.780 4
  16389251.437   -41285431.618 7 -32081058.127 6
  20026683.601    -7966617.983 4  -6140849.570 1
  19642246.265   -14000295.857 5 -10535733.085 4
  20130383.030   -18176700.545 5 -14000494.482 2
  17115195.312   -30455067.672 7 -23674946.895 6
  17374374.866   -32460805.211 6 -24969553.322 6
  19430494.812   -11824205.022 5  -8789391.421 3
 94  2 14 20 50 29.9870000  0  8 27 18 14 28 22 29 19 31
  19145852.484   -17568445.011 5 -12740536.533 4
  16375774.835   -41356253.324 7 -32136243.866 6
  20037875.890    -7907821.354 4  -6095034.234 2
  19626398.523   -14083570.887 5 -10600622.721 4
  20139710.937   -18127677.775 5 -13962294.993 2
  17112533.327   -30469050.654 6 -23685842.748 6
  17357946.226   -32547149.323 6 -25036834.424 6
  19406097.366   -11952404.889 5  -8889287.207 3
 94  2 14 20 50 59.9870000  0  8 27 18 14 28 22 29 19 31
  19122699.421   -17690116.326 5 -12835345.283 4
  16362368.991   -41426694.404 7 -32191133.018 6
  20049068.023    -7849007.762 4  -6049205.676 2
  19610642.952   -14166389.552 5 -10665156.751 3
  20149059.148   -18078539.065 5 -13924005.172 2
  17109950.069   -30482625.349 6 -23696420.462 6
  17341551.507   -32633310.315 6 -25103972.832 6
  19381747.913   -12080362.062 5  -8988993.938 2
 94  2 14 20 51 29.9870000  0  8 27 18 14 28 22 29 19 31
  19099568.171   -17811665.398 5 -12930058.767 4
  16349037.523   -41496759.086 7 -32245728.852 6
  20060262.991    -7790186.093 4  -6003370.788 1
  19594965.593   -14248768.839 5 -10729348.365 4
  20158431.366   -18029276.958 5 -13885619.192 2
  17107445.835   -30495786.151 7 -23706675.663 6
  17325184.132   -32719303.366 6 -25170980.370 6
  19357444.405   -12208076.935 5  -9088511.856 2
 94  2 14 20 51 59.9870000  0  8 27 18 14 28 22 29 19 31
  19076457.023   -17933113.958 5 -13024693.923 5
  16335770.546   -41566472.865 7 -32300051.269 6
  20071455.351    -7731368.169 4  -5957538.895 2
  19579366.452   -14330736.097 5 -10793218.930 4
  20167834.757   -17979889.464 5 -13847135.507 2
  17105013.499   -30508570.339 7 -23716637.403 7
  17308848.179   -32805157.940 6 -25237880.008 6
  19333184.429   -12335568.253 5  -9187855.625 3
 94  2 14 20 52 29.9870000  0  8 27 18 14 28 22 29 19 31
  19053373.101   -18054425.266 5 -13119222.139 4
  16322578.671   -41635801.368 7 -32354073.462 6
  20082650.358    -7672525.516 4  -5911687.712 1
  19563853.515   -14412254.191 5 -10856739.471 4
  20177261.030   -17930349.161 5 -13808532.750 2
  17102653.484   -30520974.372 7 -23726302.907 7
  17292540.319   -32890854.684 7 -25304656.664 6
  19308968.382   -12462821.231 5  -9287013.665 3
 94  2 14 20 52 59.9870000  0  8 27 18 14 28 22 29 19 31
  19030319.140   -18175573.369 5 -13213623.179 3
  16309467.577   -41704692.369 7 -32407754.740 6
  20093862.944    -7613623.983 4  -5865790.639 1
  19548432.733   -14493295.732 5 -10919888.670 4
  20186721.491   -17880651.823 5 -13769807.645 1
  17100366.616   -30532986.265 6 -23735662.855 6
  17276273.812   -32976343.828 6 -25371271.558 6
  19284802.140   -12589818.572 5  -9385972.544 3
 94  2 14 20 53 29.9870000  0  8 27 18 14 28 22 29 19 31
  19007293.944   -18296579.977 5 -13307913.960 4
  16296442.233   -41773142.908 7 -32461092.803 6
  20105078.765    -7554659.601 3  -5819844.586 1
  19533096.624   -14573861.996 5 -10982667.504 4
  20196201.819   -17830806.685 4 -13730967.328 2
  17098153.515   -30544617.946 6 -23744726.535 6
  17260048.819   -33061606.696 6 -25437710.126 6
  19260683.116   -12716562.128 5  -9484733.686 2
 94  2 14 20 53 59.9860000  0  8 27 18 14 28 22 29 19 31
  18984295.346   -18417435.946 5 -13402087.357 5
  16283501.361   -41841152.398 7 -32514087.196 6
  20116313.791    -7495622.266 3  -5773841.725 2
  19517858.424   -14653939.473 5 -11045065.472 3
  20205710.158   -17780834.234 4 -13692027.856 2
  17096012.580   -30555862.471 6 -23753488.531 6
  17243873.182   -33146616.428 6 -25503951.446 6
  19236616.611   -12843035.018 5  -9583283.931 2
 94  2 14 20 54 29.9860000  0  8 27 18 14 28 22 29 19 31
  18961324.572   -18538143.688 5 -13496145.246 3
  16270642.775   -41908721.545 7 -32566738.463 6
  20127564.666    -7436510.477 3  -5727780.808 1
  19502717.432   -14733533.047 5 -11107086.357 4
  20215242.854   -17730752.428 5 -13653003.154 2
  17093950.447   -30566702.561 6 -23761935.379 6
  17227744.986   -33231358.473 6 -25569984.182 6
  19212600.963   -12969237.535 5  -9681623.504 2
 94  2 14 20 54 59.9860000  0  8 27 18 14 28 22 29 19 31
  18938377.533   -18658728.676 5 -13590107.497 5
  16257868.893   -41975854.019 7 -32619049.466 6
  20138822.830    -7377354.463 3  -5681685.493 2
  19487659.815   -14812662.748 5 -11168745.763 4
  20224791.002   -17680571.633 4 -13613901.304 3
  17091966.643   -30577138.443 6 -23770067.268 6
  17211665.611   -33315847.152 6 -25635819.484 6
  19188641.705   -13095150.020 5  -9779737.099 3
 94  2 14 20 55 29.9860000  0  8 27 18 14 28 22 29 19 31
  18915453.932   -18779195.998 5 -13683978.046 4
  16245176.666   -42042546.557 7 -32671017.663 6
  20150089.025    -7318148.226 3  -5635551.008 1
  19472691.111   -14891316.992 5 -11230034.685 4
  20234361.174   -17630272.442 4 -13574707.233 2
  17090059.268   -30587159.172 6 -23777875.659 6
  17195635.033   -33400101.539 6 -25701472.229 6
  19164737.502   -13220758.709 5  -9877613.952 4
 94  2 14 20 55 59.9860000  0  8 27 18 14 28 22 29 19 31
  18892554.252   -18899542.540 5 -13777754.488 4
  16232569.299   -42108810.123 7 -32722651.601 6
  20161364.049    -7258910.990 3  -5589392.387 1
  19457811.705   -14969492.548 5 -11290950.615 4
  20243956.822   -17579857.936 4 -13535423.273 2
  17088227.986   -30596772.760 6 -23785366.794 6
  17179638.846   -33484150.786 6 -25766965.120 6
  19140891.041   -13346078.940 5  -9975266.049 4
 94  2 14 20 56 29.9860000  0  8 27 18 14 28 22 29 19 31
  18869679.361   -19019749.547 5 -13871422.196 3
  16220044.565   -42174619.400 7 -32773931.551 6
  20172639.455    -7199645.098 3  -5543211.412 1
  19443036.729   -15047148.497 5 -11351461.661 4
  20253575.213   -17529290.978 4 -13496020.537 2
  17086476.744   -30605978.995 6 -23792540.511 6
  17163685.440   -33567998.405 6 -25832300.905 6
  19117102.088   -13471081.378 5 -10072670.510 2
 94  2 14 20 56 59.9860000  0  8 27 18 14 28 22 29 19 31
  18846825.182   -19139838.584 5 -13964997.980 4
  16207605.283   -42239984.463 7 -32824865.363 6
  20183920.033    -7140364.275 3  -5497018.814 1
  19428359.900   -15124284.170 5 -11411567.297 3
  20263228.940   -17478573.587 4 -13456500.579 2
  17084798.213   -30614800.693 6 -23799414.583 6
  17147764.940   -33651666.737 6 -25897496.973 6
  19093375.994   -13595775.526 5 -10169834.758 2
 94  2 14 20 57 29.9860000  0  8 27 18 14 28 22 29 19 31
  18823999.721   -19259788.111 5 -14058465.061 3
  16195252.018   -42304901.366 7 -32875449.949 6
  20195207.721    -7081044.904 3  -5450796.194 1
  19413780.494   -15200877.633 5 -11471250.453 4
  20272912.158   -17427701.410 4 -13416860.003 2
  17083197.596   -30623215.886 6 -23805971.906 6
  17131882.174   -33735126.571 6 -25962530.590 6
  19069704.783   -13720166.867 5 -10266763.070 2
 94  2 14 20 57 59.9860000  0  8 27 18 14 28 22 29 19 31
  18801203.393   -19379586.496 5 -14151814.362 3
  16182983.729   -42369373.351 7 -32925687.847 6
  20206499.361    -7021689.452 3  -5404545.432 1
  19399313.713   -15276929.541 5 -11530511.618 2
  20282621.010   -17376673.113 4 -13377097.812 2
  17081674.572   -30631217.658 6 -23812207.076 6
  17116040.283   -33818364.020 6 -26027390.913 6
  19046090.002   -13844252.486 5 -10363453.148 4
 94  2 14 20 58 29.9860000  0  8 27 18 14 28 22 29 19 31
  18778433.018   -19499239.599 5 -14245050.456 4
  16170803.541   -42433387.660 7 -32975569.121 6
  20217803.244    -6962293.481 3  -5358263.102 1
  19384936.338   -15352454.394 5 -11589362.079 4
  20292360.393   -17325495.395 4 -13337219.185 2
  17080232.635   -30638792.435 6 -23818109.516 6
  17100242.760   -33901381.992 6 -26092080.222 6
  19022536.940   -13968029.238 5 -10459902.549 2
 94  2 14 20 58 59.9860000  0  8 27 18 14 28 22 29 19 31
  18755688.072   -19618766.769 5 -14338188.434 5
  16158702.557   -42496956.350 7 -33025103.164 6
  20229112.057    -6902865.080 3  -5311955.489 1
  19370661.744   -15427493.225 5 -11647833.836 4
  20302120.057   -17274203.515 4 -13297251.602 2
  17078875.729   -30645927.551 6 -23823669.369 6
  17084485.479   -33984190.852 6 -26156606.590 6
  18999039.486   -14091522.408 5 -10556130.980 2
 94  2 14 20 59 29.9860000  0  8 27 18 14 28 22 29 19 31
  18732967.525   -19738161.457 5 -14431223.177 4
  16146692.174   -42560085.577 7 -33074294.767 6
  20240429.447    -6843419.473 3
  19356469.518   -15502049.529 5 -11705929.611 4
  20311900.572   -17222807.094 4 -13257202.553 1
  17077602.674   -30652615.853 6 -23828881.051 6
  17068767.705   -34066791.558 6 -26220970.762 6
  18975592.479   -14214724.586 5 -10652132.662 3
 94  2 14 20 59 59.9860000  0  8 27 18 14 28 22 29 19 31
  18710272.221   -19857419.464 5 -14524151.429 5
  16134765.369   -42622775.744 7 -33123144.249 6
  20251745.057    -6783967.079 3
  19342374.971   -15576121.957 5 -11763648.316 4
  20321700.111   -17171312.116 4 -13217076.706 1
  17076414.299   -30658865.199 6 -23833750.686 6
  17053085.932   -34149199.223 6 -26285184.507 6
  18952205.354   -14337622.163 5 -10747896.975 4
 94  2 14 21  0 29.9860000  0  8 27 18 14 28 22 29 19 31
  18687601.018   -19976566.521 5 -14616993.222 4
  16122913.588   -42685050.073 7 -33171669.693 6
  20263047.400    -6724544.121 3        -0.34411
  19328368.369   -15649746.790 5 -11821018.273 4
  20331513.666   -17119748.340 4 -13176897.287 2
  17075300.830   -30664708.339 6 -23838303.804 6
  17037435.369   -34231430.358 6 -26349260.708 6
  18928874.619   -14460223.757 5 -10843430.651 3
 94  2 14 21  0 59.9860000  0  8 27 18 14 28 22 29 19 31
  18664950.322   -20095597.007 5 -14709744.187 4
  16111139.986   -42746924.355 7 -33219883.412 6
  20274348.307    -6665160.133 3     46272.656 1
  19314439.721   -15722926.323 5 -11878041.256 4
  20341339.190   -17068109.680 4 -13136659.452 1
  17074263.229   -30670163.695 6 -23842554.748 6
  17021824.768   -34313468.570 6 -26413186.574 6
  18905601.299   -14582531.492 5 -10938735.341 4
 94  2 14 21  1 29.9860000  0  8 27 18 14 28 22 29 19 31
  18642326.275   -20214494.016 5 -14802391.140 5
  16099442.182   -42808388.771 7 -33267777.755 6
  20285644.729    -6605797.312 3     92529.206 1
  19300602.697   -15795641.482 5 -11934702.385 5
  20351179.979   -17016377.880 4 -13096349.085 1
  17073300.010   -30675233.374 6 -23846505.165 6
  17006255.541   -34395296.691 6 -26476948.743 6
  18882384.182   -14704539.715 5 -11033806.638 4
 94  2 14 21  1 59.9860000  0  8 27 18 14 28 22 29 19 31
  18619726.986   -20333238.317 5 -14894919.118 5
  16087829.236   -42869416.241 7 -33315331.618 6
  20296946.572    -6546431.881 3    138787.753 1
  19286861.729   -15867873.025 5 -11990986.684 4
  20361050.197   -16964530.925 4 -13055948.954 2
  17072407.932   -30679916.089 6 -23850154.054 6
  16990726.369   -34476896.962 6 -26540533.372 6
  18859224.783   -14826242.020 5 -11128639.551 3
 94  2 14 21  2 29.9860000  0  8 27 18 14 28 22 29 19 31
  18597159.729   -20451829.044 5 -14987327.431 5
  16076305.447   -42929976.013 7 -33362521.041 6
  20308246.150    -6487052.701 3    185057.052 1
  19273206.104   -15939609.282 5 -12046885.016 3
  20370934.549   -16912560.236 3 -13015452.428 1
  17071590.307   -30684207.584 6 -23853498.095 6
  16975243.236   -34558259.278 6 -26603932.573 6
  18836121.221   -14947635.807 5 -11223232.041 4
 94  2 14 21  2 59.9860000  0  8 27 18 14 28 22 29 19 31
  18574620.190   -20570285.589 5 -15079631.164 4
  16064871.791   -42990063.129 7 -33409342.162 6
  20319542.322    -6427665.283 3    231332.753 1
  19259650.768   -16010826.633 5 -12102379.013 2
  20380848.900   -16860487.859 3 -12974876.680 1
  17070849.869   -30688111.585 7 -23856540.191 6
  16959802.854   -34639399.558 6 -26667158.755 6
  18813079.861   -15068736.610 5 -11317596.212 3
 94  2 14 21  3 29.9860000  0  8 27 18 14 28 22 29 19 31
  18552099.283   -20688621.865 5 -15171841.184 5
  16053526.768   -43049675.793 7 -33455793.575 6
  20330840.119    -6368275.595 3    277610.184 1
  19246203.447   -16081506.886 5 -12157454.492 4
  20390773.143   -16808339.700 3 -12934241.841 1
  17070178.338   -30691637.444 6 -23859287.641 6
  16944401.236   -34720336.259 6 -26730226.295 6
  18790092.869   -15189534.938 5 -11411724.706 4
 94  2 14 21  3 59.9860000  0  8 27 18 14 28 22 29 19 31
  18529602.072   -20806856.129 5 -15263971.704 5
  16042273.236   -43108810.417 7 -33501872.493 6
  20342145.869    -6308889.829 2    323884.639 1
  19232858.182   -16151639.319 5 -12212103.073 4
  20400708.143   -16756122.034 3 -12893552.827 1
  17069576.221   -30694794.706 6 -23861747.867 6
  16929033.752   -34801087.293 6 -26793149.155 6
  18767166.299   -15310006.439 5 -11505598.516 2
 94  2 14 21  4 29.9860000  0  8 27 18 14 28 22 29 19 31
  18507124.635   -20924980.353 5 -15356016.475 5
  16031113.752   -43167462.501 7 -33547575.407 6
  20353452.541    -6249496.070 3    370165.296 1
  19219619.182   -16221211.360 5 -12266314.988 4
  20410658.182   -16703824.457 3 -12852801.569 1
  17069051.486   -30697559.518 6 -23863902.298 6
  16913706.174   -34881635.198 6 -26855913.744 6
  18744308.525   -15430118.813 5 -11599192.468 3
 94  2 14 21  4 59.9860000  0  8 27 18 14 28 22 29 19 31
  18484664.322   -21043003.449 5 -15447982.429 5
  16020035.783   -43225666.630 7 -33592929.269 6
  20364751.268    -6190108.682 3    416440.991 1
  19206483.877   -16290235.773 5 -12320100.190 4
  20420627.166   -16651452.844 4 -12811992.604 1
  17068597.088   -30699942.683 6 -23865759.330 6
  16898417.604   -34961986.810 6 -26918525.377 6
  18721521.229   -15549866.231 5 -11692502.036 3
 94  2 14 21  5 29.9860000  0  8 27 18 14 28 22 29 19 31
  18462227.572   -21160901.335 5 -15539850.819 5
  16009048.385   -43283417.212 7 -33637929.717 6
  20376058.830    -6130714.998 2    462721.620 1
  19193453.041   -16358717.196 5 -12373462.253 3
  20430612.174   -16598980.233 4 -12771104.954 1
  17068217.783   -30701932.468 6 -23867309.842 6
  16883164.846   -35042131.282 7 -26980975.601 6
  18698810.760   -15669220.700 5 -11785505.411 4
 94  2 14 21  5 59.9860000  0  8 27 18 14 28 22 29 19 31
  18439813.338   -21278691.296 5 -15631635.116 5
  15998138.416   -43340734.577 7 -33682592.599 6
  20387346.666    -6071351.726 2
  19180517.877   -16426702.279 5 -12426437.574 4
  20440616.775   -16546414.395 4 -12730144.629 1
  17067914.682   -30703535.153 6 -23868558.712 6
  16867952.900   -35122082.942 6 -27043275.589 6
  18676167.596   -15788209.006 5 -11878223.462 4
 94  2 14 21  6 29.9860000  0  8 27 18 14 28 22 29 19 31
  18417426.111   -21396343.645 5 -15723312.166 5
  15987317.119   -43397607.472 7 -33726909.125 6
  20398640.049    -6012023.106 3
  19167673.518   -16494190.990 5 -12479026.103 4
  20450639.486   -16493749.830 4 -12689107.397 1
  17067686.549   -30704733.843 6 -23869492.786 6
  16852779.869   -35201815.993 6 -27105405.226 6
  18653594.236   -15906826.554 5 -11970652.617 4
 94  2 14 21  6 59.9860000  0  8 27 18 14 28 22 29 19 31
  18395064.924   -21513856.258 5 -15814880.350 5
  15976580.041   -43454028.401 7 -33770873.479 6
  20409916.119    -5952742.663 3        -0.13411
  19154923.440   -16561182.970 5 -12531227.580 5
  20460679.877   -16440995.863 4 -12648000.512 1
  17067533.635   -30705526.419 6 -23870110.416 6
  16837647.775   -35281342.819 6 -27167374.167 6
  18631091.369   -16025078.571 5 -12062796.922 4
 94  2 14 21  7 29.9860000  0  8 27 18 14 28 22 29 19 31
  18372728.213   -21631233.235 5 -15906342.847 5
  15965930.494   -43509991.469 7 -33814481.067 6
  20421184.713    -5893525.932 2     46142.637 1
  19142265.783   -16627686.815 5 -12583048.689 5
  20470731.065   -16388171.444 4 -12606838.695 1
  17067459.799   -30705917.063 6
  16822550.525   -35360670.648 6 -27229188.046 6
  18608654.385   -16142979.984 5 -12154668.039 4
 94  2 14 21  7 59.9860000  0  8 27 18 14 28 22 29 19 31
  18350419.619   -21748461.562 5 -15997689.514 5
  15955371.158   -43565488.316 7 -33857725.357 6
  20432440.369    -5834374.440 3     92234.557 1
  19129711.432   -16693687.537 5 -12634477.736 4
  20480791.986   -16335290.849 4 -12565633.114 2
  17067464.205   -30705898.908 6
  16807493.088   -35439783.306 6 -27290834.268 6
  18586287.838   -16260527.285 5 -12246263.231 4
 94  2 14 21  8 29.9860000  0  8 27 18 14 28 22 29 19 31
  18328137.049   -21865551.582 5
  15944895.072   -43620530.827 7 -33900615.630 6
  20443679.104    -5775297.029 2    138268.786 1
  19117247.979   -16759178.452 5 -12685509.555 5
  20490858.377   -16282378.805 3 -12524403.030 1
  17067542.518   -30705493.026 6
  16792480.697   -35518694.593 7 -27352323.570 6
  18563984.783   -16377734.611 5
 94  2 14 21  8 59.9850000  0  8 27 18 14 28 22 29 19 31
  18305884.419   -21982496.115 5 -16180053.963 5
  15934513.794   -43675099.026 7 -33943136.305 6
  20454923.302    -5716275.005 3    184259.878 1
  19104886.872   -16824137.262 5 -12736126.735 4
  20500934.872   -16229425.189 4 -12483140.588 1
  17067697.482   -30704677.013 6 -23869448.645 6
  16777504.521   -35597384.237 7 -27413640.163 6
  18541747.372   -16494585.954 5 -12428646.414 4
 94  2 14 21  9 29.9850000  0  8 27 18 14 28 22 29 19 31
  18283658.403   -22099298.919 5 -16271069.073 5
  15924220.685   -43729191.401 7 -33985286.210 6
  20466140.489    -5657296.161 2    230217.311 1
  19092623.841   -16888559.806 5 -12786326.057 4
  20511023.325   -16176427.024 4 -12441843.379 1
  17067930.232   -30703447.537 6 -23868490.639 6
  16762574.263   -35675840.270 7 -27474774.714 6
  18519579.380   -16611086.445 6 -12519425.942 4
 94  2 14 21  9 59.9850000  0  7 27 18 28 22 29 19 31
  18261453.669   -22215976.413 5 -16361986.555 5
  15914012.778   -43782824.320 7 -34027078.093 6
  19080470.732   -16952453.892 5 -12836113.616 5
  20521112.622   -16123400.941 3 -12400524.481 1
  17068243.239   -30701813.166 6 -23867217.132 6
  16747685.192   -35754082.033 7 -27535742.304 6
  18497473.982   -16727250.354 5 -12609943.184 4
 94  2 14 21 10 29.9850000  0  7 27 18 28 22 29 19 31
  18239271.232   -22332547.312 5 -16452820.980 5
  15903894.896   -43836002.246 7 -34068515.433 6
  19068405.536   -17015829.145 5 -12885496.881 5
  20531211.067   -16070342.887 3 -12359180.640 1
  17068626.614   -30699778.008 6 -23865631.324 6
  16732832.771   -35832129.001 7 -27596558.097 6
  18475431.849   -16843089.299 5 -12700207.239 4
 94  2 14 21 10 59.9850000  0  7 27 18 28 22 29 19 31
  18217106.677   -22449022.797 5 -16543581.058 5
  15893858.935   -43888730.915 7 -34109602.706 6
  19056444.380   -17078696.904 5 -12934484.703 5
  20541307.185   -16017260.634 3 -12317817.922 1
  17069092.411   -30697347.266 6 -23863737.263 6
  16718020.067   -35909987.444 7 -27657226.980 6
  18453447.755   -16958592.144 5 -12790209.388 4
 94  2 14 21 11 29.9850000  0  7 27 18 28 22 29 19 31
  18194960.255   -22565397.513 5 -16634262.622 5
  15883909.153   -43941020.531 7 -34150347.858 6
  19044581.349   -17141056.204 5 -12983076.340 4
  20551420.927   -15964142.867 3 -12276427.596 1
  17069626.247   -30694536.126 6 -23861546.784 6
  16703233.435   -35987674.305 6 -27717762.177 6
  18431536.919   -17073751.229 5 -12879943.677 4
 94  2 14 21 11 59.9850000  0  7 27 18 28 22 29 19 31
  18172837.427   -22681657.025 5 -16724854.422 5
  15874043.341   -43992861.849 7 -34190743.685 6
  19032809.114   -17202895.164 5 -13031262.518 4
  20561543.177   -15910960.208 3 -12234986.643 1
  17070234.778   -30691334.979 6 -23859052.417 6
  16688484.646   -36065189.929 6 -27778163.930 6
  18409693.950   -17188536.435 5 -12969386.640 5
 94  2 14 21 12 29.9850000  0  7 27 18 28 22 29 19 31
  18150734.107   -22797808.943 5 -16815362.385 5
  15864261.614   -44044264.685 7 -34230797.835 6
  19021139.075   -17264235.160 5 -13079059.904 4
  20571678.755   -15857714.272 3 -12193496.412 1
  17070916.661   -30687759.238 6 -23856266.150 6
  16673765.622   -36142541.753 6 -27838438.046 6
  18387923.263   -17302943.618 5 -13058535.040 5
 94  2 14 21 12 59.9850000  0  7 27 18 28 22 29 19 31
  18128649.950   -22913864.929 5 -16905795.598 5
  15854560.849   -44095242.525 7 -34270520.819 6
  19009555.739   -17325094.941 5 -13126483.102 4
  20581820.075   -15804420.606 3 -12151969.019 2
  17071663.060   -30683830.392 6 -23853204.742 6
  16659075.325   -36219748.892 6 -27898599.437 6
  18366223.646   -17416973.357 6 -13147389.311 5
 94  2 14 21 13 29.9850000  0  6 27 18 28 29 19 31
  18106584.224   -23029822.422 5 -16996152.057 5
  15844942.747   -44145792.787 7 -34309910.624 6
  18998065.817   -17385475.541 5 -13173532.923 4
  17072478.552   -30679545.245 6 -23849865.695 6
  16644405.536   -36296825.794 7 -27958659.340 6
  18344590.021   -17530643.482 6 -13235963.362 5
 94  2 14 21 13 59.9850000  0  6 27 18 28 29 19 31
  18084535.099   -23145693.428 5 -17086441.122 5
  15835404.013   -44195919.337 7 -34348970.270 6
  18986665.278   -17445391.371 5 -13220220.582 4
  17073362.669   -30674906.283 6 -23846250.949 6
  16629761.317   -36373774.577 7 -28018619.411 6
  18323027.169   -17643969.778 6 -13324269.487 4
 94  2 14 21 14 29.9850000  0  6 27 18 28 29 19 31
  18062508.286   -23261450.862 5 -17176641.683 5
  15825951.396   -44245593.256 7 -34387677.209 6
  18975353.544   -17504812.326 5 -13266522.612 5
  17074316.732   -30669888.731 6 -23842341.203 6
  16615150.614   -36450560.772 7 -28078452.784 6
  18301528.794   -17756936.146 6 -13412295.153 5
 94  2 14 21 14 59.9850000  0  7 27 18  2 28 29 19 31
  18040502.974   -23377086.935 5 -17266747.664 5
  15816585.396   -44294804.669 7 -34426023.760 6
  20449942.317          -0.87413
  18964149.427   -17563711.852 5 -13312418.353 5
  17075342.732   -30664499.898 6 -23838142.144 6
  16600572.685   -36527172.835 6 -28138150.473 6
  18280103.372   -17869534.546 6 -13500034.072 5
 94  2 14 21 15 29.9850000  0  7 27 18  2 28 29 19 31
  18018522.763   -23492585.792 5 -17356746.724 5
  15807311.044   -44343546.966 7 -34464004.755 6
  20421409.763     -149954.093 2
  18953046.310   -17622070.906 5 -13357892.935 3
  17076440.208   -30658724.878 6 -23833642.151 6
  16586033.232   -36603576.427 7 -28197685.723 6
  18258749.052   -17981748.895 6 -13587473.725 5
 94  2 14 21 15 59.9850000  0  7 27 18  2 28 29 19 31
  17996567.505   -23607960.126 5 -17446648.748 5
  15798121.778   -44391829.565 7 -34501627.552 6
  20392901.583     -299776.332 3        -0.31911
  18942039.153   -17679901.364 5 -13402955.609 5
  17077608.982   -30652588.976 6 -23828860.964 6
  16571535.583   -36679764.082 7 -28257052.703 6
  18237468.255   -18093570.794 6 -13674607.579 4
 94  2 14 21 16 29.9850000  0  7 27 18  2 28 29 19 31
  17974630.880   -23723242.919 5 -17536479.435 5
  15789019.560   -44439668.499 7 -34538904.631 6
  20364416.482     -449487.615 3   -116658.429 1
  18931130.669   -17737219.549 5 -13447619.109 4
  17078838.560   -30646119.808 6 -23823820.082 6
  16557073.278   -36755751.454 7 -28316263.618 6
  18216264.599   -18205003.752 6 -13761438.334 5
 94  2 14 21 16 59.9850000  0  7 27 18  2 28 29 19 31
  17952708.653   -23838435.911 5 -17626240.151 5
  15780004.099   -44487045.802 7 -34575822.007 6
  20335949.099     -599077.223 3   -233221.815 1
  18920320.997   -17794022.881 5 -13491881.402 5
  17080136.325   -30639307.075 6 -23818511.493 6
  16542655.849   -36831529.394 7 -28375311.334 6
  18195137.989   -18316028.032 6 -13847950.649 4
 94  2 14 21 17 29.9850000  0  7 27 18  2 28 29 19 31
  17930803.607   -23953548.650 5 -17715938.329 5
  15771077.380   -44533961.090 7 -34612379.367 6
  20307506.630     -748542.013 3   -349687.854 1
  18909605.021   -17850326.468 5 -13535754.297 4
  17081498.388   -30632147.132 6 -23812932.335 6
  16528269.232   -36907115.447 7 -28434209.525 6
  18174087.950   -18426650.639 6 -13934149.965 4
 94  2 14 21 17 59.9850000  0  7 27 18  2 28 29 19 31
  17908917.107   -24068568.107 5 -17805563.818 5
  15762241.208   -44580391.160 7 -34648558.645 6
  20279091.310     -897868.541 3   -466046.163 1
  18898990.755   -17906109.237 5 -13579221.345 5
  17082931.513   -30624621.281 6 -23807068.066 6
  16513923.005   -36982514.936 7 -28492962.340 6
  18153114.107   -18536868.842 6 -14020034.169 5
 94  2 14 21 18 29.9850000  0  7 27 18  2 28 29 19 31
  17887054.794   -24183463.529 6 -17895092.650 5
  15753501.419   -44626322.537 7 -34684349.320 6
  20250704.685    -1047041.542 3   -582284.808 1
  18888480.075   -17961346.882 5 -13622263.637 4
  17084436.997   -30616709.466 6 -23800903.042 6
  16499611.302   -37057723.550 7 -28551566.434 6
  18132218.560   -18646666.088 6 -14105590.345 4
 94  2 14 21 18 59.9850000  0  7 27 18  2 28 29 19 31
  17865213.841   -24298227.668 5 -17984519.198 5
  15744852.388   -44671778.857 7 -34719769.832 6
  20222339.169    -1196068.472 3   -698409.595 1
  18878070.607   -18016050.375 5 -13664889.696 4
  17086012.833   -30608424.475 6 -23794447.223 6
  16485330.942   -37132765.958 7 -28610041.007 6
  18111400.271   -18756072.624 6 -14190842.067 5
 94  2 14 21 19 29.9850000  0  7 27 18  2 28 29 19 31
  17843397.286   -24412874.817 5 -18073854.567 5
  15736283.341   -44716799.106 7 -34754850.539 6
  20194003.513    -1344981.202 3   -814445.384 1
  18867758.333   -18070233.606 5 -13707110.342 5
  17087653.724   -30599802.986 6 -23787729.205 6
  16471078.192   -37207676.720 7 -28668412.996 6
  18090645.669   -18865130.511 6 -14275822.119 5
 94  2 14 21 19 59.9850000  0  7 27 18  2 28 29 19 31
  17821624.021   -24527294.508 6 -18163012.721 5
  15727820.052   -44761282.617 7 -34789513.006 6
  20165698.732    -1493692.020 3   -930323.773 1
  18857567.755   -18123787.333 5 -13748840.461 4
  17089378.552   -30590736.640 6 -23780664.542 6
  16456867.419   -37282338.381 7 -28726590.887 6
  18069981.114   -18973729.296 6 -14360444.433 5
 94  2 14 21 20 29.9850000  0  7 27 18  2 28 29 19 31
  17799862.161   -24641661.664 6 -18252129.917 5
  15719424.380   -44805394.203 7 -34823885.668 6
  20137411.896    -1642382.573 3  -1046186.289 1
  18847465.825   -18176891.856 5 -13790220.558 4
  17091157.849   -30581392.740 6 -23773383.608 6
  16442676.857   -37356911.068 7 -28784699.447 6
  18049370.794   -19082038.309 6 -14444840.961 5
 94  2 14 21 20 59.9850000  0  7 27 18  2 28 29 19 31
  17778121.044   -24755908.193 6 -18341153.119 5
  15711117.177   -44849043.749 7 -34857898.288 6
  20109134.185    -1790972.091 3  -1161970.087 1
  18837462.021   -18229462.977 5 -13831185.052 5
  17093006.552   -30571671.223 6 -23765808.426 6
  16428519.755   -37431307.515 7 -28842670.689 6
  18028831.302   -19189967.887 6 -14528941.802 5
 94  2 14 21 21 29.9850000  0  7 27 18  2 28 29 19 31
  17756400.185   -24870050.760 6 -18430095.318 5
  15702899.997   -44892233.595 7 -34891552.713 6
  20080877.442    -1939476.335 3  -1277687.352 1
  18827557.036   -18281510.515 5 -13871741.538 5
  17094932.177   -30561556.638 6 -23757926.957 6
  16414400.583   -37505511.812 7 -28900492.205 6
  18008368.786   -19297494.593 6 -14612728.748 5
 94  2 14 21 21 59.9850000  0  7 27 18  2 28 29 19 31
  17734698.161   -24984095.049 6 -18518960.934 5
  15694770.528   -44934958.593 7 -34924844.907 6
  20052633.692    -2087900.724 3  -1393342.352 1
  18817748.778   -18333045.880 5 -13911898.940 4
  17096932.919   -30551038.226 6 -23749730.810 6
  16400317.388   -37579512.867 7 -28958155.354 6
  17987985.903   -19404606.205 6 -14696192.242 5
 94  2 14 21 22 29.9850000  0  7 27 18  2 28 29 19 31
  17713012.200   -25098062.027 6 -18607766.314 5
  15686721.005   -44977242.253 7 -34957793.216 6
  20024402.880    -2236241.392 3  -1508932.086 1
  18808038.028   -18384083.594 5 -13951668.578 4
  17099006.528   -30540138.082 6 -23741237.223 6
  16386272.349   -37653324.764 7 -29015671.113 6
  17967684.317   -19511300.214 6 -14779330.315 5
 94  2 14 21 22 59.9850000  0  7 27 18  2 28 29 19 31
  17691337.442   -25211951.476 6 -18696511.297 5
  15678758.372   -45019104.435 7 -34990413.094 6
  19996191.685    -2384473.125 3  -1624436.955 1
  18798423.536   -18434615.201 5 -13991043.830 5
  17101151.208   -30528877.093 6 -23732462.454 6
  16372260.513   -37726955.090 6 -29073045.391 6
  17947464.872   -19617560.318 6 -14862130.294 5
 94  2 14 21 23 29.9850000  0  7 27 18  2 28 29 19 31
  17669680.732   -25325758.586 6 -18785192.113 5
  15670874.208   -45060531.697 7 -35022694.069 6
  19968010.146    -2532573.028 3  -1739839.087 1
  18788902.599   -18484624.155 5 -14030011.830 4
  17103359.278   -30517274.403 6 -23723421.431 6
  16358281.989   -37800403.099 7 -29130277.607 6
  17927324.888   -19723398.536 6 -14944601.522 5
 94  2 14 21 23 59.9840000  0  7 27 18  2 28 29 19 31
  17648043.086   -25439464.981 6 -18873794.441 5
  15663078.977   -45101497.336 7 -35054615.343 6
  19939863.297    -2680507.940 3  -1855112.690 1
  18779490.453   -18534093.314 5 -14068559.235 4
  17105628.555   -30505350.233 6 -23714129.910 6
  16344338.938   -37873677.373 7 -29187374.446 6
  17907266.242   -19828807.569 6 -15026738.330 5
 94  2 14 21 24 29.9840000  0  7 27 18  2 28 29 19 31
  17626422.672   -25553082.537 6 -18962327.541 5
  15655368.649   -45142011.096 7 -35086184.499 6
  19911741.399    -2828279.617 3  -1970259.113 1
  18770176.399   -18583044.700 5 -14106703.164 4
  17107954.586   -30493117.060 6 -23704597.593 6
  16330424.305   -37946807.106 7 -29244358.655 6
  17887284.469   -19933800.822 6 -15108551.140 5
 94  2 14 21 24 59.9840000  0  7 27 18  2 28 29 19 31
  17604823.461   -25666589.324 6 -19050774.334 5
  15647749.195   -45182049.452 7 -35117383.224 6
  19883654.274    -2975879.641 3  -2085271.792 1
  18760962.024   -18631473.410 5 -14144439.811 5
  17110345.766   -30480560.814 6 -23694813.537 6
  16316534.758   -38019799.143 7 -29301235.574 6
  17867385.359   -20038374.651 6 -15190037.133 5
 94  2 14 21 25 29.9840000  0  7 27 18  2 28 29 19 31
  17583246.359   -25779967.356 6 -19139120.813 5
  15640224.352   -45221596.870 7 -35148199.397 6
  19855597.609    -3123325.488 3  -2200164.347 2
  18751842.109   -18679385.368 5 -14181773.788 5
  17112799.156   -30467663.826 6 -23684763.969 6
  16302674.758   -38092637.946 7 -29357993.086 6
  17847566.695   -20142522.452 6 -15271191.159 5
 94  2 14 21 25 59.9840000  0  7 27 18  2 28 29 19 31
  17561697.688   -25893213.598 6 -19227364.603 5
  15632787.828   -45260677.811 7 -35178652.075 6
  19827562.375    -3270641.123 3  -2314955.481 1
  18742816.156   -18726815.274 5 -14218732.144 4
  17115318.750   -30454424.018 6 -23674447.269 6
  16288839.313   -38165330.369 7 -29414636.536 6
  17827830.688   -20246230.032 6 -15352002.171 5
 94  2 14 21 26 29.9840000  0  7 27 18  2 28 29 19 31
  17540178.664   -26006310.517 6 -19315492.031 5
  15625438.625   -45299292.590 7 -35208741.521 6
  19799555.563    -3417807.288 3  -2429630.191 1
  18733889.938   -18773737.120 5 -14255294.609 4
  17117909.141   -30440811.058 6 -23663839.800 6
  16275040.727   -38237849.410 7 -29471144.882 7
  17808180.844   -20349484.418 6 -15432460.026 5
 94  2 14 21 26 59.9840000  0  7 27 18  2 28 29 19 31
  17518677.828   -26119283.048 6 -19403522.532 5
  15618174.867   -45337468.089 7 -35238488.665 6
  19771577.344    -3564852.219 3  -2544210.444 1
  18725057.844   -18820136.460 5 -14291449.905 4
  17120565.727   -30426842.845 6 -23652955.505 6
  16261271.750   -38310204.482 7 -29527525.454 6
  17788616.914   -20452303.607 6 -15512578.777 5
 94  2 14 21 27 29.9840000  0  7 27 18  2 28 29 19 31
  17497202.484   -26232138.214 6 -19491461.592 5
  15610993.570   -45375198.803 7 -35267889.224 6
  19743619.211    -3711770.258 3  -2658691.825 2
  18716330.789   -18865998.726 5 -14327186.728 4
  17123295.688   -30412507.703 6 -23641785.302 6
  16247539.430   -38382369.398 7 -29583757.864 6
  17769134.422   -20554689.076 6 -15592359.575 5
 94  2 14 21 27 59.9840000  0  7 27 18  2 28 29 19 31
  17475753.203   -26344860.701 6 -19579297.261 5
  15603905.727   -45412450.163 7 -35296916.257 6
  19715694.992    -3858511.005 3  -2773035.108 1
  18707712.578   -18911288.814 5 -14362477.684 4
  17126100.945   -30397768.809 6 -23630300.476 6
  16233846.672   -38454324.234 7 -29639826.564 7
  17749737.414   -20656613.428 6 -15671781.059 5
 94  2 14 21 28 29.9840000  0  7 27 18  2 28 29 19 31
  17454325.813   -26457460.530 6 -19667037.352 5
  15596911.109   -45449213.489 7 -35325563.009 6
  19687800.399    -4005061.253 3  -2887229.929 1
  18699211.609   -18955980.929 5 -14397302.691 5
  17128983.945   -30382616.797 6 -23618493.756 6
  16220194.703   -38526059.134 7 -29695723.888 7
  17730431.086   -20758065.564 6 -15750834.579 5
 94  2 14 21 28 59.9840000  0  7 27 18  2 28 29 19 31
  17432920.641   -26569941.319 6 -19754684.695 6
  15590011.594   -45485464.267 7 -35353810.374 6
  19659948.391    -4151430.556 3  -3001283.737 2
  18690815.313   -19000085.816 5 -14431670.111 4
  17131946.891   -30367046.058 6 -23606360.748 6
  16206586.594   -38597572.220 7 -29751448.366 7
  17711219.953   -20859029.006 6 -15829507.302 5
 94  2 14 21 29 29.9840000  0  7 27 18  2 28 29 19 31
  17411540.789   -26682291.871 6 -19842230.549 6
  15583217.899   -45521167.839 7 -35381631.336 6
  19632139.024    -4297595.903 3  -3115178.673 1
  18682533.008   -19043615.622 5 -14465589.426 4
  17134990.070   -30351053.016 6 -23593898.664 6
  16193022.734   -38668850.522 7 -29806989.887 7
  17692102.164   -20959484.422 6 -15907784.164 5
 94  2 14 21 29 59.9840000  0  7 27 18  2 28 29 19 31
  17390186.242   -26794517.627 6 -19929679.176 6
  15576524.859   -45556345.389 7 -35409042.417 6
  19604352.344    -4443572.125 3  -3228926.204 2
  18674354.477   -19086587.330 5 -14499073.849 4
  17138105.078   -30334676.627 6 -23581137.882 6
  16179501.367   -38739910.826 7 -29862361.546 7
  17673083.102   -21059426.600 6 -15985661.100 5
 94  2 14 21 30 29.9840000  0  7 27 18  2 28 29 19 31
  17368854.688   -26906620.512 6 -20017032.055 5
  15569928.820   -45591000.362 7 -35436046.292 6
  19576610.547    -4589381.505 3  -3342543.738 2
  18666279.086   -19129003.772 5 -14532125.598 5
  17141293.688   -30317933.391 6 -23568091.237 6
  16166021.195   -38810753.472 7 -29917563.601 7
  17654163.766   -21158856.144 6 -16063138.578 5
 94  2 14 21 30 59.9840000  0  7 27 18  2 28 29 19 31
  17347545.828   -27018588.177 6 -20104279.572 6
  15563433.461   -45625133.585 7 -35462643.613 6
  19548897.477    -4735031.365 4  -3456036.957 1
  18658312.172   -19170878.548 5 -14564755.278 5
  17144545.750   -30300838.054 6 -23554770.243 6
  16152582.594   -38881380.104 7 -29972597.338 7
  17635336.438   -21257790.498 6 -16140230.200 5
 94  2 14 21 31 29.9840000  0  7 27 18  2 28 29 19 31
  17326267.016   -27130411.805 6 -20191414.850 5
  15557031.188   -45658775.748 7 -35488858.287 6
  19521209.805    -4880512.340 4  -3569398.579 1
  18650450.750   -19212216.315 5 -14596966.500 5
  17147862.570   -30283406.254 6 -23541187.070 6
  16139181.375   -38951796.719 7 -30027467.407 7
  17616602.203   -21356241.906 6 -16216945.506 5
 94  2 14 21 31 59.9840000  0  7 27 18  2 28 29 19 31
  17305016.859   -27242081.252 6 -20278429.979 5
  15550719.281   -45691946.600 7 -35514705.709 6
  19493562.399    -5025819.350 4  -3682624.623 1
  18642685.883   -19253011.040 5 -14628754.567 5
  17151244.742   -30265629.386 6 -23527335.012 6
  16125820.219   -39022008.969 7 -30082178.240 7
  17597957.188   -21454220.640 6 -16293292.494 5
 94  2 14 21 32 29.9840000  0  7 27 18  2 28 29 19 31
  17283793.547   -27353614.683 6 -20365339.145 5
  15544493.813   -45724658.896 7 -35540195.822 6
  19465940.977    -5170967.140 4  -3795726.601 1
  18635020.649   -19293283.295 5 -14660135.521 4
  17154693.797   -30247504.460 6 -23513211.734 6
  16112493.820   -39092048.386 7 -30136754.403 7
  17579396.281   -21551762.581 6 -16369299.123 5
 94  2 14 21 32 59.9840000  0  7 27 18  2 28 29 19 31
  17262595.570   -27465009.397 6 -20452140.201 6
  15538354.633   -45756921.910 7 -35565335.842 6
  19438351.656    -5315943.339 4  -3908694.851 1
  18627459.766   -19333036.792 5 -14691112.231 4
  17158209.281   -30229036.148 6 -23498820.884 6
  16099193.516   -39161926.807 7 -30191205.101 6
  17560917.188   -21648869.080 6 -16444966.458 5
 94  2 14 21 33 29.9840000  0  7 27 18  2 28 29 19 31
  17241419.859   -27576285.140 6 -20538848.541 6
  15532302.469   -45788723.817 7 -35590116.557 6
  19410795.102    -5460742.282 4  -4021524.989 1
  18619992.875   -19372264.294 5 -14721679.074 5
  17161788.922   -30210222.894 6 -23484161.245 6
  16085927.117   -39231650.892 7 -30245535.550 7
  17542525.672   -21745521.783 6 -16520280.181 5
 94  2 14 21 33 59.9840000  0  7 27 18  2 28 29 19 31
  17220265.422   -27687446.426 6 -20625467.706 6
  15526342.906   -45820044.109 7 -35614521.995 6
  19383272.594    -5605378.004 4  -4134227.930 1
  18612631.734   -19410952.636 5 -14751825.766 2
  17165437.617   -30191054.879 6 -23469225.166 6
  16072689.438   -39301212.067 7 -30299739.046 7
  17524222.305   -21841703.303 6 -16595226.755 5
 94  2 14 21 34 29.9840000  0  7 27 18  2 28 29 19 31
  17199131.930   -27798502.486 6 -20712004.869 5
  15520477.805   -45850865.277 7 -35638538.498 6
  19355779.352    -5749867.161 4  -4246816.662 2
  18605370.406   -19449105.873 5 -14781555.497 4
  17169148.305   -30171538.829 6 -23454017.898 6
  16059484.734   -39370603.867 7 -30353810.569 6
  17506013.602   -21937396.681 6 -16669792.969 5
 94  2 14 21 34 59.9840000  0  7 27 18  2 28 29 19 31
  17178017.461   -27909467.092 6 -20798470.767 6
  15514705.453   -45881196.524 7 -35662173.253 6
  19328305.234    -5894227.291 4  -4359304.877 1
  18598209.641   -19486731.487 5 -14810874.113 4
  17172925.922   -30151701.265 6 -23438560.102 5
  16046309.914   -39439833.041 7 -30407755.358 7
  17487898.906   -22032596.004 6 -16743974.190 5
 94  2 14 21 35 29.9840000  0  7 27 18  2 28 29 19 31
  17156918.609   -28020338.343 6 -20884863.904 6
  15509027.281   -45911039.642 7 -35685427.639 6
  19300857.453    -6038462.293 4  -4471695.581 2
  18591152.234   -19523826.255 5 -14839779.081 5
  17176762.031   -30131535.972 6 -23422846.917 5
  16033169.625   -39508890.515 7 -30461566.360 7
  17469872.078   -22127305.395 6 -16817773.649 5
 94  2 14 21 35 59.9840000  0  7 27 18  2 28 29 19 31
  17135844.195   -28131090.894 6 -20971164.560 6
  15503440.141   -45940402.794 7 -35708308.033 6
  19273436.609    -6182562.710 4  -4583981.416 2
  18584191.852   -19560384.221 5 -14868265.782 4
  17180662.625   -30111037.979 6 -23406874.494 6
  16020059.930   -39577776.243 7 -30515243.544 7
  17451943.672   -22221534.243 6 -16891198.653 5
 94  2 14 21 36 29.9840000  0  7 27 18  2 28 29 19 31
  17114792.289   -28241718.846 6 -21057368.111 6
  15497942.891   -45969287.025 7 -35730815.238 6
  19246045.695    -6326493.261 4  -4696134.926 1
  18577340.367   -19596394.796 5 -14896325.938 3
  17184630.375   -30090189.030 6 -23390628.588 6
  16006985.695   -39646490.072 7 -30568786.775 6
  17434103.141   -22315272.082 6 -16964241.047 5
 94  2 14 21 36 59.9840000  0  7 27 18  2 28 29 19 31
  17093763.109   -28352226.300 6 -21143477.768 6
  15492530.516   -45997726.597 7 -35752975.956 6
  19218693.766    -6470235.868 3  -4808141.971 1
  18570593.524   -19631851.265 5 -14923954.326 5
  17188665.422   -30068985.337 6 -23374106.272 5
  15993940.141   -39715043.433 7 -30622204.962 7
  17416359.930   -22408522.799 6 -17036903.881 5
 94  2 14 21 37 29.9840000  0  7 27 18  2 28 29 19 31
  17072759.258   -28462597.403 6 -21229481.169 6
  15487205.109   -46025714.071 7 -35774784.398 6
  19191380.602    -6613758.779 4  -4919977.851 1
  18563952.070   -19666753.345 5 -14951150.754 5
  17192771.672   -30047414.141 6 -23357297.599 5
  15980926.969   -39783420.555 7 -30675485.819 7
  17398709.789   -22501275.868 6 -17109178.928 5
 94  2 14 21 37 59.9840000  0  7 27 18  2 28 29 19 31
  17051781.781   -28572842.206 6 -21315386.158 6
  15481965.281   -46053245.731 7 -35796237.653 6
  19164110.578    -6757061.987 3  -5031642.556 2
  18557411.461   -19701117.082 5 -14977927.713 3
  17196945.719   -30025477.613 6 -23340204.236 6
  15967948.703   -39851623.548 7 -30728631.004 7
  17381155.320   -22593528.005 6 -17181063.643 6
 94  2 14 21 38 29.9830000  0  7 27 18  2 28 29 19 31
  17030824.151   -28682980.772 6 -21401208.357 6
  15476811.362   -46080332.257 7 -35817344.057 6
  19136882.839    -6900165.534 4  -5143151.679 1
  18550971.206   -19734977.996 5 -15004312.859 3
  17201186.308   -30003194.022 6 -23322840.441 5
  15955001.792   -39919660.074 7 -30781646.477 7
  17363690.667   -22685290.201 6 -17252566.593 5
 94  2 14 21 38 59.9830000  0  7 27 18  2 28 29 19 31
  17009885.292   -28793005.333 6 -21486941.721 6
  15471746.214   -46106953.341 7 -35838087.772 6
  19109685.144    -7043093.816 4  -5254524.226 1
  18544617.597   -19768349.866 5 -15030316.942 4
  17205488.284   -29980584.827 6 -23305222.933 5
  15942088.495   -39987526.381 7 -30834529.300 7
  17346321.589   -22776572.946 6 -17323695.942 5
 94  2 14 21 39 29.9830000  0  7 27 18  2 28 29 19 31
  16988968.456   -28902925.864 6 -21572594.022 6
  15466773.034   -46133085.126 7 -35858450.213 6
  19082515.667    -7185867.148 4  -5365776.050 2
  18538359.722   -19801246.434 5 -15055950.667 4
  17209845.925   -29957677.301 6 -23287372.961 5
  15929206.894   -40055216.348 7 -30887274.727 7
  17329037.386   -22867389.580 6 -17394462.099 5
 94  2 14 21 39 59.9830000  0  7 27 18  2 28 29 19 31
  16968072.956   -29012735.604 6 -21658159.997 6
  15461898.034   -46158705.655 7 -35878414.268 6
  19055375.097    -7328486.397 5  -5476907.809 3
  18532196.175   -19833634.698 5 -15081188.322 5
  17214267.706   -29934452.159 6 -23269275.500 6
  15916363.448   -40122709.488 7 -30939866.784 7
  17311846.964   -22957727.208 6 -17464855.011 5
 94  2 14 21 40 29.9830000  0  7 27 18  2 28 29 19 31
  16947207.980   -29122387.171 6 -21743602.716 6
  15457126.511   -46183776.723 7 -35897950.168 6
  19028272.159    -7470905.246 4  -5587883.423 2
  18526141.050   -19865454.814 5 -15105983.250 4
  17218754.534   -29910879.300 6 -23250907.076 5
  15903565.558   -40189956.183 7 -30992266.801 6
  17294759.855   -23047535.659 6 -17534835.563 5
 94  2 14 21 40 59.9830000  0  7 27 18  2 28 29 19 31
  16926373.480   -29231853.192 6 -21828900.860 6
  15452465.566   -46208269.453 7 -35917035.418 6
  19001222.823    -7613080.323 5  -5698669.063 1
  18520208.792   -19896648.829 5 -15130290.306 5
  17223309.441   -29886933.852 6 -23232248.330 6
  15890824.675   -40256912.747 7 -31044440.754 7
  17277777.667   -23136768.535 6 -17604367.632 6
 94  2 14 21 41 29.9830000  0  7 27 18  2 28 29 19 31
  16905575.550   -29341156.200 6 -21914071.998 6
  15447908.526   -46232217.907 7 -35935696.552 7
  18974208.636    -7755025.422 5  -5809275.499 2
  18514383.386   -19927233.468 5 -15154122.532 5
  17227938.112   -29862614.994 6 -23213298.616 6
  15878135.105   -40323602.557 7 -31096406.834 7
  17260905.495   -23225438.617 6 -17673461.165 6
 94  2 14 21 41 59.9830000  0  7 27 18  2 28 29 19 31
  16884804.347   -29450308.201 6 -21999125.471 6
  15443445.191   -46255670.025 7 -35953970.936 7
  18947234.394    -7896761.079 5  -5919718.734 2
  18508672.386   -19957247.973 5 -15177510.485 4
  17232632.206   -29837943.296 6 -23194073.963 6
  15865484.409   -40390081.803 7 -31148208.852 7
  17244135.401   -23313572.072 6 -17742136.556 6
 94  2 14 21 42 29.9830000  0  7 27 18  2 28 29 19 31
  16864063.347   -29559302.987 6 -22084056.439 6
  15439077.066   -46278633.628 7 -35971864.658 7
  18920304.370    -8038283.306 5  -6029995.649 3
  18503070.792   -19986701.273 5 -15200461.127 5
  17237393.448   -29812927.318 6 -23174581.037 6
  15852868.394   -40456379.841 7 -31199869.666 7
  17227466.050   -23401161.893 6 -17810388.342 6
 94  2 14 21 42 59.9830000  0  7 27 18  2 28 29 19 31
  16843347.823   -29668158.428 6 -22168878.832 6
  15434799.519   -46301108.412 7 -35989377.484 7
  18893410.089    -8179608.322 5  -6140118.873 4
  18497569.011   -20015610.383 5 -15222987.703 5
  17242218.722   -29787566.518 6 -23154819.424 6
  15840280.433   -40522528.507 7 -31251414.094 7
  17210900.472   -23488221.864 6 -17878227.260 6
 94  2 14 21 43 29.9830000  0  8 27 18  2 28 16 29 19 31
  16822664.222   -29776861.297 6 -22253582.343 6
  15430617.964   -46323081.494 7 -36006499.366 7
  18866556.331    -8320727.470 5  -6250081.681 3
  18492169.722   -20043974.286 5 -15245089.448 5
  19794331.714          -0.48413
  17247115.433   -29761842.781 6 -23134775.003 6
  15827720.417   -40588534.780 7 -31302847.561 7
  17194433.081   -23574745.126 6 -17945647.950 6
 94  2 14 21 43 59.9830000  0  8 27 18  2 28 16 29 19 31
  16802005.409   -29885420.500 6 -22338173.908 6
  15426532.558   -46344547.379 7 -36023226.038 7
  18839745.722    -8461632.919 5  -6359877.980 4
  18486876.589   -20071779.592 5 -15266755.908 5
  19771837.948     -118249.928 3
  17252074.448   -29735771.089 6 -23114459.444 6
  15815189.394   -40654395.069 7 -31354167.268 7
  17178073.230   -23660729.293 6 -18012648.571 6
 94  2 14 21 44 29.9830000  0  8 27 18  2 28 16 29 19 31
  16781370.105   -29993855.282 6 -22422668.520 6
  15422543.948   -46365507.103 7 -36039558.309 7
  18812970.776    -8602337.386 5  -6469517.678 2
  18481691.597   -20099031.008 5 -15287990.775 5
  19749414.706     -236033.670 3        -0.40911
  17257103.503   -29709351.952 6 -23093873.154 6
  15802689.401   -40720074.323 7 -31405345.902 7
  17161813.003   -23746168.307 6 -18079224.395 6
 94  2 14 21 44 59.9830000  0  8 27 18  2 28 16 29 19 31
  16760761.003   -30102157.216 6 -22507059.622 6
  15418652.542   -46385962.623 7 -36055497.678 7
  18786233.292    -8742829.131 5  -6578991.640 2
  18476609.003   -20125727.651 5 -15308793.347 3
  19727088.456     -353366.569 3    -91428.580 1
  17262195.808   -29682582.781 6 -23073014.114 6
  15790232.816   -40785529.842 7 -31456350.203 7
  17145660.956   -23831054.504 6 -18145369.449 6
 94  2 14 21 45 29.9830000  0  8 27 18  2 28 16 29 19 31
  16740181.347   -30210308.010 6 -22591332.951 6
  15414852.894   -46405931.666 7 -36071057.981 7
  18759541.972    -8883098.015 5  -6688291.933 2
  18471637.167   -20151870.161 5 -15329164.142 5
  19704848.253     -470256.822 3   -182511.848 1
  17267356.847   -29655464.330 6 -23051882.904 6
  15777823.276   -40850746.274 7 -31507168.197 7
  17129611.191   -23915383.655 6 -18211080.437 6
 94  2 14 21 45 59.9830000  0  8 27 18  2 28 16 29 19 31
  16719629.753   -30318305.468 6 -22675486.806 6
  15411141.737   -46425432.386 7 -36086253.361 7
  18732889.112    -9023154.746 5  -6797426.930 3
  18466764.370   -20177472.808 5 -15349114.268 5
  19682682.441     -586727.918 3
  17272582.276   -29628009.872 6 -23030489.872 6
  15765457.097   -40915728.314 7 -31557803.549 7
  17113668.081   -23999164.289 6 -18276364.006 6
 94  2 14 21 46 29.9830000  0  8 27 18  2 28 16 29 19 31
  16699111.066   -30426132.894 6 -22759508.146 6
  15407520.362   -46444461.450 7 -36101081.211 7
  18706278.448    -9162991.437 5  -6906390.468 2
  18461996.776   -20202529.827 5 -15368639.233 5
  19660597.550     -702771.523 3        -0.02111
  17277872.925   -29600210.292 6 -23008827.917 6
  15753139.120   -40980464.905 7 -31608247.644 7
  17097834.378   -24082380.310 6 -18341207.620 6
 94  2 14 21 46 59.9830000  0  8 27 18  2 28 16 29 19 31
  16678628.198   -30533771.886 6 -22843382.670 6
  15403994.331   -46462992.400 7 -36115520.931 7
  18679718.675    -9302578.534 5  -7015159.533 3
  18457339.120   -20227011.286 5 -15387715.721 5
  19638600.784     -818369.870 3    -90076.591 2
  17283228.597   -29572053.704 6 -22986887.770 6
  15740866.144   -41044964.952 7 -31658507.419 7
  17082109.948   -24165009.894 6 -18405594.256 6
 94  2 14 21 47 29.9830000  0  8 27 18  2 28 16 29 19 31
  16658181.245   -30641218.497 6 -22927107.279 6
  15400569.597   -46480987.224 7 -36129542.891 7
  18653204.589    -9441898.046 5  -7123720.092 3
  18452795.659   -20250901.385 5 -15406331.410 5
  19616691.159     -933496.241 3   -179785.360 1
  17288659.316   -29543517.567 6 -22964651.879 6
  15728633.737   -41109234.964 7 -31708587.946 7
  17066502.761   -24247037.978 6 -18469512.191 6
 94  2 14 21 47 59.9830000  0  8 27 18  2 28 16 29 19 31
  16637764.261   -30748491.146 6 -23010696.329 6
  15397252.448   -46498432.286 7 -36143136.465 7
  18626744.519    -9580956.752 5  -7232077.427 3
  18448360.659   -20274195.087 5 -15424482.382 5
  19594870.237    -1048149.772 3   -269125.722 1
  17294161.066   -29514612.664 6 -22942128.627 5
  15716449.409   -41173266.250 7 -31758482.442 7
  17051005.097   -24328465.730 6 -18532962.326 6
 94  2 14 21 48 29.9830000  0  8 27 18  2 28 16 29 19 31
  16617382.011   -30855618.394 6 -23094172.080 6
  15394033.214   -46515340.073 7 -36156311.381 7
  18600328.308    -9719770.843 5  -7340244.166 3
  18444034.034   -20296912.860 5 -15442184.581 5
  19573147.956    -1162339.952 3   -358105.004 1
  17299728.636   -29485346.921 6 -22919324.226 6
  15704306.433   -41237079.310 7 -31808206.892 7
  17035623.706   -24409300.760 6 -18595950.607 6
 94  2 14 21 48 59.9830000  0  8 27 18  2 28 16 29 19 31
  16597023.316   -30962604.450 6 -23177537.817 7
  15390916.878   -46531713.799 7 -36169070.147 7
  18573957.784    -9858338.599 5  -7448218.970 4
  18439822.706   -20319062.897 5 -15459444.394 4
  19551505.667    -1276060.753 3   -446718.562 1
  17305368.151   -29455712.613 6 -22896232.607 5
  15692201.659   -41300686.201 7 -31857770.699 7
  17020351.964   -24489550.841 6 -18658483.093 6
 94  2 14 21 49 29.9830000  0  8 27 18  2 28 16 29 19 31
  16576695.284   -31069430.529 6 -23260778.883 6
  15387899.144   -46547566.784 7 -36181423.142 7
  18547636.073    -9996660.171 5  -7556001.922 4
  18435716.105   -20340651.465 5 -15476266.684 4
  19529958.175    -1389292.024 3   -534950.631 2
  17311078.823   -29425709.860 6 -22872853.915 6
  15680139.394   -41364075.591 7 -31907165.025 7
  17005189.362   -24569230.268 6 -18720570.905 6
 94  2 14 21 49 59.9830000  0  8 27 18  2 28 16 29 19 31
  16556394.784   -31176107.712 6 -23343903.927 7
  15384973.644   -46562948.101 7 -36193408.614 7
  18521354.362   -10134771.695 5  -7663621.232 3
  18431710.003   -20361703.292 5 -15492670.726 4
  19508501.534    -1502062.962 3   -622824.038 2
  17316852.581   -29395367.388 6 -22849210.498 6
  15668113.003   -41427270.616 7 -31956407.893 7
  16990132.925   -24648365.138 6 -18782234.396 6
 94  2 14 21 50 29.9830000  0  8 27 18  2 28 16 29 19 31
  16536127.487   -31282620.489 6 -23426900.851 6
  15382136.987   -46577852.434 7 -36205022.411 7
  18495116.612   -10272659.191 5  -7771065.950 4
  18427801.331   -20382224.204 5 -15508661.073 4
  19487125.566    -1614376.176 3   -710340.768 1
  17322689.519   -29364684.903 6 -22825302.133 5
  15656121.605   -41490286.888 7 -32005511.472 7
  16975178.066   -24726948.984 6 -18843468.517 6
 94  2 14 21 50 59.9830000  0  8 27 18  2 28 16 29 19 31
  16515885.589   -31388981.956 6 -23509779.878 6
  15379391.198   -46592278.036 7 -36216263.167 6
  18468918.659   -10410331.887 5  -7878343.312 4
  18423998.667   -20402221.976 5 -15524243.772 5
  19465836.487    -1726245.334 3   -797511.479 1
  17328587.550   -29333696.885 6 -22801155.691 5
  15644164.800   -41553120.804 7 -32054472.959 6
  16960323.784   -24805006.573 6 -18904292.575 6
 94  2 14 21 51 29.9830000  0  8 27 18  2 28 16 29 19 31
  16495676.011   -31495188.249 6 -23592538.034 6
  15376742.058   -46606208.608 7 -36227118.229 7
  18442761.128   -10547798.567 5  -7985460.182 4
  18420289.433   -20421696.053 5 -15539418.459 5
  19444632.519    -1837676.172 3   -884340.647 1
  17334540.948   -29302411.915 6 -22776777.914 5
  15632244.675   -41615765.435 7 -32103286.992 7
  16945569.003   -24882537.062 6 -18964705.953 6
 94  2 14 21 51 59.9830000  0  8 27 18  2 28 16 29 19 31
  16475492.159   -31601257.895 6 -23675189.620 7
  15374189.034   -46619619.269 7 -36237568.079 7
  18416637.831   -10685052.797 5  -8092411.417 4
  18416688.011   -20440640.596 5 -15554180.424 5
  19423513.081    -1948673.814 3   -970832.223 1
  17340550.433   -29270830.303 6 -22752168.893 5
  15620358.480   -41678222.459 7 -32151954.751 7
  16930920.276   -24959524.501 6 -19024696.090 6
 94  2 14 21 52 29.9830000  0  8 27 18  2 28 16 29 19 31
  16455329.925   -31707212.569 6 -23757751.662 7
  15371735.948   -46632505.892 7 -36247609.633 7
  18390562.253   -10822091.278 5  -8199194.580 3
  18413180.714   -20459064.728 5 -15568536.914 5
  19402478.776    -2059219.937 3  -1056971.993 2
  17346616.558   -29238958.983 6 -22727334.168 5
  15608510.816   -41740489.969 7 -32200474.874 7
  16916372.566   -25035968.410 6 -19084262.737 6
 94  2 14 21 52 59.9830000  0  8 27 18  2 28 16 29 19 31
  16435191.706   -31813044.808 6 -23840218.307 7
  15369383.941   -46644868.298 7 -36257242.714 7
  18364527.722   -10958911.662 5  -8305807.801 4
  18409777.542   -20476953.276 5 -15582476.101 4
  19381533.128    -2169278.457 3  -1142731.794 1
  17352740.058   -29206776.308 6 -22702256.825 6
  15596700.972   -41802544.225 7 -32248828.829 7
  16901930.003   -25111858.398 6 -19143397.755 6
 94  2 14 21 53 29.9820000  0  8 27 18  2 28 16 29 19 31
  16415077.686   -31918737.039 6 -23922575.868 7
  15367128.029   -46656727.924 7 -36266484.010 7
  18338535.490   -11095498.279 5  -8412238.877 3
  18406478.139   -20494294.263 5 -15595988.593 5
  19360684.701    -2278837.145 3  -1228102.148 2
  17358924.811   -29174269.338 6 -22676926.784 5
  15584931.240   -41864396.831 7 -32297025.664 7
  16887600.615   -25187175.177 6 -19202086.136 6
 94  2 14 21 53 59.9820000  0  8 27 18  2 28 16 29 19 31
  16394990.365   -32024298.575 6 -24004831.573 7
  15364962.561   -46668110.265 7 -36275353.403 7
  18312587.147   -11231856.566 5  -8518492.008 2
  18403278.545   -20511091.585 5 -15609077.483 5
  19339931.147    -2387895.465 3  -1313082.601 1
  17365172.647   -29141443.758 6 -22651348.483 5
  15573199.545   -41926051.256 7 -32345068.064 7
  16873376.397   -25261911.646 6 -19260322.325 6
 94  2 14 21 54 29.9820000  0  8 27 18  2 28 16 29 19 31
  16374931.920   -32129704.273 6 -24086965.864 7
  15362884.850   -46679025.790 7 -36283859.032 7
  18286682.256   -11367982.598 5  -8624564.182 4
  18400189.279   -20527343.344 5 -15621741.254 4
  19319272.014    -2496454.217 3  -1397673.807 2
  17371481.037   -29108303.353 6 -22625524.867 5
  15561505.428   -41987500.257 7 -32392950.394 7
  16859266.834   -25336065.075 6 -19318104.206 6
 94  2 14 21 54 59.9820000  0  8 27 18  2 28 16 29 19 31
  16354908.678   -32234925.847 6 -24168956.675 7
  15360898.193   -46689467.714 7 -36291995.624 7
  18260825.740   -11503866.674 5  -8730447.816 5
  18397206.139   -20543025.502 5 -15633961.195 5
  19298709.967    -2604538.370 3  -1481895.139 2
  17377847.647   -29074837.147 6 -22599447.368 5
  15549852.397   -42048736.788 7 -32440667.160 7
  16845271.092   -25409616.152 6 -19375416.723 6
 94  2 14 21 55 29.9820000  0  8 27 18  2 28 16 29 19 31
  16334923.615   -32339941.963 6 -24250787.393 6
  15359004.443   -46699417.410 7 -36299748.662 7
  18235015.412   -11639493.593 5  -8836131.046 5
  18394327.615   -20558130.824 5 -15645731.648 5
  19278226.897    -2712151.552 3  -1565749.519 2
  17384281.553   -29041030.221 6 -22573104.395 6
  15538243.639   -42109748.566 7 -32488208.795 7
  16831391.014   -25482545.283 6 -19432244.602 6
 94  2 14 21 55 59.9820000  0  8 27 18  2 28 16 29 19 31
  16314978.475   -32444764.533 6 -24332467.295 6
  15357206.936   -46708858.961 7 -36307105.741 7
  18209255.022   -11774869.291 5  -8941618.542 4
  18391563.733   -20572676.547 5 -15657066.052 4
  19257838.959    -2819290.794 3  -1649234.603 1
  17390780.584   -29006885.886 6 -22546498.496 5
  15526676.615   -42170522.055 7 -32535564.758 7
  16817632.693   -25554857.469 6 -19488591.757 6
 94  2 14 21 56 29.9820000  0  8 27 18  2 28 16 29 19 31
  16295068.709   -32549394.082 6 -24413996.797 7
  15355508.756   -46717783.292 7 -36314059.793 7
  18183547.061   -11909980.869 5  -9046900.196 5
  18388902.186   -20586667.312 5 -15667968.029 5
  19237541.608    -2925954.485 3  -1732349.108 2
  17397341.787   -28972404.194 6 -22519629.745 5
  15515156.186   -42231064.140 7 -32582740.408 7
  16803987.108   -25626558.354 6 -19544462.581 6
 94  2 14 21 56 59.9820000  0  8 27 18  2 28 16 29 19 31
  16275196.928   -32653819.150 6 -24495366.961 6
  15353914.568   -46726163.476 7 -36320589.830 7
  18157889.389   -12044801.202 5  -9151954.920 4
  18386343.139   -20600092.468 5 -15678429.268 5
  19217339.959    -3032106.027 3  -1815064.558 2
  17403970.647   -28937560.775 6 -22492479.120 6
  15503685.631   -42291352.039 7 -32629717.986 7
  16790462.889   -25697626.596 6 -19599840.438 6
 94  2 14 21 57 29.9820000  0  8 27 18  2 28 16 29 19 31
  16255364.842   -32758037.697 6 -24576576.199 6
  15352426.693   -46733981.995 7 -36326682.204 7
  18132291.623   -12179311.422 5  -9256767.978 5
  18383895.201   -20612965.713 5 -15688460.446 5
  19197246.670    -3137701.601 3  -1897346.785 2
  17410668.772   -28902360.450 6 -22465050.386 5
  15492262.858   -42351372.747 7 -32676487.359 7
  16777062.186   -25768056.717 6 -19654721.060 6
 94  2 14 21 57 59.9820000  0  8 27 18  2 28 16 29 19 31
  16235569.256   -32862061.156 6 -24657633.423 6
  15351043.240   -46741248.871 7 -36332344.727 7
  18106752.764   -12313515.192 5  -9361342.255 5
  18381551.076   -20625294.516 5 -15698067.347 4
  19177258.818    -3242750.624 3  -1979203.136 1
  17417431.123   -28866828.508 6 -22437363.253 5
  15480889.717   -42411144.550 7 -32723062.782 7
  16763775.451   -25837864.044 6 -19709116.396 6
 94  2 14 21 58 29.9820000  0  8 27 18  2 28 16 29 19 31
  16215817.951   -32965859.988 6 -24738515.603 7
  15349766.529   -46747960.825 7 -36337574.847 7
  18081271.662   -12447409.506 5  -9465675.389 4
  18379310.858   -20637059.785 5 -15707235.134 4
  19157366.404    -3347258.746 3  -2060637.971 1
  17424256.584   -28830950.477 6 -22409406.444 5
  15469562.506   -42470663.082 7 -32769440.854 7
  16750616.201   -25907030.318 6 -19763012.207 6
 94  2 14 21 58 59.9820000  0  8 27 18  2 28 16 29 19 31
  16196107.787   -33069432.632 6 -24819221.534 7
  15348595.420   -46754115.660 7 -36342370.859 7
  18055853.084   -12581001.945 5  -9569773.289 4
  18377179.483   -20648252.408 5 -15715956.696 4
  19137582.201    -3451233.610 3  -2141657.299 2
  17431154.873   -28794700.592 6 -22381159.890 5
  15458285.740   -42529921.928 7 -32815616.571 7
  16737575.834   -25975550.498 6 -19816404.563 6
 94  2 14 21 59 29.9820000  0  8 27 18  2 28 16 29 19 31
  16176438.248   -33172794.232 6
  15347526.811   -46759728.027 7 -36346744.165 7
  18030486.975   -12714303.010 5  -9673644.136 5
  18375162.568   -20658859.492 5 -15724221.977 4
  19117899.998    -3554686.953 3
  17438125.240   -28758077.968 6 -22352622.880 5
  15447057.998   -42588930.459 7 -32861597.249 7
  16724657.154   -26043421.972 6 -19869291.439 6
 94  2 14 21 59 59.9820000  0  8 27 18  2 28 16 29 19 31
  16156802.772   -33275979.357 6 -24980166.988 7
  15346554.272   -46764841.349 7 -36350728.600 7
  18005167.264   -12847350.853 5  -9777317.671 5
  18373253.178   -20668899.761 5 -15732045.577 5
  19098304.803    -3657664.465 3  -2302512.441 2
  17445162.670   -28721102.024 6 -22323810.558 5
  15435867.170   -42647727.923 7 -32907413.456 7
  16711862.787   -26110677.938 6 -19921698.700 6
 94  2 14 22  0 29.9820000  0  8 27 18  2 28 16 29 19 31
  16137199.592   -33378999.864 6 -25060442.691 7
  15345676.733   -46769457.937 7 -36354325.969 7
  17979895.662   -12980147.185 5  -9880795.234 5
  18371447.389   -20678382.281 5 -15739434.589 5
  19078794.990    -3760159.360 3  -2382378.552 1
  17452264.951   -28683769.259 6 -22294720.193 5
  15424720.443   -42706305.099 7 -32953058.018 7
  16699178.670   -26177317.932 6 -19973625.980 6
 94  2 14 22  0 59.9820000  0  8 27 18  2 28 16 29 19 31
  16117621.920   -33481882.356 6 -25140610.849 7
  15344894.412   -46773566.815 7 -36357527.723 7
  17954678.483   -13112683.072 5  -9984069.842 5
  18369745.553   -20687312.813 5 -15746393.474 3
  19059388.123    -3862141.599 3  -2461845.219 2
  17459434.576   -28646095.077 6 -22265363.791 5
  15413617.256   -42764660.047 7 -32998529.414 7
  16686613.967   -26243346.553 6 -20025076.852 6
 94  2 14 22  1 29.9820000  0  8 27 18  2 28 16 29 19 31
  16098071.568   -33584615.910 6 -25220662.950 7
  15344209.248   -46777171.611 7 -36360336.690 7
  17929505.006   -13244958.733 5 -10087141.688 5
  18368150.912   -20695697.808 5 -15752927.273 3
  19040085.592    -3963588.322 3  -2540894.594 1
  17466662.686   -28608109.981 6 -22235765.113 5
  15402555.865   -42822786.288 7 -33043822.605 7
  16674165.897   -26308771.634 6 -20076057.435 6
 94  2 14 22  1 59.9820000  0  8 27 18  2 28 16 29 19 31
  16078557.092   -33687159.665 6 -25300567.157 6
  15343621.865   -46780253.774 7 -36362738.401 6
  17904389.537   -13376939.049 5 -10189983.421 4
  18366656.811   -20703540.893 5 -15759038.823 4
  19020891.193    -4064470.147 3  -2619503.763 1
  17473952.420   -28569810.010 6 -22205921.082 5
  15391543.068   -42880658.864 7 -33088918.129 7
  16661834.178   -26373573.482 6 -20126552.369 6
 94  2 14 22  2 29.9820000  0  8 27 18  2 28 16 29 19 31
  16059080.686   -33789517.457 6 -25380326.463 6
  15343134.061   -46782807.790 7 -36364728.577 6
  17879331.006   -13508634.120 5 -10292602.870 4
  18365269.154   -20710850.214 5 -15764734.463 4
  19001794.740    -4164787.149 3  -2697672.855 1
  17481297.240   -28531212.606 5 -22175845.279 5
  15380577.350   -42938279.510 7 -33133817.341 7
  16649622.412   -26437753.584 6 -20176562.829 6
 94  2 14 22  2 59.9820000  0  8 27 18  2 28 16 29 19 31
  16039634.467   -33891702.220 6 -25459950.940 6
  15342743.201   -46784873.451 7 -36366338.215 6
  17854315.803   -13640075.062 5 -10395024.339 4
  18363975.912   -20717642.698 5 -15770027.352 3
  18982810.326    -4264565.818 3  -2775422.428 1
  17488691.983   -28492348.204 5 -22145561.420 5
  15369654.397   -42995681.685 7 -33178546.319 7
  16637523.561   -26501338.067 6 -20226109.166 6
 94  2 14 22  3 29.9820000  0  8 27 18  2 28 16 29 19 31
  16020224.404   -33993702.659 6 -25539431.804 6
  15342435.975   -46786472.887 7 -36367584.570 6
  17829352.826   -13771256.409 5 -10497243.503 4
  18362783.787   -20723916.573 5 -15774916.151 3
  18963922.154    -4363829.458 3  -2852770.689 1
  17496139.975   -28453213.721 5 -22115067.119 5
  15358773.326   -43052871.112 7 -33223109.511 7
  16625534.943   -26564319.869 6 -20275185.888 6
 94  2 14 22  3 59.9820000  0  8 27 18  2 28 16 29 19 31
  16000845.803   -34095533.261 6 -25618780.311 7
  15342224.529   -46787593.675 7 -36368457.951 7
  17804439.108   -13902174.033 5 -10599257.192 4
  18361683.943   -20729678.668 5 -15779406.158 5
  18945126.568    -4462605.724 3  -2929739.220 1
  17503639.115   -28413799.095 5 -22084354.528 5
  15347927.475   -43109856.899 7 -33267514.023 7
  16613667.865   -26626699.028 6 -20323792.997 6
 94  2 14 22  4 29.9820000  0  8 27 18  2 28 16 29 19 31
  15981499.092   -34197207.659 6 -25698007.112 6
  15342102.420   -46788237.791 7 -36368959.889 6
  17779573.201   -14032849.828 5 -10701082.445 4
  18360687.733   -20734920.921 5 -15783491.124 4
  18926419.725    -4560910.442 3  -3006340.283 2
  17511196.225   -28374097.739 5 -22053418.507 4
  15337123.240   -43166639.875 7 -33311760.506 7
  16601906.693   -26688491.236 6 -20371942.752 6
 94  2 14 22  4 59.9820000  0  8 27 18  2 28 16 29 19 31
  15962182.576   -34298713.891 6 -25777102.873 6
  15342068.576   -46788411.254 7
  17754756.115   -14163267.422 5 -10802706.518 5
  18359786.920   -20739637.962 5 -15787166.802 4
  18907802.725    -4658733.272 3  -3082565.846 2
  17518807.983   -28334088.458 5 -22022242.552 4
  15326358.678   -43223213.503 7 -33355843.849 7
  16590262.061   -26749682.546 6 -20419624.290 6
 94  2 14 22  5 29.9820000  0  8 27 18  2 28 16 29 19 31
  15942899.412   -34400047.894 6 -25856064.422 6
  15342133.084   -46788085.608 7
  17729992.904   -14293409.538 5 -10904115.916 5
  18358993.943   -20743828.914 5 -15790432.549 2
  18889281.928    -4756068.392 3  -3158411.340 1
  17526482.803   -28293759.253 5 -21990817.301 3
  15315632.233   -43279567.675 7 -33399756.198 7
  16578735.842   -26810262.685 6 -20466829.585 6
 94  2 14 22  5 59.9820000  0  8 27 18  2 28 16 29 19 31
  15923651.170   -34501202.275 6 -25934886.016 6
  15342289.529   -46787248.190 7 -36368188.879 6
  17705275.420   -14423289.629 5 -11005321.161 4
  18358294.170   -20747494.837 5 -15793289.180 3
  18870851.904    -4852906.625 3  -3233869.704 1
  17534216.717   -28253116.248 5 -21959147.515 4
  15304953.053   -43335694.334 7 -33443491.257 7
  16567323.022   -26870228.802 6 -20513556.422 6
 94  2 14 22  6 29.9820000  0  8 27 18  2 28 16 29 19 31
  15904437.436   -34602167.569 6 -26013560.264 6
  15342542.881   -46785919.468 7 -36367153.552 6
  17680606.990   -14552921.456 5 -11106332.943 4
  18357695.397   -20750629.344 5 -15795731.722 3
  18852526.467    -4949226.947 3  -3308924.468 2
  17542007.108   -28212174.066 5 -21927244.615 5
  15294314.053   -43391600.364 7 -33487054.393 7
  16556032.764   -26929573.914 6 -20559799.368 6
 94  2 14 22  6 59.9820000  0  8 27 18  2 28 16 29 19 31
  15885263.256   -34702927.633 6 -26092074.596 6
  15342895.295   -46784070.695 7 -36365712.980 6
  17655993.983   -14682272.893 5 -11207126.251 4
  18357206.787   -20753213.615 5 -15797745.518 2
  18834301.983    -5044992.404 3  -3383546.890 2
  17549855.295   -28170932.573 5 -21895108.487 4
  15283720.108   -43447274.845 7 -33530437.101 7
  16544860.318   -26988271.912 6 -20605538.070 6
 94  2 14 22  7 29.9820000  0  8 27 18  2 28 16 29 19 31
  15866125.045   -34803504.683 6 -26170446.314 6
  15343345.779   -46781705.491 7 -36363869.998 6
  17631428.334   -14811358.664 5 -11307712.538 5
  18356813.904   -20755268.621 5 -15799346.893 3
  18816176.037    -5140226.765 3  -3457755.461 2
  17557757.686   -28129417.708 5 -21862759.354 4
  15273166.897   -43502729.760 7 -33573648.723 7
  16533807.795   -27046349.848 6 -20650793.614 6
 94  2 14 22  7 59.9820000  0  8 27 18  2 28 16 29 19 31
  15847012.897   -34903927.205 6 -26248697.626 6
  15343888.342   -46778862.023 7 -36361654.345 6
  17606913.053   -14940198.714 5 -11408107.359 5
  18356524.756   -20756810.637 5 -15800548.544 4
  18798156.303    -5234943.356 3  -3531560.581 1
  17565701.576   -28087657.900 5 -21830219.364 4
  15262650.865   -43557983.549 7 -33616703.625 7
  16522871.006   -27103836.182 6 -20695588.171 6
 94  2 14 22  8 29.9810000  0  8 27 18  2 28 16 29 19 31
  15827930.735   -35004209.494 6 -26326839.663 6
  15344517.064   -46775554.194 7 -36359076.849 6
  17582442.025   -15068772.723 5 -11508294.867 5
  18356327.829   -20757849.036 5 -15801357.744 3
  18780230.478    -5329143.589 3  -3604963.352 1
  17573695.400   -28045656.043 5 -21797490.737 2
  15252174.142   -43613042.176 7 -33659606.449 7
  16512043.173   -27160743.478 6 -20739931.533 6
 94  2 14 22  8 59.9810000  0  8 27 18  2 28 16 29 19 31
  15808872.579   -35104369.877 6 -26404886.710 6
  15345237.001   -46771770.729 7 -36356128.726 6
  17558031.548   -15197066.240 5 -11608263.817 4
  18356220.837   -20758388.046 5 -15801777.866 1
  18762399.392    -5422847.386 3  -3677979.247 2
  17581739.946   -28003392.470 5 -21764558.194 3
  15241736.493   -43667893.481 7 -33702347.721 7
  16501321.915   -27217076.997 6 -20783827.791 6
 94  2 14 22  9 29.9810000  0  8 27 18  2 28 16 29 19 31
  15789837.946   -35204391.504 6 -26482825.638 7
  15346045.025   -46767527.131 7 -36352822.058 6
  17533675.235   -15325065.053 5 -11708003.127 5
  18356214.321   -20758431.376 5
  18744662.118    -5516057.491 3  -3750610.491 2
  17589835.853   -27960846.964 5 -21731405.955 4
  15231340.579   -43722530.784 7 -33744922.250 7
  16490715.775   -27272817.675 6 -20827262.112 6
 94  2 14 22  9 59.9810000  0  8 27 18  2 28 16 29 19 31
  15770833.204   -35304263.926 6 -26560648.299 6
  15346937.603   -46762834.742 7 -36349165.684 6
  17509370.376   -15452775.593 5 -11807517.797 5
  18356298.056   -20757985.229 5
  18727015.954    -5608769.468 3  -3822853.566 1
  17597983.110   -27918030.330 5 -21698042.465 4
  15220981.204   -43776961.378 7 -33787335.708 7
  16480219.665   -27327956.216 6 -20870227.216 6
 94  2 14 22 10 29.9810000  0  8 27 18  2 28 16 29 19 31
  15751862.079   -35403950.807 6 -26638326.376 6
  15347920.884   -46757660.027 7 -36345133.479 6
  17485124.165   -15580190.774 5 -11906802.325 4
  18356478.165   -20757047.193 5 -15800733.387 2
  18709472.978    -5700970.738 3  -3894698.697 1
  17606188.493   -27874912.869 5 -21664444.555 4
  15210668.275   -43831172.738 7
  16469844.439   -27382467.206 6
 94  2 14 22 10 59.9810000  0  8 27 18  2 28 16 29 19 31
  15732928.657   -35503455.574 6 -26715862.548 6
  15348995.821   -46752014.434 7 -36340734.353 6
  17460929.595   -15707348.328 5 -12005886.121 5
  18356743.712   -20755640.920 5 -15799637.690 2
  18692017.603    -5792674.901 3  -3966156.458 2
  17614446.126   -27831508.736 5 -21630623.262 3
  15200389.204   -43885186.117 7 -33871666.682 7
  16459591.251   -27436359.586 6 -20954697.405 6
 94  2 14 22 11 29.9810000  0  8 27 18  2 28 16 29 19 31
  15714029.517   -35602768.227 6 -26793249.015 6
  15350157.829   -46745914.994 7 -36335981.578 6
  17436772.493   -15834271.656 5 -12104787.384 5
  18357098.478   -20753786.529 5 -15798192.794 2
  18674664.329    -5883881.809 3  -4037226.777 1
  17622757.431   -27787836.035 5 -21596592.714 3
  15190142.126   -43939016.174 7 -33913612.196 7
  16449453.103   -27489652.545 6 -20996224.381 6
 94  2 14 22 11 59.9810000  0  8 27 18  2 28 16 29 19 31
  15695169.978   -35701871.776 6 -26870472.544 6
  15351407.392   -46739340.149 7 -36330858.361 6
  17412666.962   -15960957.664 5 -12203503.720 4
  18357542.946   -20751461.841 5 -15796381.410 4
  18657411.478    -5974567.282 3  -4107890.758 1
  17631121.665   -27743891.021 5 -21562349.964 4
  15179942.290   -43992634.907 7 -33955393.051 7
  16439424.345   -27542341.070 6 -21037280.366 6
 94  2 14 22 12 29.9810000  0  8 27 18  2 28 16 29 19 31
  15676346.610   -35800791.410 6 -26947552.761 6
  15352743.985   -46732315.098 7 -36325384.334 6
  17388603.384   -16087413.325 5 -12302040.573 5
  18358078.603   -20748669.138 5 -15794205.396 3
  18640244.407    -6064739.209 3  -4178154.613 2
  17639533.665   -27699684.307 5 -21527903.302 4
  15169777.251   -44046051.611 7 -33997016.471 7
  16429510.173   -27594438.475 6 -21077875.731 6
 94  2 14 22 12 59.9810000  0  8 27 18  2 28 16 29 19 31
  15657557.290   -35899530.818 6 -27024492.550 6
  15354165.087   -46724851.622 7 -36319568.681 6
  17364588.650   -16213620.503 5 -12400383.792 5
  18358696.009   -20745388.561 5 -15791649.208 3
  18623188.025    -6154387.518 3  -4248010.422 2
  17647991.360   -27655231.931 5 -21493265.195 4
  15159653.056   -44099252.067 7 -34038471.387 7
  16419709.235   -27645944.237 6 -21118010.094 6
 94  2 14 22 13 29.9810000  0  8 27 18  2 28 16 29 19 31
  15638802.798   -35998087.249 6 -27101289.750 6
  15355669.103   -46716942.942 7 -36313406.107 6
  17340623.923   -16339555.471 5 -12498514.885 5
  18359417.798   -20741591.083 5 -15788690.224 2
  18606228.689    -6243498.331 3  -4317447.403 1
  17656498.368   -27610538.769 5 -21458439.471 4
  15149571.142   -44152226.386 7 -34079750.094 7
  16410025.509   -27696847.073 6 -21157674.635 6
 94  2 14 22 13 59.9810000  0  8 27 18  2 28 16 29 19 31
  15620078.235   -36096484.650 6 -27177963.036 6
  15357259.235   -46708585.760 7 -36306894.062 6
  17316709.782   -16465219.816 5 -12596435.115 5
  18360243.032   -20737271.470 5 -15785324.387 2
  18589379.040    -6332067.029 3  -4386461.967 1
  17665044.868   -27565618.449 5 -21423436.741 4
  15139534.548   -44204981.748 7 -34120858.183 7
  16400454.392   -27747131.176 6 -21196857.046 6
 94  2 14 22 14 29.9810000  0  8 27 18  2 28 16 29 19 31
  15601383.540   -36194724.995 6 -27254513.936 7
  15358939.485   -46699759.415 7 -36300016.431 6
  17292850.056   -16590598.278 5 -12694132.562 5
  18361161.978   -20732437.290 5 -15781557.605 2
  18572628.235    -6420086.100 3  -4455048.274 1
  17673637.900   -27520459.595 5 -21388248.141 3
  15129536.665   -44257514.412 7 -34161792.745 7
  16391004.587   -27796788.623 6 -21235551.171 6
 94  2 14 22 14 59.9810000  0  8 27 18  2 28 16 29 19 31
  15582719.259   -36292801.037 6 -27330936.822 6
  15360711.993   -46690444.723 7 -36292758.276 6
  17269045.462   -16715697.739 5 -12791612.616 5
  18362178.532   -20727100.964 5 -15777399.551 2
  18555984.493    -6507554.713 3  -4523205.637 1
  17682276.712   -27475066.836 5 -21352877.257 4
  15119583.392   -44309821.130 7 -34202551.248 7
  16381676.431   -27845818.233 6 -21273756.069 6
 94  2 14 22 15 29.9810000  0  8 27 18  2 28 16 29 19 31
  15564086.212   -36390722.595 6 -27407239.329 6
  15362576.704   -46680646.119 7 -36285123.052 6
  17245289.282   -16840532.405 6 -12888886.324 5
  18363279.446   -20721291.834 5 -15772873.034 3
  18539442.876    -6594477.812 3  -4590937.916 1
  17690960.384   -27429441.537 5 -21317325.194 4
  15109669.087   -44361909.323 7 -34243139.459 7
  16372464.407   -27894219.116 6 -21311471.050 6
 94  2 14 22 15 59.9810000  0  8 27 18  2 28 16 29 19 31
  15545482.564   -36488478.722 6 -27483412.922 7
  15364533.743   -46670362.211 7 -36277109.661 6
  17221585.048   -16965100.162 6 -12985952.058 5
  18364473.923   -20715022.851 5 -15767988.241 2
  18523009.071    -6680850.870 3  -4658241.586 1
  17699690.251   -27383564.272 5 -21281576.786 2
  15099807.235   -44413750.961 7 -34283535.557 7
  16363376.689   -27941972.941 6 -21348681.842 6
 94  2 14 22 16 29.9810000  0  8 27 18  2 28 16 29 19 31
  15526919.485   -36586031.243 6 -27559427.866 7
  15366583.001   -46659595.165 7 -36268719.797 6
  17197935.376   -17089388.080 6 -13082799.743 5
  18365758.314   -20708279.923 5 -15762734.153 2
  18506674.712    -6766674.533 3  -4725117.181 1
  17708472.017   -27337416.796 5 -21245617.825 4
  15089989.767   -44465336.381 7 -34323731.999 7
  16354412.150   -27989081.618 6 -21385389.927 6
 94  2 14 22 16 59.9810000  0  8 27 18  2 28 16 29 19 31
  15508397.470   -36683369.576 6 -27635275.912 7
  15368717.892   -46648374.886 7 -36259976.764 6
  17174336.689   -17213396.413 6 -13179429.557 5
  18367131.462   -20701060.107 5 -15757108.445 2
  18490440.829    -6851964.056 3  -4791576.554 2
  17717303.501   -27291011.586 5 -21209458.019 2
  15080219.150   -44516679.396 7 -34363739.559 7
  16345569.595   -28035544.769 6 -21421595.011 6
 94  2 14 22 17 29.9810000  0  8 27 18  2 28 16 29 19 31
  15489915.220   -36780502.374 6 -27710963.803 6
  15370936.314   -46636719.527 6 -36250894.713 6
  17150790.485   -17337127.786 6 -13275843.568 5
  18368596.814   -20693364.188 5 -15751111.758 2
  18474311.189    -6936734.448 3  -4857631.387 2
  17726183.485   -27244343.989 5 -21173093.780 4
  15070490.110   -44567799.178 7 -34403573.176 7
  16336852.423   -28081373.905 6 -21457306.047 6
 94  2 14 22 17 59.9810000  0  8 27 18  2 28 16 29 19 31
  15471470.360   -36877424.678 6 -27786487.675 6
  15373238.064   -46624624.125 7 -36241469.773 6
  17127300.220   -17460575.574 6 -13372036.613 5
  18370156.376   -20685172.451 5 -15744728.715 4
  18458280.243    -7020994.170 3  -4923288.319 1
  17735112.009   -27197417.800 5 -21136528.028 3
  15060802.728   -44618715.127 7 -34443247.950 7
  16328244.798   -28126586.315 6 -21492536.519 6
 94  2 14 22 18 29.9810000  0  8 27 18  2 28 16 29 19 31
  15453067.509   -36974131.654 6 -27861843.750 6
  15375627.157   -46612072.275 7 -36231689.152 6
  17103864.642   -17583723.561 6 -13467996.050 5
  18371816.017   -20676473.559 4 -15737950.483 3
  18442341.173    -7104746.192 3  -4988549.642 1
  17744088.001   -27150238.173 5 -21099764.786 3
  15051147.743   -44669446.906 7 -34482779.215 7
  16319759.423   -28171183.775 6 -21527287.807 6
 94  2 14 22 18 59.9810000  0  8 27 18  2 28 16 29 19 31
  15434698.720   -37070654.420 6 -27937056.310 7
  15378105.571   -46599047.161 7 -36221539.756 6
  17080487.376   -17706570.321 6 -13563720.759 5
  18373562.189   -20667277.554 4 -15730784.865 3
  18426504.017    -7187985.959 4  -5053411.814 2
  17753117.571   -27102809.858 5 -21062807.764 3
  15041529.189   -44719988.630 7 -34522162.386 7
  16311393.540   -28215161.228 6 -21561555.970 6
 94  2 14 22 19 29.9810000  0  8 27 18  2 28 16 29 19 31
  15416363.525   -37167006.076 6 -28012135.520 7
  15380676.954   -46585527.284 7 -36211004.829 6
  17057169.079   -17829114.629 6 -13659209.796 5
  18375411.181   -20657578.908 4 -15723227.618 2
  18410763.134    -7270705.159 4  -5117868.357 2
  17762188.165   -27055127.941 5 -21025653.110 2
  15031953.142   -44770324.974 7 -34561385.516 7
  16303139.939   -28258514.804 6 -21595337.990 6
 94  2 14 22 19 59.9810000  0  8 27 18  2 28 16 29 19 31
  15398063.860   -37263172.741 6 -28087070.590 7
  15383346.618   -46571502.485 7 -36200076.456 6
  17033908.931   -17951348.549 6 -13754456.972 5
  18377346.978   -20647383.338 4 -15715283.115 2
  18395120.064    -7352894.612 3  -5181912.091 2
  17771309.228   -27007192.033 5 -20988300.592 2
  15022419.165   -44820424.378 7 -34600424.019 7
  16295014.884   -28301223.470 6 -21628617.484 6
 94  2 14 22 20 29.9810000  0  8 27 18  2 28 16 29 19 31
  15379795.806   -37359170.645 6 -28161874.145 7
  15386105.345   -46557001.890 7 -36188777.337 6
  17010701.970   -18073298.333 6 -13849482.737 5
  18379378.517   -20636721.166 4 -15706975.042 1
  18379582.181    -7434557.009 3  -5245545.117 1
  17780476.017   -26959016.549 5 -20950761.340 2
  15012930.993   -44870283.387 7 -34639275.195 7
  16287008.345   -28343294.252 6 -21661399.926 6
 94  2 14 22 20 59.9810000  0  8 27 18  2 28 16 29 19 31
  15361558.501   -37455005.987 6 -28236551.032 7
  15388950.915   -46542050.826 7 -36177127.190 6
  16987544.306   -18194993.847 6 -13944310.365 5
  18381491.759   -20625611.028 4 -15698317.870 2
  18364138.142    -7515687.374 3  -5308763.614 1
  17789690.025   -26910605.326 5 -20913038.428 2
  15003488.212   -44919904.483 7 -34677940.991 7
  16279120.071   -28384748.716 6 -21693702.108 6
 94  2 14 22 21 29.9810000  0  8 27 18  2 28 16 29 19 31
  15343358.400   -37550651.763 6 -28311080.209 7
  15391877.821   -46526670.650 7 -36165142.677 6
  16964432.626   -18316434.339 6 -14038939.271 5
  18383690.970   -20614059.116 4 -15689316.498 2
  18348803.907    -7596285.555 3  -5371567.397 2
  17798945.212   -26861956.907 5 -20875130.666 3
  14994089.493   -44969294.548 7 -34716426.769 7
  16271347.267   -28425599.243 6 -21725533.690 6
 94  2 14 22 21 59.9810000  0  8 27 18  2 28 16 29 19 31
  15325200.212   -37646077.705 6 -28385438.085 7
  15394888.001   -46510855.220 7 -36152819.007 6
  16941377.275   -18437600.310 6 -14133354.245 5
  18385970.610   -20602066.321 4 -15679971.581 2
  18333576.345    -7676324.572 3  -5433935.475 2
  17808252.634   -26813060.448 5 -20837029.640 4
  14984734.118   -45018448.313 7 -34754728.419 7
  16263691.064   -28465834.352 6 -21756885.732 6
 94  2 14 22 22 29.9810000  0  8 27 18  2 28 16 29 19 31
  15307084.462   -37741275.921 6 -28459618.515 7
  15397984.556   -46494582.636 7 -36140139.112 6
  16918377.095   -18558472.530 6 -14227540.315 5
  18388347.946   -20589601.205 4 -15670258.630 1
  18318454.626    -7755776.883 4  -5495846.392 1
  17817607.267   -26763897.868 5 -20798721.256 2
  14975426.017   -45067363.814 7 -34792844.408 7
  16256151.337   -28505454.663 6 -21787758.706 6
 94  2 14 22 22 59.9810000  0  8 27 18  2 28 16 29 19 31
  15289012.235   -37836245.460 6 -28533620.750 7
  15401170.126   -46477839.851 7 -36127092.828 6
  16895434.259   -18679025.401 6 -14321477.531 5
  18390810.423   -20576663.228 4 -15660177.233 1
  18303447.017    -7834652.384 4  -5557307.841 1
  17827011.954   -26714472.694 5 -20760208.240 3
  14966166.548   -45116034.577 7 -34830769.698 7
  16248729.485   -28544450.496 6 -21818145.074 6
 94  2 14 22 23 29.9800000  0  8 27 18  2 28 16 29 19 31
  15270978.145   -37931013.928 6 -28607466.312 7
  15404443.934   -46460633.932 7 -36113685.658 6
  16872559.817   -18799248.715 6 -14415157.949 5
  18393353.910   -20563269.346 4 -15649740.571 1
  18288544.035    -7912968.293 4  -5618333.239 2
  17836462.762   -26664822.178 5 -20721519.634 2
  14956949.387   -45164466.484 7 -34868508.863 7
  16241428.504   -28582824.020 6 -21848046.521 6
 94  2 14 22 23 59.9800000  0  8 27 18  2 28 16 29 19 31
  15252979.793   -38025601.070 6 -28681170.579 7
  15407810.098   -46442948.721 7 -36099905.006 6
  16849739.160   -18919157.918 6 -14508593.607 5
  18395985.184   -20549407.650 4 -15638939.398 2
  18273749.731    -7990710.236 4  -5678911.409 1
  17845954.707   -26614947.994 5 -20682656.753 3
  14947781.590   -45212647.525 7 -34906052.550 7
  16234243.324   -28620570.844 6 -21877459.640 6
 94  2 14 22 24 29.9800000  0  8 27 18  2 28 16 29 19 31
  15235014.504   -38120008.512 6 -28754734.832 7
  15411264.293   -46424793.205 7 -36085757.908 6
  16826979.692   -19038765.491 6 -14601794.217 5
  18398716.442   -20535068.086 4 -15627765.822 2
  18259065.692    -8067881.649 4  -5739044.985 2
  17855483.285   -26564861.156 5 -20643628.167 3
  14938659.418   -45260576.334 7 -34943399.686 7
  16227181.020   -28657692.401 6 -21906385.540 6
 94  2 14 22 24 59.9800000  0  8 27 18  2 28 16 29 19 31
  15217085.387   -38214220.575 6 -28828146.829 7
  15414804.832   -46406185.425 6 -36071258.382 6
  16804275.746   -19158068.062 6 -14694757.169 5
  18401539.082   -20520264.128 4 -15616230.395 2
  18244485.402    -8144485.762 4  -5798736.511 1
  17865057.074   -26514566.501 5 -20604437.634 2
  14929587.520   -45308247.409 7 -34980545.990 7
  16220236.293   -28694190.470 6 -21934825.607 6
 94  2 14 22 25 29.9800000  0  8 27 18  2 28 16 29 19 31
  15199195.238   -38308236.552 6 -28901406.015 7
  15418431.051   -46387138.451 7 -36056416.622 6
  16781627.043   -19277085.883 6 -14787498.235 5
  18404447.371   -20504992.853 4 -15604330.811 2
  18230018.254    -8220525.372 4  -5857988.150 2
  17874667.168   -26464065.003 5 -20565085.927 1
  14920563.442   -45355678.184 7 -35017505.055 6
  16213405.082   -28730083.794 6 -21962794.443 6
 94  2 14 22 25 59.9800000  0  8 27 18  2 28 16 29 19 31
  15181348.645   -38402026.307 6 -28974488.946 7
  15422137.012   -46367661.611 6 -36041239.929 6
  16759031.043   -19395828.914 6 -14880025.197 5
  18407438.738   -20489247.152 4 -15592061.543 3
  18215652.488    -8296011.464 4  -5916808.497 2
  17884317.777   -26413341.262 5 -20525561.054 2
  14911581.043   -45402873.063 7 -35054280.306 7
  16206691.371   -28765372.349 6 -21990292.046 6
 94  2 14 22 26 29.9800000  0  8 27 18  2 28 16 29 19 31
  15163546.442   -38495574.023 6 -29047383.257 7
  15425923.793   -46347755.053 6 -36025728.365 6
  16736495.207   -19514262.560 6 -14972311.069 5
  18410534.285   -20473024.724 4 -15579420.842 2
  18201391.434    -8370960.725 4  -5975210.528 1
  17894014.762   -26362382.329 5 -20485852.883 2
  14902646.160   -45449822.895 7 -35090864.594 6
  16200095.106   -28800037.494 6 -22017303.866 6
 94  2 14 22 26 59.9800000  0  8 27 18  2 28 16 29 19 31
  15145788.598   -38588893.397 6 -29120099.661 7
  15429793.949   -46327416.506 6 -36009880.205 6
  16714019.301   -19632373.353 6 -15064345.383 5
  18413699.793   -20456343.523 3 -15566422.646 2
  18187225.613    -8445392.110 4  -6033209.081 1
  17903757.871   -26311188.668 5 -20445961.861 3
  14893762.043   -45496522.946 7 -35127254.274 7
  16193615.637   -28834075.994 6 -22043827.413 6
 94  2 14 22 27 29.9800000  0  8 27 18  2 28 16 29 19 31
  15128067.473   -38682007.556 6 -29192656.160 7
  15433746.426   -46306648.933 6 -35993697.733 6
  16691601.184   -19750184.173 6 -15156145.952 5
  18416961.324   -20439220.595 3 -15553080.253 2
  18173155.215    -8519314.746 4  -6090811.116 2
  17913538.817   -26259778.632 5 -20405902.201 1
  14884920.184   -45542979.020 7 -35163453.822 7
  16187258.879   -28867490.056 6 -22069864.366 6
 94  2 14 22 27 59.9800000  0  8 27 18  2 28 16 29 19 31
  15110384.488   -38774939.067 6 -29265070.320 7
  15437775.457   -46285476.451 6 -35977199.744 6
  16669233.637   -19867716.200 6 -15247729.284 5
  18420298.910   -20421686.665 3 -15539417.580 2
  18159185.129    -8592739.957 4  -6148025.611 1
  17923360.379   -26208170.428 4 -20365688.113 3
  14876123.254   -45589204.453 7 -35199473.657 6
  16181015.340   -28900280.881 6 -22095415.687 6
 94  2 14 22 28 29.9800000  0  8 27 18  2 28 16 29 19 31
  15092734.348   -38867684.104 6 -29337339.175 6
  15441886.113   -46263876.074 6 -35960368.320 6
  16646926.035   -19984948.449 6 -15339079.032 5
  18423717.317   -20403730.937 3 -15525426.239 3
  18145316.481    -8665628.480 4  -6204821.865 1
  17933221.863   -26156357.001 4 -20325314.131 2
  14867375.488   -45635183.327 7 -35235301.346 6
  16174897.910   -28932430.270 6 -22120467.175 6
 94  2 14 22 28 59.9800000  0  8 27 18  2 28 16 29 19 31
  15075123.098   -38960242.518 6 -29409462.639 7
  15446074.910   -46241869.049 6 -35943220.052 6
  16624664.410   -20101924.662 6 -15430229.292 5
  18427207.856   -20385372.024 4 -15511120.745 1
  18131552.168    -8737967.773 4  -6261190.177 3
  17943116.942   -26104350.854 4 -20284789.992 2
  14858669.363   -45680929.241 7 -35270947.537 6
  16168901.606   -28963954.350 6 -22145031.430 6
 94  2 14 22 29 29.9800000  0  8 27 18  2 28 16 29 19 31
  15057551.840   -39052581.012 6 -29481414.722 7
  15450342.254   -46219442.674 6 -35925745.007 6
  16602453.567   -20218639.300 6 -15521175.722 5
  18430781.410   -20366581.689 4 -15496479.057 2
  18117896.356    -8809721.754 4  -6317102.379 1
  17953053.059   -26052134.853 4 -20244102.328 2
  14850006.934   -45726444.528 7 -35306414.008 6
  16163023.676   -28994843.947 6 -22169101.275 6
 94  2 14 22 29 59.9800000  0  8 27 18  2 28 16 29 19 31
  15040026.285   -39144678.277 6 -29553178.825 7
  15454692.707   -46196576.860 6 -35907927.542 6
  16580300.746   -20335062.346 6 -15611894.935 5
  18434449.457   -20347333.324 4 -15481480.465 1
  18104358.832    -8880876.251 4  -6372547.469 2
  17963034.340   -25999686.701 4 -20203233.748 2
  14841391.012   -45771725.897 7 -35341698.210 7
  16157272.074   -29025076.837 6 -22192659.398 6
 94  2 14 22 30 29.9800000  0  8 27 18  2 28 16 29 19 31
  15022541.692   -39236556.463 6 -29624772.233 7
  15459126.402   -46173277.329 6 -35889772.108 6
  16558201.535   -20451205.640 6 -15702396.164 5
  18438197.121   -20327647.599 3 -15466141.052 2
  18090927.981    -8951449.536 4  -6427539.657 2
  17973053.137   -25947027.553 4 -20162200.777 2
  14832815.496   -45816787.944 7 -35376811.507 6
  16151638.746   -29054681.040 6 -22215727.627 6
 94  2 14 22 30 59.9800000  0  8 27 18  2 28 16 29 19 31
  15005095.152   -39328242.019 6 -29696215.524 7
  15463640.418   -46149555.147 6 -35871287.347 6
  16536150.738   -20567073.295 6 -15792682.617 5
  18442024.082   -20307537.392 3 -15450470.879 1
  18077599.863    -9021476.402 4  -6482106.063 1
  17983115.887   -25894164.094 4 -20121008.567 2
  14824280.684   -45861649.197 7 -35411768.338 7
  16146117.231   -29083673.888 6 -22238319.484 6
 94  2 14 22 31 29.9800000  0  8 27 18  2 28 16 29 19 31
  14987679.504   -39419760.926 6 -29767528.967 7
  15468237.785   -46125398.518 6 -35852464.052 6
  16514156.285   -20682644.993 6 -15882738.461 5
  18445925.512   -20287003.496 3 -15434470.563 1
  18064373.481    -9090989.427 4  -6536272.085 1
  17993211.285   -25841114.296 5 -20079671.184 2
  14815775.988   -45906337.303 7 -35446590.242 7
  16140719.309   -29112060.525 6 -22260438.966 6
 94  2 14 22 31 59.9800000  0  8 27 18  2 28 16 29 19 31
  14970298.817   -39511092.734 6 -29838696.619 7
  15472922.567   -46100782.808 6 -35833283.031 6
  16492229.379   -20797882.632 6 -15972533.995 5
  18449921.340   -20266032.080 3 -15418129.327 1
  18051248.856    -9159973.322 4  -6590025.801 2
  18003343.762   -25787854.965 5 -20038170.546 1
  14807315.598   -45950794.670 7 -35481232.371 7
  16135436.887   -29139811.919 6 -22282063.455 6
 94  2 14 22 32 29.9800000  0  8 27 18  2 28 16 29 19 31
  14952957.293   -39602223.676 6 -29909707.751 7
  15477690.652   -46075716.786 6 -35813751.118 6
  16470363.543   -20912787.658 6 -16062070.353 5
  18453997.496   -20244618.957 3 -15401443.914 1
  18038218.981    -9228424.881 4  -6643364.644 1
  18013519.012   -25734392.984 5 -19996511.988 2
  14798903.488   -45995003.111 7 -35515680.520 7
  16130275.098   -29166941.255 6 -22303203.225 6
 94  2 14 22 32 59.9800000  0  8 27 18  2 28 16 29 19 31
  14935655.535   -39693148.176 6 -29980558.013 6
  15482541.879   -46050226.190 6 -35793888.362 6
  16448559.402   -21027371.872 6 -16151356.727 5
  18458152.496   -20222767.858 3 -15384417.219 1
  18025295.598    -9296357.734 4  -6696299.372 1
  18023727.856   -25680752.092 5 -19954713.976 1
  14790536.418   -46038971.867 7 -35549941.911 7
  16125230.410   -29193457.755 6 -22323865.462 5
 94  2 14 22 33 29.9800000  0  8 27 18  2 28 16 29 19 31
  14918393.402   -39783855.580 6 -30051239.118 7
  15487471.856   -46024328.521 6 -35773708.410 6
  16426812.957   -21141657.418 6 -16240410.379 6
  18462391.395   -20200496.299 3 -15367062.920 2
  18012465.629    -9363759.078 4  -6748819.909 2
  18033964.410   -25626953.902 5 -19912793.441 1
  14782217.856   -46082682.873 7 -35584002.450 7
  16120294.504   -29219379.610 6 -22344064.339 6
 94  2 14 22 33 59.9800000  0  8 27 18  2 28 16 29 19 31
  14901175.520   -39874340.430 6 -30121746.788 7
  15492472.785   -45998045.470 6 -35753228.164 6
  16405115.418   -21255667.723 6 -16329249.550 5
  18466708.465   -20177821.046 3 -15349393.999 1
  17999744.199    -9430612.963 4  -6800913.880 3
  18044231.910   -25573002.806 5 -19870753.736 1
  14773954.621   -46126114.081 7 -35617844.966 7
  16115472.442   -29244721.136 6 -22363811.007 6
 94  2 14 22 34 29.9800000  0  8 27 18  2 28 16 29 19 31
  14884001.770   -39964594.145 6 -30192074.356 7
  15497549.012   -45971369.986 6 -35732442.126 6
  16383471.981   -21369406.367 6 -16417877.041 5
  18471093.020   -20154736.261 3 -15331405.996 1
  17987126.106    -9496911.118 4  -6852574.787 1
  18054527.645   -25518894.219 4 -19828591.312 1
  14765740.113   -46169285.199 7 -35651484.813 7
  16110762.785   -29269474.326 6 -22383099.241 6
 94  2 14 22 34 59.9800000  0  8 27 18  2 28 16 29 19 31
  14866865.699   -40054641.531 6 -30262241.138 7
  15502700.902   -45944298.135 6 -35711347.237 6
  16361877.957   -21482876.686 6 -16506295.456 5
  18475563.660   -20131269.049 3 -15313119.979 1
  17974614.887    -9562662.692 4  -6903809.797 1
  18064853.559   -25464633.415 4 -19786310.305 1
  14757570.152   -46212215.966 7 -35684937.377 6
  16106164.676   -29293632.622 6 -22401923.924 6
 94  2 14 22 35 29.9800000  0  8 27 18  2 28 16 29 19 31
  14849768.574   -40144489.873 6 -30332252.833 7
  15507928.785   -45916821.874 6 -35689937.215 6
  16340337.238   -21596081.145 6 -16594506.706 5
  18480101.301   -20107435.667 3 -15294548.652 1
  17962206.973    -9627872.814 3  -6954622.877 1
  18075207.074   -25410202.547 4 -19743896.773 1
  14749443.113   -46254912.116 7 -35718207.123 6
  16101683.621   -29317190.344 6 -22420280.625 6
 94  2 14 22 35 59.9800000  0  8 27 18  2 28 16 29 19 31
  14832709.020   -40234133.342 6 -30402104.877 7
  15513236.848   -45888934.744 6 -35668207.034 6
  16318849.840   -21709003.693 6 -16682498.290 5
  18484701.277   -20083227.512 3 -15275685.282 1
  17949898.184    -9692547.955 4  -7005019.128 1
  18085599.785   -25355586.556 3 -19701338.987 1
  14741360.551   -46297389.286 7 -35751306.237 7
  16097317.762   -29340128.149 6 -22438154.278 6
 94  2 14 22 36 29.9800000  0  8 27 18  2 28 16 29 19 31
  14815687.668   -40323582.013 6 -30471805.138 7
  15518619.801   -45860643.317 6 -35646161.820 6
  16297413.254   -21821639.450 6 -16770266.384 6
  18489384.895   -20058644.582 3 -15256529.865 1
  17937691.246    -9756709.114 4  -7055014.833 2
  18096030.020   -25300794.394 3 -19658643.944 3
  14733314.910   -46339666.045 7 -35784249.185 7
  16093070.715   -29362446.106 6 -22455544.933 6
 94  2 14 22 36 59.9800000  0  8 27 18  2 28 16 29 19 31
  14798707.254   -40412815.240 6 -30541337.513 7
  15524082.809   -45831934.683 6 -35623791.516 6
  16276040.621   -21933964.938 6 -16857792.727 5
  18494137.637   -20033671.077 3 -15237070.088 1
  17925585.254    -9820334.194 4  -7104592.832 2
  18106495.809   -25245804.698 3 -19615794.973 1
  14725314.231   -46381704.338 7 -35817006.311 6
  16088945.317   -29384132.850 6 -22472443.730 6
 94  2 14 22 37 29.9800000  0  8 27 18  2 28 16 29 19 31
  14781766.715   -40501830.091 6 -30610699.725 7
  15529618.512   -45802842.267 6 -35601122.156 6
  16254722.442   -22045995.634 6 -16945089.361 6
  18498961.738   -20008310.828 3 -15217308.940 1
  17913576.770    -9883425.814 4  -7153755.160 1
  18116994.410   -25190630.584 3 -19572802.293 2
  14717363.027   -46423508.193 7 -35849580.772 7
  16084929.996   -29405225.952 6 -22488879.957 6
 94  2 14 22 37 59.9800000  0  8 27 18  2 28 16 29 19 31
  14764867.817   -40590639.647 6 -30679901.974 7
  15535224.137   -45773383.737 6 -35578167.513 6
  16233459.199   -22157734.548 6 -17032158.625 5
  18503864.598   -19982559.733 3 -15197243.265 2
  17901671.684    -9945988.380 3  -7202505.216 1
  18127522.168   -25135297.458 3 -19529685.703 1
  14709447.957   -46465087.461 7 -35881980.217 7
  16081026.629   -29425747.736 6 -22504870.985 5
 94  2 14 22 38 29.9800000  0  8 27 18  2 28 16 29 19 31
  14748006.692   -40679248.138 6 -30748947.546 7
  15540901.012   -45743552.949 6 -35554922.796 6
  16212249.902   -22269180.100 6 -17118999.291 5
  18508843.395   -19956411.883 3 -15176868.413 1
  17889867.004   -10008021.880 3  -7250843.007 1
  18138086.738   -25079805.012 3 -19486444.971 1
  14701579.785   -46506438.836 7 -35914202.088 7
  16077229.496   -29445702.896 6 -22520420.508 6
 94  2 14 22 38 59.9790000  0  8 27 18  2 28 16 29 19 31
  14731184.163   -40767651.717 6 -30817833.439 7
  15546649.319   -45713343.682 6 -35531383.164 6
  16191096.101   -22380335.572 6 -17205613.923 6
  18513894.194   -19929879.363 3 -15156193.859 1
  17878167.624   -10069517.317 4  -7298761.524 2
  18148672.577   -25024167.211 3 -19443090.993 1
  14693752.609   -46547567.787 7 -35946250.645 7
  16073539.312   -29465097.606 6 -22535533.303 6
 94  2 14 22 39 29.9790000  0  8 27 18  2 28 16 29 19 31
  14714400.921   -40855850.398 6 -30886559.686 7
  15552474.343   -45682740.425 6 -35507536.531 6
  16170001.273   -22491205.493 6 -17292006.031 6
  18519013.616   -19902946.352 3 -15135207.176 1
  17866566.687   -10130476.330 3  -7346262.081 1
  18159288.960   -24968382.303 3 -19399622.344 1
  14685967.843   -46588488.764 7 -35978137.139 7
  16069956.343   -29483908.960 6 -22550191.538 6
 94  2 14 22 39 59.9790000  0  8 27 18  2 28 16 29 19 31
  14697654.859   -40943846.154 6 -30955127.813 7
  15558373.749   -45651734.287 6 -35483375.967 6
  16148957.913   -22601791.064 6 -17378176.583 5
  18524216.843   -19875614.797 4 -15113909.952 1
  17855066.632   -10190911.105 3  -7393354.135 1
  18169928.601   -24912460.282 3 -19356046.832 1
  14678218.226   -46629200.597 7 -36009860.671 7
  16066494.155   -29502113.404 6 -22564376.870 6
 94  2 14 22 40 29.9790000  0  8 27 18  2 28 16 29 19 31
  14680952.866   -41031619.186 6 -31023522.391 7
  15564350.280   -45620326.574 6 -35458902.489 6
  16127966.319   -22712096.082 6 -17464128.506 5
  18529489.991   -19847891.977 4 -15092307.869 1
  17843664.804   -10250806.736 4  -7440026.083 2
  18180597.968   -24856398.237 3 -19312362.274 2
  14670513.390   -46669692.427 7 -36041412.777 7
  16063149.749   -29519692.583 6 -22578074.971 5
 94  2 14 22 40 59.9790000  0  8 27 18  2 28 16 29 19 31
  14664293.148   -41119165.021 6 -31091739.922 7
  15570400.632   -45588531.439 6 -35434127.121 6
  16107028.562   -22822124.784 6 -17549865.122 5
  18534837.687   -19819794.145 3 -15070413.531 1
  17832369.765   -10310159.471 4  -7486274.974 2
  18191291.343   -24800204.058 3 -19268574.732 1
  14662852.148   -46709952.952 7 -36072784.636 7
  16059922.921   -29536644.399 6 -22591284.235 5
 94  2 14 22 41 29.9790000  0  8 27 18  2 28 16 29 19 31
  14647679.163   -41206471.367 6 -31159770.859 7
  15576522.132   -45556362.843 6 -35409060.751 6
  16086147.554   -22931854.815 6 -17635369.015 5
  18540257.226   -19791313.218 3 -15048220.689 1
  17821185.538   -10368957.172 4  -7532091.372 1
  18202015.405   -24743861.205 3 -19224671.306 1
  14655241.976   -46749951.287 7 -36103952.194 7
  16056815.273   -29552965.502 6 -22604002.029 6
 94  2 14 22 41 59.9790000  0  8 27 18  2 28 16 29 19 31
  14631111.960   -41293533.547 6 -31227611.519 7
  15582714.960   -45523825.754 6 -35383707.241 6
  16065326.202   -23041273.706 6 -17720630.459 6
  18545753.210   -19762461.023 3 -15025738.583 1
  17810105.741   -10427184.567 4  -7577463.337 1
  18212759.749   -24687372.495 3 -19180654.258 1
  14647682.702   -46789667.370 7 -36134899.817 7
  16053828.062   -29568670.865 6 -22616240.019 5
 94  2 14 22 42 29.9790000  0  7 27 18  2 16 29 19 31
  14614591.538   -41380347.368 6 -31295258.665 7
  15588976.976   -45490912.693 6 -35358060.767 6
  16044564.585   -23150362.412 6 -17805634.617 6
  17799132.960   -10484839.320 4  -7622389.150 1
  18223539.851   -24630731.124 3 -19136518.238 1
  14640180.023   -46829105.873 7 -36165631.142 7
  16050954.632   -29583774.511 6 -22628009.139 5
 94  2 14 22 42 59.9790000  0  7 27 18  2 16 29 19 31
  14598119.874   -41466904.029 7 -31362705.422 7
  15595316.265   -45457597.611 6 -35332101.043 6
  16023875.609   -23259098.770 6 -17890364.226 6
  17788270.757   -10541911.410 4  -7666860.934 1
  18234351.421   -24573918.182 3 -19092248.550 2
  14632729.062   -46868250.323 7 -36196133.330 7
  16048194.866   -29598279.598 6 -22639311.850 5
 94  2 14 22 43 29.9790000  0  7 27 18  2 16 29 19 31
  14581701.413   -41553193.342 7 -31429943.858 7
  15601735.124   -45423869.202 6 -35305819.236 6
  16003246.999   -23367490.105 6 -17974824.971 6
  17777523.913   -10598404.883 4  -7710881.825 1
  18245197.702   -24516927.476 3 -19047840.324 1
  14625332.819   -46907117.647 7 -36226419.578 7
  16045548.702   -29612190.503 6 -22650151.557 5
 94  2 14 22 43 59.9790000  0  7 27 18  2 16 29 19 31
  14565328.257   -41639235.508 7 -31496989.701 7
  15608232.249   -45389725.963 6 -35279214.191 6
  15982681.726   -23475568.731 6 -18059042.058 6
  17766873.523   -10654359.616 4  -7754482.926 2
  18256071.030   -24459768.224 3 -19003300.791 2
  14617982.890   -46945750.429 7 -36256523.064 7
  16043010.812   -29625515.732 6 -22660534.900 5
 94  2 14 22 44 29.9790000  0  7 27 18  2 16 29 19 31
  14548998.444   -41725043.884 7 -31563853.381 7
  15614806.851   -45355179.112 6 -35252294.645 6
  15962173.944   -23583352.041 6 -18143029.031 6
  17756327.577   -10709795.773 3  -7797679.940 2
  18266978.663   -24402444.783 3 -18958633.305 1
  14610671.866   -46984163.232 7 -36286455.139 7
  16040585.007   -29638272.158 6 -22670475.010 6
 94  2 14 22 44 59.9790000  0  7 27 18  2 16 29 19 31
  14532708.773   -41810639.685 6 -31630551.414 7
  15621451.351   -45320264.150 6 -35225088.265 6
  15941711.780   -23690873.544 6 -18226812.011 6
  17745874.499   -10764721.667 4  -7840479.349 2
  18277917.616   -24344983.138 3 -18913858.124 2
  14603403.569   -47022359.529 7 -36316218.508 7
  16038263.359   -29650469.912 6 -22679979.798 6
 94  2 14 22 45 29.9790000  0  7 27 18  2 16 29 19 31
  14516465.194   -41896010.803 6 -31697074.365 7
  15628165.343   -45284981.850 6 -35197595.652 6
  15921302.984   -23798107.236 6 -18310370.724 6
  17735516.476   -10819137.099 4  -7882880.973 2
  18288879.398   -24287376.530 3 -18868969.992 1
  14596180.585   -47060318.007 7 -36345796.559 7
  16036054.421   -29662075.999 6 -22689023.554 6
 94  2 14 22 45 59.9790000  0  7 27 18  2 16 29 19 31
  14500260.030   -41981169.022 6 -31763431.422 7
  15634945.671   -45249349.659 6 -35169830.385 6
  15900953.499   -23905047.204 6 -18393700.555 6
  17725258.991   -10873037.056 4  -7924880.947 2
  18299863.968   -24229641.891 3 -18823982.102 1
  14589007.952   -47098014.209 7 -36375170.242 7
  16033954.499   -29673101.088 6 -22697614.574 5
 94  2 14 22 46 29.9790000  0  7 27 18  2 16 29 19 31
  14484099.507   -42066090.198 6 -31829603.764 7
  15641790.429   -45213379.220 6 -35141801.547 6
  15880663.140   -24011681.820 6 -18476792.453 6
  17715108.929   -10926382.932 4  -7966449.149 1
  18310875.319   -24171776.865 3 -18778892.600 2
  14581890.359   -47135411.631 7 -36404311.109 7
  16031971.734   -29683534.279 6 -22705744.385 5
 94  2 14 22 46 59.9790000  0  7 27 18  2 16 29 19 31
  14467987.546   -42150757.331 7 -31895578.151 7
  15648701.890   -45177058.535 6 -35113499.803 6
  15860430.437   -24118005.785 6 -18559642.287 6
  17705062.757   -10979173.301 4  -8007584.521 2
  18321911.280   -24113776.882 3 -18733697.934 2
  14574832.819   -47172502.920 7 -36433213.426 7
  16030101.093   -29693354.979 6 -22713396.932 5
 94  2 14 22 47 29.9790000  0  7 27 18  2 16 29 19 31
  14451927.288   -42235160.720 7 -31961347.014 7
  15655684.374   -45140369.933 6 -35084911.356 6
  15840257.343   -24224012.233 6 -18642244.698 6
  17695122.038   -11031415.541 4  -8048292.747 1
  18332978.968   -24055633.631 3 -18688391.668 1
  14567830.882   -47209301.523 7 -36461887.670 7
  16028348.929   -29702561.762 6 -22720571.100 5
 94  2 14 22 47 59.9790000  0  7 27 18  2 16 29 19 31
  14435914.093   -42319306.258 7 -32026914.945 7
  15662735.898   -45103311.668 6 -35056034.872 5
  15820141.234   -24329725.619 6 -18724618.751 6
  17685287.562   -11083097.846 4  -8088564.675 2
  18344066.374   -23997348.910 3 -18642975.112 1
  14560880.187   -47245826.831 7 -36490348.965 7
  16026711.937   -29711167.766 6 -22727277.112 6
 94  2 14 22 48 29.9790000  0  8 27 18  2  7 16 29 19 31
  14419949.616   -42403195.976 7 -32092283.537 7
  15669862.046   -45065869.234 6 -35026859.030 5
  15800081.952   -24435140.829 6 -18806760.459 6
  18459519.976          -0.20813
  17675560.187   -11134223.817 4  -8128403.077 1
  18355187.210   -23938925.974 3 -18597450.911 1
  14553975.484   -47282105.627 7 -36518618.181 7
  16025190.054   -29719168.398 6 -22733511.399 5
 94  2 14 22 48 59.9790000  0  8 27 18  2  7 16 29 19 31
  14404031.726   -42486847.721 7 -32157466.709 7
  15677062.991   -45028029.475 6 -34997373.577 5
  15780079.124   -24540249.074 6 -18888662.978 6
  18429424.327     -158131.571 2
  17665932.046   -11184811.271 5  -8167821.896 2
  18366323.523   -23880382.516 3
  14547115.343   -47318166.069 7 -36546717.239 6
  16023779.874   -29726571.338 6 -22739279.965 5
 94  2 14 22 49 29.9790000  0  7 27 18  2  7 16 19 31
  14388154.944   -42570283.054 7 -32222481.244 7
  15684332.468   -44989828.456 6 -34967606.638 5
  15760134.648   -24645057.263 6 -18970331.683 6
  18399342.335     -316251.794 3        -0.27611
  17656409.226   -11234863.946 5  -8206823.974 2
  14540290.937   -47354021.571 7 -36574656.610 7
  16022480.343   -29733402.751 6 -22744603.171 5
 94  2 14 22 49 59.9790000  0  7 27 18  2  7 16 19 31
  14372320.077   -42653499.699 7 -32287325.371 7
  15691666.655   -44951279.136 6 -34937568.277 5
  15740250.265   -24749555.742 6 -19051759.054 6
  18369246.499     -474367.622 3   -123207.336 1
  17646989.991   -11284367.532 5  -8245398.206 2
  14533511.741   -47389650.037 7 -36602419.071 7
  16021288.194   -29739666.547 6 -22749484.072 5
 94  2 14 22 50 29.9790000  0  7 27 18  2  7 16 19 31
  14356526.007   -42736494.436 7 -32351996.580 7
  15699066.859   -44912392.152 6 -34907266.814 5
  15720427.913   -24853733.910 6 -19132936.832 6
  18339153.851     -632488.961 3   -246418.725 1
  17637669.491   -11333342.587 4  -8283560.598 2
  14526776.585   -47425042.820 7 -36629997.877 7
  16020202.757   -29745371.239 6 -22753929.309 5
 94  2 14 22 50 59.9790000  0  7 27 18  2  7 16 19 31
  14340775.905   -42819258.495 7 -32416488.053 7
  15706527.265   -44873186.868 6 -34876717.308 5
  15700660.241   -24957604.090 6 -19213874.620 6
  18309062.226     -790629.546 3   -369645.077 1
  17628446.796   -11381800.284 4  -8321319.850 1
  14520090.390   -47460182.958 7 -36657379.821 7
  16019222.687   -29750516.918 6 -22757938.956 5
 94  2 14 22 51 29.9790000  0  7 27 18  2  7 16 19 31
  14325074.351   -42901778.934 7 -32480789.691 7
  15714046.398   -44833671.889 6 -34845926.502 5
  15680949.116   -25061180.563 6 -19294583.544 6
  18278964.491     -948790.322 3   -492887.135 1
  17619328.023   -11429738.069 5  -8358673.968 2
  14513453.835   -47495047.305 7 -36684546.860 7
  16018353.023   -29755101.673 6 -22761511.511 5
 94  2 14 22 51 59.9790000  0  7 27 18  2  7 16 19 31
  14309417.444   -42984049.963 7 -32544896.985 7
  15721625.273   -44793845.747 6 -34814893.226 5
  15661294.569   -25164475.382 6 -19375072.994 6
  18248865.437    -1106978.185 3   -616150.337 1
  17610296.960   -11477171.520 4  -8395635.097 2
  14506870.054   -47529650.000 7 -36711510.012 7
  16017584.898   -29759136.856 6 -22764655.839 5
 94  2 14 22 52 29.9790000  0  7 27 18  2  7 16 19 31
  14293812.819   -43066052.061 7 -32608794.726 7
  15729269.796   -44753680.645 6 -34783595.808 5
  15641690.984   -25267484.129 6 -19455339.535 6
  18218758.788    -1265176.359 3   -739421.519 1
  17601368.804   -11524088.996 4  -8432194.195 2
  14500335.023   -47563987.252 7 -36738266.330 7
  16016925.593   -29762604.820 6 -22767358.184 5
 94  2 14 22 52 59.9790000  0  7 27 18  2  7 16 19 31
  14278262.819   -43147769.267 7 -32672470.485 7
  15736980.476   -44713156.721 6 -34752018.799 5
  15622142.984   -25370204.520 6 -19535381.376 6
  18188658.023    -1423380.624 3   -862697.472 1
  17592543.038   -11570464.341 4  -8468330.857 1
  14493853.273   -47598051.297 7 -36764809.753 7
  16016376.327   -29765492.414 6 -22769608.296 5
 94  2 14 22 53 29.9790000  0  7 27 18  2  7 16 19 31
  14262767.655   -43229194.669 7 -32735918.858 7
  15744762.538   -44672261.799 6 -34720152.704 5
  15602657.913   -25472614.548 6 -19615181.387 6
  18158557.687    -1581563.202 3   -985956.485 1
  17583826.343   -11616285.905 4  -8504035.964 1
  14487425.046   -47631836.342 7 -36791135.783 7
  16015936.694   -29767796.049 6 -22771403.376 5
 94  2 14 22 53 59.9790000  0  7 27 18  2  7 16 19 31
  14247326.585   -43310342.732 7 -32799151.117 7
  15752614.116   -44631003.347 6 -34688003.335 5
  15583228.968   -25574707.312 6 -19694734.162 6
  18128460.413    -1739710.098 3
  17575210.101   -11661557.677 5  -8539312.693 1
  14481045.530   -47665356.355 7 -36817255.286 7
  16015607.421   -29769526.077 6 -22772751.506 5
 94  2 14 22 54 29.9780000  0  7 27 18  2  7 16 19 31
  14231932.494   -43391237.768 7 -32862186.230 7
  15760532.346   -44589393.319 6 -34655580.022 5
  15563861.158   -25676487.689 6 -19774043.536 6
  18098373.682    -1897815.519 3
  17566700.940   -11706283.306 4  -8574163.852 2
  14474718.674   -47698602.676 7 -36843161.521 7
  16015388.432   -29770682.111 6 -22773652.358 5
 94  2 14 22 54 59.9780000  0  7 27 18  2  7 16 19 31
  14216583.026   -43471893.613 7 -32925034.948 7
  15768513.854   -44547447.929 6 -34622895.378 5
  15544554.557   -25777952.754 6 -19853107.192 6
  18068296.830    -2055882.875 3        -0.37711
  17558288.049   -11750473.280 4  -8608597.620 2
  14468446.236   -47731570.502 7 -36868850.749 7
  16015275.604   -29771274.536 6 -22774114.037 5
 94  2 14 22 55 29.9780000  0  7 27 18  2  7 16 19 31
  14201283.846   -43552295.991 7 -32987686.150 7
  15776562.151   -44505159.601 6 -34589943.518 5
  15525311.361   -25879071.503 6 -19931900.993 6
  18038233.533    -2213860.807 3   -123099.923 1
  17549985.783   -11794117.426 4  -8642606.089 1
  14462229.869   -47764238.376 7 -36894306.243 7
  16015272.127   -29771290.309 6
 94  2 14 22 55 59.9780000  0  7 27 18  2  7 16 19 31
  14186035.088   -43632431.424 6 -33050129.350 7
  15784677.666   -44462511.746 6 -34556711.503 5
  15506133.111   -25979842.817 6 -20010424.085 6
  18008187.190    -2371740.743 3   -246123.096 1
  17541787.143   -11837201.204 4  -8676177.897 2
  14456071.127   -47796607.460 7 -36919528.911 7
  16015381.307   -29770718.220 6
 94  2 14 22 56 29.9780000  0  7 27 18  2  7 16 19 31
  14170836.815   -43712290.013 6 -33112356.833 7
  15792860.119   -44419507.937 6 -34523202.125 5
  15487023.869   -26080274.694 6 -20088682.669 6
  17978159.010    -2529542.215 3   -369085.175 1
  17533690.783   -11879739.381 4  -8709324.542 1
  14449965.268   -47828686.531 7 -36944525.605 7
  16015602.190   -29769558.178 6 -22772776.737 5
 94  2 14 22 56 59.9780000  0  7 27 18  2  7 16 19 31
  14155698.182   -43791849.280 7 -33174351.072 7
  15801113.041   -44376139.820 6 -34489408.860 5
  15467976.416   -26180359.678 6 -20166670.950 6
  17948145.088    -2687258.086 3   -491980.485 1
  17525701.260   -11921742.829 4  -8742054.534 1
  14443911.049   -47860496.834 7 -36969312.871 7
  16015934.252   -29767811.365 6 -22771415.628 5
 94  2 14 22 57 29.9780000  0  7 27 18  2  7 16 19 31
  14140618.033   -43871098.808 6 -33236103.958 7
  15809434.791   -44332410.043 6 -34455333.792 5
  15448994.174   -26280114.293 6 -20244401.784 6
  17918147.190    -2844889.630 3   -614810.135 1
  17517807.776   -11963214.113 4  -8774369.796 1
  14437908.682   -47892051.364 7 -36993900.829 7
  16016379.651   -29765471.830 6 -22769592.653 5
 94  2 14 22 57 59.9780000  0  7 27 18  2  7 16 19 31
  14125596.244   -43950038.608 7 -33297615.494 7
  15817821.986   -44288330.704 6 -34420986.336 5
  15430072.893   -26379558.760 6 -20321890.963 6
  17888165.901    -3002459.166 3   -737591.440 1
  17510017.713   -12004160.987 4  -8806276.506 1
  14431951.596   -47923350.467 7 -37018289.758 7
  16016936.330   -29762536.643 6 -22767305.533 5
 94  2 14 22 58 29.9780000  0  7 27 18  2  7 16 19 31
  14110628.283   -44028696.076 7 -33358907.020 7
  15826272.260   -44243930.823 6 -34386389.096 5
  15411202.588   -26478712.313 6 -20399153.438 6
  17858191.002    -3159984.634 3   -860338.398 1
  17502319.065   -12044609.876 4  -8837795.132 2
  14426044.791   -47954392.073 7 -37042478.045 7
  16017603.393   -29759031.572 6 -22764574.351 5
 94  2 14 22 58 59.9780000  0  7 27 18  2  7 16 19 31
  14095713.877   -44107071.107 6 -33419978.474 7
  15834781.080   -44199209.502 6 -34351541.406 5
  15392386.924   -26577582.474 6 -20476195.107 6
  17828220.846    -3317448.283 3   -983037.148 1
  17494721.994   -12084535.093 4  -8868905.725 1
  14420191.104   -47985153.274 7 -37066447.824 7
  16018379.307   -29754963.312 6 -22761404.304 5
